GFSWCAN_925_spd_003.txt.gz
Wind_Speed
13 26 35 34 31 28 25 21 18 16 14 11 8 5 2 2 2 3 4 3 2 3 3 2 3 4 2 3 4 4 4 3 3 2 3 4 3 5 1 4 5 5 3 5 2 4 8 4 1 5 8 3 6 7
10 16 32 33 32 30 28 25 21 18 17 15 12 8 4 1 1 3 2 3 3 4 2 2 3 3 3 8 5 2 4 4 5 4 1 2 3 2 3 5 2 3 8 4 8 6 5 4 6 8 6 8 4 4
8 9 18 33 33 30 30 26 24 21 19 18 15 12 8 4 2 2 3 3 2 4 3 2 4 7 9 10 11 4 3 3 3 4 4 3 4 4 4 5 3 4 5 3 5 8 13 9 14 18 6 1 3 5
7 10 8 21 32 33 29 29 25 24 21 20 17 15 11 8 5 4 3 3 3 6 3 5 3 6 7 13 16 17 8 5 5 3 3 3 3 6 4 5 6 7 2 5 14 13 16 16 7 3 4 9 10 7
2 6 3 9 22 32 28 27 28 25 24 22 19 18 14 11 9 6 6 6 5 2 3 4 14 10 8 12 17 15 14 4 2 0 1 3 2 2 2 1 2 6 10 5 8 15 12 12 7 6 5 2 1 6
1 3 4 5 7 19 26 26 25 26 25 22 23 20 17 14 11 5 3 12 15 6 3 2 4 4 4 6 10 12 9 3 3 3 3 3 3 4 3 3 7 7 7 8 14 11 2 5 7 8 7 2 11 11
2 2 3 4 4 5 11 17 23 21 21 22 18 18 18 16 17 5 4 2 14 12 3 3 3 3 1 1 3 3 2 1 3 3 3 3 4 5 2 5 4 6 9 8 7 3 3 3 3 4 6 9 15 16
3 3 5 6 6 6 7 8 10 15 17 17 16 14 13 18 20 8 7 3 22 4 3 2 3 4 0 2 2 3 1 2 1 2 1 2 1 2 4 7 5 2 4 6 3 1 4 7 6 5 9 13 11 8
6 6 5 7 7 7 6 9 10 10 14 16 15 15 14 4 4 6 11 13 15 2 2 2 3 3 1 2 1 2 2 1 2 1 2 1 1 4 6 5 5 5 4 4 5 6 5 2 5 6 6 7 6 8
8 7 6 5 6 6 7 9 14 17 20 22 14 3 2 1 10 14 5 2 2 1 2 2 1 2 1 1 1 2 2 1 2 3 2 1 3 5 6 9 9 7 3 8 5 3 5 4 5 6 6 8 7 9
12 8 7 7 10 14 15 19 23 27 22 4 4 2 8 9 2 4 1 2 1 2 1 1 2 2 1 2 2 1 1 1 2 3 2 2 3 4 9 7 7 10 12 10 8 6 5 5 6 7 9 11 15 15
16 12 10 9 11 14 12 12 13 6 6 9 17 11 4 2 3 2 1 1 2 3 2 2 2 2 1 1 2 1 2 1 4 0 1 2 3 5 6 6 6 7 6 3 3 5 8 8 11 12 14 16 19 18
18 16 14 11 11 13 11 8 14 27 20 8 5 3 2 1 3 5 6 3 2 2 3 2 1 1 2 3 2 2 2 3 1 0 3 4 2 4 5 4 6 10 11 12 14 18 17 17 19 21 19 26 19 18
20 20 16 13 12 15 10 22 13 6 3 3 3 4 3 3 3 3 3 3 3 1 3 3 2 2 1 2 1 3 2 2 2 2 5 2 2 5 5 4 4 7 11 11 14 18 19 20 22 27 26 27 23 20
24 22 17 13 13 13 9 13 5 5 3 2 3 3 3 2 1 1 1 1 1 2 3 2 2 2 1 3 1 2 2 3 4 4 3 3 4 3 5 5 6 6 11 12 17 15 20 23 21 24 30 25 19 20
26 20 17 14 12 11 10 9 4 3 3 3 3 3 1 2 1 1 1 1 1 2 2 3 2 3 3 3 3 5 6 6 4 3 3 3 2 3 5 7 13 17 17 17 19 20 21 22 21 22 28 27 24 20
28 7 18 17 14 13 11 3 3 4 3 3 1 1 2 2 3 2 2 2 6 2 2 3 3 8 1 3 2 4 5 3 3 3 2 2 4 7 11 15 17 19 19 20 22 24 23 26 26 22 14 24 27 22
10 20 22 23 22 14 4 2 3 3 1 1 2 3 2 2 4 1 2 2 2 2 3 3 3 2 5 5 3 3 4 3 3 3 3 5 11 16 17 15 20 21 20 22 23 25 24 23 18 16 20 24 25 22
23 25 21 23 14 5 3 2 2 3 4 2 1 1 2 1 2 2 3 3 3 2 3 1 1 3 4 3 4 4 3 3 2 4 3 11 15 18 20 22 23 22 21 21 20 18 20 21 21 22 22 21 15 17
28 28 23 17 7 3 3 2 1 3 2 3 2 0 2 2 1 2 3 1 1 2 3 4 4 3 4 3 4 3 3 5 1 4 8 6 16 19 20 19 17 20 20 20 19 16 15 18 20 21 21 19 16 14
24 18 15 11 5 5 4 2 2 2 1 1 1 2 1 2 1 2 3 3 1 3 3 3 4 5 16 15 10 15 15 12 5 5 6 8 14 13 18 20 16 16 16 16 14 15 14 14 20 21 20 19 19 18
10 15 7 5 4 3 3 1 3 1 2 1 2 2 1 1 3 3 2 3 3 3 4 5 7 7 7 6 16 19 22 21 20 18 20 21 5 7 9 12 11 10 13 13 15 15 16 19 21 23 20 19 17 11
14 8 4 2 4 4 2 1 3 1 2 2 2 1 2 2 3 3 2 3 3 8 14 11 16 21 19 24 22 24 27 22 13 14 18 19 20 20 17 15 10 10 12 17 17 18 19 22 20 19 18 17 11 9
9 4 3 2 3 1 1 2 2 2 2 1 2 2 3 3 0 2 3 3 4 3 3 10 13 5 8 10 5 14 19 17 17 19 19 16 12 16 13 16 15 16 16 21 19 21 19 18 19 17 16 11 11 13
6 2 5 3 3 3 4 1 1 1 3 2 2 3 3 2 2 2 4 4 3 3 5 11 7 6 4 4 9 18 21 15 15 6 15 12 13 13 15 15 14 14 17 19 17 17 14 17 17 16 17 14 14 14
3 4 6 7 3 4 4 4 4 5 3 3 6 3 2 3 1 5 3 3 4 3 4 5 3 1 2 10 4 8 14 9 13 13 19 12 12 11 9 7 9 13 12 12 17 18 18 18 18 17 17 17 16 16
3 4 3 2 3 3 2 1 1 3 4 5 3 1 3 3 6 4 3 4 3 8 6 6 6 9 7 15 21 25 26 23 20 14 8 9 11 12 15 15 12 15 19 19 19 20 21 19 19 18 18 19 20 20
4 5 7 5 2 1 4 2 4 6 5 3 4 4 7 8 6 4 5 9 13 13 11 14 16 19 23 26 23 18 15 12 10 11 12 14 10 10 10 5 13 17 19 20 20 22 20 20 19 20 19 19 21 22
3 2 4 3 1 3 5 6 5 4 3 4 5 4 5 4 4 6 19 23 21 17 16 20 22 18 16 13 12 11 10 10 7 4 7 4 4 3 8 12 15 15 18 17 16 16 16 17 18 20 22 22 22 22
4 4 3 4 5 6 5 6 4 4 3 5 2 3 4 4 14 15 13 13 12 13 15 16 18 15 12 10 9 9 7 7 7 7 3 2 3 10 11 12 13 14 15 14 15 15 15 16 14 15 15 12 11 11
2 3 2 2 5 4 6 4 4 2 1 3 3 6 10 4 2 12 17 13 9 8 9 12 7 11 10 10 7 4 1 2 1 2 4 4 4 5 7 9 10 11 12 12 13 12 12 12 12 12 12 11 8 7
2 5 5 3 4 4 2 3 3 3 3 1 6 3 3 2 1 4 20 18 18 14 14 14 11 10 11 8 2 3 2 3 4 5 5 6 7 8 10 11 11 12 12 11 10 10 10 11 12 13 13 9 5 6
2 3 1 2 4 4 3 2 3 4 2 3 6 3 3 3 3 3 12 19 16 16 18 17 11 8 6 4 7 7 7 7 6 6 7 8 9 11 12 13 13 12 10 10 9 9 8 9 9 10 11 10 11 11

GFSWCAN_925_spd_006.txt.gz
Wind_Speed
8 7 25 28 28 24 21 19 16 13 11 9 5 1 1 2 3 3 7 6 3 3 3 4 4 5 3 2 4 3 4 3 3 3 3 3 2 5 1 4 4 4 3 4 2 3 8 3 1 1 7 1 8 10
5 8 14 31 30 29 25 22 18 16 14 11 8 5 1 1 2 4 4 5 5 5 3 2 2 2 2 6 5 1 3 4 4 4 1 3 3 2 4 3 1 4 7 3 7 6 5 4 7 10 5 7 5 2
5 7 10 24 33 33 28 26 23 19 16 14 12 8 4 1 2 3 6 5 3 3 3 2 2 2 5 5 5 4 3 3 3 2 4 2 3 3 4 5 3 4 3 4 3 6 7 12 13 6 6 6 9 7
9 6 8 10 31 32 31 28 26 23 19 16 14 11 8 5 2 2 3 5 6 7 3 4 4 3 2 7 9 8 5 7 7 3 3 3 3 5 3 4 5 6 3 4 6 14 10 8 5 6 6 5 1 5
8 12 3 6 15 33 32 31 28 25 22 18 17 14 11 8 5 3 3 3 3 3 4 3 10 4 6 8 11 10 6 4 2 2 2 3 2 2 1 1 3 5 6 4 13 9 6 8 3 3 4 4 3 9
6 11 8 5 6 22 34 34 28 27 23 22 19 17 14 11 7 3 3 10 10 4 3 1 3 2 1 1 1 2 3 2 3 3 3 3 3 3 3 3 6 4 8 12 7 6 4 2 4 6 4 6 8 8
2 5 7 6 5 3 21 32 28 26 25 23 22 20 16 15 16 5 4 1 15 9 3 2 4 2 2 4 3 2 2 1 3 2 3 3 3 4 2 6 2 7 6 5 4 3 2 3 3 2 6 11 14 15
1 1 3 5 4 2 4 13 27 27 25 24 21 18 18 20 18 7 6 7 19 6 4 2 3 4 4 3 2 3 1 1 1 1 1 2 1 1 3 5 4 5 5 5 4 5 5 8 4 6 10 11 7 8
5 5 4 4 2 2 1 5 9 18 24 23 23 23 14 6 5 5 10 19 15 3 3 2 4 3 1 2 0 2 1 1 1 1 1 1 1 3 3 7 7 7 5 1 7 7 7 7 4 5 6 8 6 8
7 6 4 3 3 2 7 7 8 11 17 29 20 4 2 3 13 15 3 3 3 2 2 2 2 2 2 1 1 2 2 1 1 1 2 1 2 1 7 6 5 6 8 7 6 5 1 3 6 7 7 8 10 11
8 7 5 6 8 6 8 14 18 20 22 3 3 2 8 10 3 5 2 1 1 1 2 2 2 2 1 2 2 0 2 1 1 3 1 1 2 2 6 5 5 9 10 6 3 2 7 7 7 7 7 10 18 20
11 8 7 9 10 10 15 21 27 8 4 7 15 10 5 2 3 3 3 1 2 4 1 3 2 1 1 1 2 1 2 1 3 2 0 2 2 2 2 2 3 6 7 7 8 8 14 15 18 16 16 18 22 26
14 12 9 11 11 7 5 10 5 24 19 7 6 4 2 3 2 5 6 2 2 3 3 2 2 1 1 2 2 1 2 3 0 1 3 3 2 2 2 3 5 7 11 11 13 17 17 19 22 22 19 25 26 26
18 15 13 12 14 11 16 24 11 4 2 3 3 4 3 2 2 2 2 3 2 1 3 2 2 2 1 2 1 3 0 1 1 2 5 2 3 2 3 3 4 7 13 12 14 17 19 20 22 27 26 25 23 24
21 18 15 13 15 15 20 10 8 6 4 3 3 3 2 1 0 1 2 2 1 2 2 3 2 2 2 3 1 2 1 3 4 4 3 3 3 1 2 3 7 6 11 11 16 16 20 23 22 25 29 27 27 27
23 18 16 16 16 13 13 9 6 4 4 3 3 3 0 1 1 1 1 2 1 2 2 3 3 3 1 3 3 5 5 5 4 3 3 1 2 3 6 8 13 17 18 18 20 20 20 21 22 23 30 29 26 25
29 7 21 19 16 13 11 5 3 4 3 3 1 1 2 1 3 2 2 2 6 2 2 2 3 6 2 2 2 4 5 4 4 3 2 4 5 7 13 15 18 19 18 20 21 23 23 24 23 22 16 24 26 25
8 21 23 22 21 14 6 5 4 3 3 2 2 2 2 1 2 1 1 1 2 2 2 3 3 2 4 5 3 3 4 2 2 3 3 6 13 18 17 15 20 20 20 22 22 23 23 19 16 14 20 23 23 21
20 27 26 23 16 6 3 2 3 3 2 1 0 1 2 2 1 2 1 2 2 4 5 2 3 3 4 3 4 3 2 3 3 4 4 10 15 18 18 20 22 22 20 21 20 18 19 22 21 22 26 24 18 19
28 29 23 16 10 3 3 2 2 3 2 2 2 1 2 1 1 1 2 0 2 2 2 3 4 3 4 3 4 3 3 5 2 4 7 4 13 15 18 19 18 20 21 20 20 19 19 19 19 20 19 18 19 18
27 20 16 11 4 5 4 1 3 1 1 2 1 2 1 1 1 2 3 2 1 3 3 3 3 4 14 11 9 13 13 11 5 5 5 7 12 13 19 23 21 18 15 14 12 15 16 15 18 19 18 20 21 20
11 13 7 6 5 4 4 4 3 1 2 1 2 2 2 1 2 3 2 4 3 4 4 5 6 3 4 4 13 15 17 17 18 17 19 21 5 7 11 17 10 13 15 18 17 16 17 19 19 18 19 19 20 20
14 7 5 3 4 4 1 2 3 2 3 2 2 3 3 2 2 2 2 3 3 7 10 8 13 19 15 20 19 23 26 19 13 15 18 18 20 22 21 21 16 16 15 19 16 17 18 20 19 19 20 20 19 19
8 4 3 3 3 1 1 1 2 2 2 3 2 2 3 3 0 0 3 3 4 2 2 9 12 3 7 9 4 12 18 15 17 20 21 19 14 19 17 15 13 14 17 20 20 19 19 22 18 18 18 19 17 17
5 2 5 3 2 3 3 3 2 1 3 1 2 3 3 2 1 2 4 3 3 3 3 8 6 6 4 3 8 12 8 7 12 8 20 16 20 18 17 17 16 16 10 14 16 18 16 16 18 20 20 18 17 16
4 1 3 5 2 4 4 4 4 5 3 3 5 2 2 3 1 6 3 3 3 3 3 3 3 1 2 12 4 7 18 18 13 11 25 25 23 19 11 5 5 11 11 8 12 15 17 19 21 22 21 20 20 20
3 3 2 2 3 3 2 2 2 3 4 5 3 2 3 2 6 4 3 4 3 6 7 9 9 11 10 14 18 23 23 21 20 21 19 9 6 9 13 14 11 10 11 12 14 17 18 20 21 19 19 21 21 22
4 5 7 4 2 1 4 2 4 6 4 3 4 4 7 8 5 3 4 4 12 16 17 18 19 20 19 21 23 21 18 14 12 9 8 12 11 9 9 7 8 10 12 14 16 15 15 18 19 19 19 21 23 22
1 2 3 4 1 2 5 6 5 4 3 4 5 4 5 4 4 3 8 13 15 13 13 15 19 18 20 20 19 18 16 14 9 3 6 5 5 3 6 11 10 11 13 14 13 13 15 15 16 14 14 16 18 19
4 3 3 3 5 6 4 6 4 3 4 4 2 3 3 3 4 12 15 16 15 10 12 11 10 10 8 9 10 5 4 3 4 6 2 1 2 8 9 9 10 11 11 13 14 17 14 13 13 14 16 18 18 17
1 2 2 1 4 4 4 2 3 1 1 3 2 4 8 3 5 19 24 18 14 15 17 17 16 12 14 14 12 9 4 8 6 6 5 4 4 6 8 10 11 12 11 11 11 12 12 12 14 15 15 13 12 12
2 5 4 3 4 3 3 1 2 2 3 1 6 0 4 3 4 5 20 22 20 18 18 17 14 15 15 11 4 7 8 8 9 9 8 8 8 9 11 12 12 11 11 9 9 10 10 10 11 12 12 12 13 14
2 2 1 2 4 5 3 2 4 5 3 3 3 1 2 3 3 4 12 20 18 19 21 20 13 8 9 10 10 10 9 8 8 8 8 9 10 11 13 13 13 12 11 10 9 8 8 8 9 11 11 12 12 12

GFSWCAN_925_spd_009.txt.gz
Wind_Speed
3 1 11 20 20 18 17 15 13 10 8 6 4 2 3 4 4 4 7 6 3 3 2 3 5 5 3 2 4 4 3 2 3 3 3 3 3 3 2 2 3 3 3 4 2 4 7 2 2 1 3 6 9 9
6 2 4 17 22 22 19 17 15 13 10 8 6 3 2 3 3 4 4 6 8 8 3 3 4 5 2 7 5 1 3 4 4 4 2 3 3 2 3 3 0 4 5 2 7 6 2 3 8 3 2 2 4 3
9 4 5 5 22 27 24 20 18 15 12 11 9 6 3 3 4 3 7 6 5 3 3 3 2 2 3 3 3 4 2 3 3 1 4 2 4 4 4 6 2 3 4 4 1 7 12 9 3 4 2 3 3 2
11 14 3 4 9 28 27 24 21 18 15 12 11 9 6 3 3 4 4 6 7 7 4 3 2 2 2 4 4 3 9 8 8 2 3 3 2 4 4 3 5 5 4 4 6 15 10 2 2 3 4 4 3 6
10 11 13 3 5 15 29 29 25 22 19 16 13 11 9 6 4 4 5 4 4 3 4 2 5 1 2 4 8 8 15 5 3 2 2 3 2 2 1 1 5 5 7 4 6 8 4 5 4 2 5 3 1 5
9 9 14 14 5 7 24 29 29 26 23 19 17 14 12 9 7 3 3 7 7 5 4 1 3 4 5 4 6 7 9 3 3 4 3 3 3 3 3 3 5 6 7 8 7 2 1 4 6 6 1 2 4 7
6 7 10 13 9 5 9 28 30 29 25 22 19 16 14 10 9 3 3 2 11 7 3 2 3 3 4 4 4 3 3 1 2 3 3 3 2 4 2 3 4 2 5 3 1 4 5 3 4 3 5 7 9 11
5 6 6 8 9 9 6 11 29 30 30 25 20 18 16 17 14 6 3 12 14 7 4 3 3 2 2 1 1 3 1 0 1 0 1 2 1 0 4 1 5 6 6 6 7 8 8 10 5 3 6 8 9 9
4 3 3 3 7 9 7 4 11 29 31 27 20 17 11 7 6 7 14 17 6 2 4 3 4 3 3 1 1 1 1 1 1 0 1 1 2 4 1 3 5 6 0 8 9 9 5 1 5 7 8 9 9 10
4 3 4 3 1 1 5 5 3 11 27 28 18 5 1 5 16 17 5 1 3 2 1 2 1 2 2 1 1 1 2 2 2 1 1 2 2 5 3 2 2 5 10 6 4 1 3 5 7 8 9 12 12 15
6 3 2 2 1 1 8 5 8 19 27 5 3 2 7 13 4 3 2 2 1 1 1 1 0 3 2 2 2 1 1 1 2 0 2 1 2 2 3 4 3 7 8 6 3 2 5 6 8 9 10 13 15 18
9 5 3 4 2 3 11 13 7 5 5 8 14 10 5 1 3 3 2 2 2 3 1 2 1 2 1 1 2 1 2 1 3 1 2 2 1 2 3 2 2 4 2 3 4 5 9 9 11 12 13 15 19 24
11 8 6 6 4 5 16 20 15 15 23 8 4 4 1 2 2 4 4 2 3 3 3 2 2 2 2 2 3 2 2 2 1 1 3 2 3 2 2 2 2 2 6 8 9 12 13 16 19 18 17 23 25 23
15 11 10 7 4 5 12 20 17 8 3 3 2 4 2 1 1 3 3 3 1 2 4 3 2 2 1 2 1 3 1 1 2 2 5 2 4 4 3 2 2 5 11 10 12 13 15 17 19 23 22 23 23 23
16 14 12 10 9 15 14 10 7 6 3 3 3 3 1 1 2 1 2 3 1 3 3 3 3 1 1 3 2 2 2 3 4 4 2 3 3 3 3 3 5 5 10 11 12 12 18 21 20 22 24 24 23 24
21 16 12 17 13 13 7 7 6 4 4 3 4 3 1 2 1 1 2 3 1 2 2 3 3 2 1 3 3 5 5 5 3 2 2 1 2 3 4 7 12 15 15 15 16 17 19 20 19 20 25 24 24 24
22 5 19 20 14 10 7 3 4 5 3 3 2 2 2 2 2 2 1 2 5 2 2 2 3 3 3 2 2 4 5 3 3 3 2 4 4 5 10 12 15 16 15 16 19 20 19 21 21 20 15 21 26 24
6 20 25 22 19 13 8 7 4 3 4 1 2 1 2 1 2 1 1 1 2 2 3 2 4 2 4 4 3 3 4 2 3 3 2 4 9 14 15 14 16 17 16 18 19 19 19 18 16 15 17 23 21 20
22 32 28 23 15 6 3 3 3 3 1 1 1 1 1 1 2 3 1 1 0 3 5 2 3 3 3 3 3 2 2 3 3 3 3 13 18 18 18 18 19 19 17 17 16 13 13 14 15 19 20 17 18 19
30 30 23 17 12 4 3 2 2 3 2 1 2 2 2 2 1 1 1 1 1 2 1 3 4 3 3 3 4 3 3 5 3 3 5 5 14 15 16 17 15 17 17 19 18 16 17 16 14 16 19 18 17 18
26 20 18 15 6 6 4 1 3 1 2 2 0 1 2 1 1 1 1 1 0 2 3 3 3 4 11 6 7 10 11 10 5 4 5 6 11 16 17 20 20 16 13 14 12 13 15 15 19 17 18 18 18 19
13 13 8 6 5 4 4 5 3 1 2 1 2 1 2 1 1 1 1 2 3 3 4 3 3 3 3 3 12 13 14 14 15 15 18 20 6 7 10 15 11 11 13 17 16 14 17 19 18 19 19 20 21 20
16 8 6 5 4 5 1 3 4 3 3 1 2 2 2 1 2 1 2 3 3 6 9 7 8 13 11 17 16 18 17 15 11 13 15 15 17 19 20 21 20 15 11 16 15 16 18 18 17 19 20 19 20 20
10 5 3 3 4 1 1 3 1 2 2 3 2 1 2 2 1 2 3 3 4 2 2 6 7 4 6 7 4 9 10 6 9 12 14 13 10 17 21 22 21 19 17 15 15 16 16 17 20 18 18 20 21 20
6 2 4 3 1 4 3 2 1 1 2 2 1 3 2 1 1 2 3 3 2 2 2 4 3 5 3 3 7 12 8 9 10 7 19 16 17 20 21 23 22 17 10 12 15 15 16 15 14 17 19 19 19 21
5 0 4 5 1 4 4 4 4 3 2 2 4 1 2 2 1 5 3 3 3 3 3 4 3 2 3 11 5 8 15 9 8 9 23 21 14 14 11 7 6 8 7 7 10 10 12 16 16 18 19 20 19 20
4 3 2 2 3 4 3 2 2 3 4 5 3 2 3 2 5 4 3 4 3 3 6 9 10 11 9 18 19 18 15 17 18 20 23 21 15 11 11 10 8 7 6 8 9 11 14 15 15 16 17 17 16 18
3 3 6 4 2 1 4 2 4 6 4 3 4 4 6 8 5 3 1 9 13 17 17 15 13 12 15 18 20 21 23 21 17 15 16 13 8 6 5 4 5 6 6 7 10 12 13 14 15 17 16 14 15 16
0 1 4 4 2 1 4 5 5 3 4 4 5 4 4 3 2 8 10 18 16 13 14 16 18 20 17 15 13 13 14 12 9 9 11 4 2 3 6 7 8 7 8 9 9 9 12 14 12 11 11 13 13 14
2 2 3 2 5 5 4 6 3 2 4 3 2 2 1 4 7 15 18 21 21 16 16 15 16 15 13 14 15 13 11 11 11 5 3 2 4 6 7 8 9 10 10 10 10 11 11 11 11 12 13 12 14 14
1 2 2 2 4 3 3 4 2 1 0 2 1 4 3 4 5 18 24 20 19 20 20 19 20 19 16 15 13 9 6 14 13 11 10 8 7 8 9 10 11 11 11 11 10 10 10 9 10 9 10 11 12 12
1 3 3 3 4 3 4 2 1 1 3 2 3 2 3 3 4 5 19 22 19 20 21 19 16 18 17 12 11 11 10 11 13 13 12 11 11 11 12 12 11 10 9 9 8 7 6 6 7 9 9 10 11 11
1 0 0 2 4 5 3 2 4 5 2 2 2 1 1 3 3 3 12 21 17 18 22 22 15 11 11 14 16 16 15 14 13 12 12 12 12 12 12 12 12 10 9 8 7 6 6 7 8 8 9 9 9 10

GFSWCAN_925_spd_012.txt.gz
Wind_Speed
6 10 20 19 18 14 14 13 11 9 8 6 3 3 3 3 3 3 6 5 2 3 4 1 3 5 4 4 5 6 5 2 2 3 3 3 2 4 3 2 3 3 4 4 2 4 6 2 3 4 7 9 3 3
8 6 6 17 20 17 15 14 12 10 8 7 5 3 3 3 3 4 3 6 9 6 3 2 3 3 3 3 5 5 1 5 5 4 3 3 3 1 1 3 4 5 5 3 7 6 4 10 14 8 5 4 3 4
14 6 2 6 17 19 18 15 14 12 10 9 7 4 3 4 3 2 6 5 5 3 3 3 3 1 4 3 3 3 1 3 4 3 4 2 3 5 4 6 5 4 6 4 5 11 13 10 13 3 1 3 3 2
14 14 4 1 5 19 21 19 16 15 12 11 9 7 4 3 3 4 5 5 6 6 4 2 1 3 0 2 1 2 9 8 7 2 2 3 3 6 4 5 8 6 4 10 13 15 14 6 6 5 3 3 4 4
11 12 13 3 4 6 21 23 21 18 15 12 11 9 7 4 4 5 6 4 5 0 3 2 1 2 4 0 4 7 14 7 3 3 2 3 3 3 2 1 6 10 14 6 5 7 5 5 2 3 5 4 1 5
9 10 10 11 4 5 10 26 25 22 20 16 13 11 9 7 6 3 1 4 4 4 3 2 2 2 4 4 5 6 7 3 2 3 3 3 2 4 3 3 7 10 10 10 8 3 2 1 6 8 3 2 5 8
7 8 9 8 9 4 4 15 28 26 23 20 16 13 10 10 8 1 1 2 8 5 3 1 1 2 2 3 3 2 1 1 2 2 3 3 4 4 2 5 7 4 3 4 1 5 5 5 3 3 1 6 10 14
5 6 7 7 8 9 4 5 24 28 26 23 19 15 14 12 8 3 2 9 10 6 4 3 2 1 1 2 2 1 2 1 2 1 1 2 2 1 3 2 2 3 4 6 7 3 8 8 3 3 7 11 12 13
5 4 6 6 6 7 8 3 9 27 29 26 22 20 13 7 7 6 11 12 5 2 3 2 6 4 4 2 1 2 1 2 1 1 1 2 3 5 3 1 1 1 4 9 10 8 5 1 5 7 10 12 13 14
4 4 6 7 6 5 7 5 2 17 24 30 21 7 0 5 13 19 5 2 2 2 1 2 2 3 3 2 2 3 0 1 3 2 1 2 2 1 2 4 6 8 11 9 5 1 3 6 8 10 11 13 14 16
4 5 5 6 8 4 6 9 5 13 27 7 3 3 6 16 4 3 2 3 1 0 2 2 2 3 1 2 2 1 2 1 2 2 2 2 3 6 9 9 7 8 8 6 3 3 4 7 8 9 11 15 15 16
4 5 5 4 7 3 7 10 14 10 7 9 13 11 5 2 2 4 3 2 3 4 2 3 2 2 1 1 2 1 2 2 3 2 2 3 3 12 11 9 9 7 4 2 3 5 8 8 10 12 14 16 17 19
7 4 4 0 3 3 9 10 16 26 20 9 6 3 1 2 2 4 6 2 4 4 4 3 3 2 1 2 3 2 4 3 1 3 3 2 8 10 10 8 8 4 1 5 8 9 9 10 12 12 14 18 18 19
10 4 5 3 2 1 8 11 15 6 5 2 2 4 1 3 2 2 2 3 2 2 5 4 3 2 1 2 1 2 2 2 3 4 5 4 10 10 8 6 3 2 5 7 10 10 10 13 14 17 18 18 18 17
7 6 6 3 3 6 14 8 8 5 3 2 1 2 2 2 2 2 2 3 2 4 3 3 3 1 2 3 1 3 4 4 4 3 1 6 8 6 6 6 5 4 7 8 10 10 13 16 15 16 17 16 15 20
6 10 12 9 10 10 8 5 5 2 3 2 2 3 2 2 1 1 2 2 1 3 2 2 2 3 2 2 4 5 3 5 1 2 4 6 5 4 4 5 9 10 11 12 12 12 14 15 14 16 21 21 19 17
11 7 14 13 11 8 2 3 4 4 3 1 2 3 2 2 2 2 1 2 6 2 2 2 5 2 4 3 3 4 4 1 2 4 4 4 5 5 7 9 11 11 11 13 13 12 14 14 14 13 16 18 16 15
8 12 20 17 12 10 4 6 3 3 4 2 1 2 2 2 2 2 2 2 2 2 3 1 4 3 4 4 3 2 3 1 3 2 3 3 8 10 10 13 15 14 14 14 15 14 13 12 11 14 15 17 17 16
17 20 24 19 11 5 3 3 3 2 3 2 3 2 2 2 3 3 1 1 2 1 4 2 2 3 2 3 2 2 2 2 3 3 4 7 10 12 14 16 15 16 15 14 14 13 13 12 14 15 15 16 16 19
12 25 27 18 12 3 3 2 2 2 2 2 2 3 2 2 1 0 1 1 2 2 2 3 3 2 3 2 3 2 2 2 2 6 7 7 11 11 13 14 15 15 14 16 15 13 11 11 12 14 15 17 18 18
25 19 24 19 7 8 4 1 2 2 3 2 2 1 2 1 1 1 2 1 1 2 2 4 3 4 4 2 2 3 6 8 6 6 7 7 11 11 15 15 15 14 14 14 12 12 10 11 14 13 14 16 18 20
12 16 9 7 4 3 3 4 2 2 1 2 3 0 2 1 1 1 1 3 3 3 4 3 5 4 4 5 8 10 11 9 10 12 14 14 6 8 10 12 11 12 13 15 15 12 12 12 11 12 14 17 20 21
14 8 5 3 4 3 2 1 1 2 2 3 2 2 2 2 1 2 2 3 4 6 8 7 7 7 8 8 7 10 10 11 11 11 10 9 10 11 12 13 12 14 14 16 13 12 11 11 13 14 15 18 16 18
6 5 3 3 3 3 1 1 1 2 2 2 2 2 1 1 1 1 3 3 4 3 4 6 5 4 4 4 5 8 8 8 8 8 8 8 10 13 13 15 14 14 15 15 13 12 10 11 12 13 14 15 17 18
5 4 2 4 2 3 3 2 2 2 2 2 2 2 2 2 2 3 3 3 2 3 2 2 2 3 3 3 6 8 6 9 9 9 10 10 12 15 16 15 15 13 12 10 9 10 10 10 10 12 14 15 17 18
5 2 2 3 2 2 4 4 4 3 2 3 3 1 1 2 3 4 3 2 1 2 3 3 3 3 4 6 6 10 11 7 8 11 16 13 10 11 13 10 11 11 7 8 8 7 9 9 13 14 14 13 13 16
4 3 2 2 3 4 3 2 2 2 4 5 3 4 3 3 4 2 1 5 4 8 11 10 8 8 10 14 15 15 14 14 14 17 18 17 15 12 12 12 12 5 6 7 7 6 9 12 12 12 13 13 12 12
3 3 5 4 2 0 4 4 6 6 4 3 5 5 4 5 1 2 4 8 11 11 10 9 10 11 14 14 16 16 14 15 18 18 19 18 15 10 7 5 5 6 5 6 7 8 9 8 10 11 11 12 12 11
2 4 4 4 2 3 4 5 4 3 4 5 4 4 3 2 3 6 8 13 12 11 13 15 16 16 14 14 12 13 12 14 15 12 12 8 7 4 8 6 6 5 6 6 6 6 7 8 8 7 8 9 9 9
2 2 2 3 4 4 2 4 1 1 3 1 1 1 3 4 7 9 10 13 14 14 12 11 12 13 14 15 15 12 10 13 14 12 7 7 10 11 11 11 10 10 9 8 7 8 8 7 7 6 7 6 7 7
1 2 1 2 3 2 1 3 2 2 2 2 1 3 2 4 5 11 16 12 12 12 14 14 13 14 14 15 16 14 11 13 16 14 12 9 10 12 13 13 13 12 11 9 7 6 6 5 5 5 6 7 8 8
1 2 1 2 2 1 2 2 2 2 1 2 1 1 3 3 3 4 12 12 13 15 15 13 13 12 12 10 9 9 9 11 14 16 16 14 14 14 14 14 13 11 10 8 6 5 4 4 5 5 5 6 7 8
0 0 0 2 2 2 2 2 2 3 1 1 2 2 3 3 3 3 4 10 8 11 13 14 13 10 8 7 9 11 12 12 16 17 17 15 14 13 12 12 11 10 8 6 4 4 5 5 5 6 6 7 7 7

GFSWCAN_925_spd_015.txt.gz
Wind_Speed
21 24 22 20 17 15 14 14 11 8 7 5 3 2 3 3 3 5 2 4 3 3 5 1 2 6 4 6 5 8 5 2 2 2 3 3 1 4 3 2 5 7 6 4 4 4 6 3 6 3 7 15 8 3
14 20 21 20 18 15 14 13 12 9 6 6 4 2 2 3 3 4 2 6 8 3 4 4 4 4 4 7 3 9 0 6 5 3 3 2 2 0 0 3 5 4 7 4 8 5 9 6 10 6 5 6 3 1
15 11 11 18 18 18 14 13 12 10 8 6 5 3 2 2 2 4 3 2 3 3 3 4 4 4 4 4 2 3 2 3 4 3 4 3 3 5 5 6 6 6 9 6 8 7 12 12 9 5 5 1 4 3
15 12 9 7 13 19 18 15 13 11 9 8 6 4 2 2 2 3 2 1 3 5 4 3 1 3 3 2 1 3 8 6 7 4 3 3 3 7 4 7 7 7 7 9 13 17 13 8 6 8 4 2 5 8
13 13 11 5 4 9 18 18 15 13 11 9 8 6 3 2 4 5 4 3 3 3 3 2 2 1 2 0 3 3 9 5 3 2 2 3 3 2 2 2 8 10 15 10 10 10 2 5 4 6 4 6 2 5
11 11 10 11 6 3 7 21 19 17 14 11 9 8 6 5 4 2 3 1 1 3 3 3 3 2 1 3 5 6 8 2 4 4 3 4 5 4 4 4 6 7 8 12 9 4 2 2 3 5 3 1 4 8
10 11 10 10 10 6 1 8 21 22 18 15 11 9 7 6 2 2 1 2 4 2 2 2 2 2 1 4 2 3 1 1 3 3 4 4 5 4 3 7 9 9 4 2 3 4 3 6 2 2 1 4 7 12
7 9 10 10 8 9 7 2 12 24 22 18 14 11 9 7 3 3 2 4 6 4 2 2 2 1 4 2 2 1 2 2 3 2 1 3 1 1 4 8 8 5 3 3 3 2 4 8 5 4 4 9 11 12
7 7 8 8 8 7 7 6 4 18 24 21 17 15 12 7 5 3 5 5 1 1 2 3 6 4 5 2 2 2 2 2 2 1 2 3 3 6 8 8 7 7 5 5 7 8 7 2 2 5 8 10 12 13
7 6 8 9 10 7 8 7 5 9 23 25 20 6 2 6 11 14 3 2 2 2 1 4 3 4 5 3 2 3 1 2 3 2 3 2 3 5 3 3 3 6 7 9 8 5 2 3 5 7 9 11 13 15
6 6 9 9 13 6 10 10 1 8 15 6 3 1 4 16 4 3 3 3 2 2 3 2 4 5 2 3 3 1 2 3 3 3 3 3 3 7 10 8 9 11 10 6 5 3 1 4 6 8 9 12 13 14
4 4 8 8 10 6 11 9 10 7 6 9 13 7 4 2 2 4 3 3 4 4 2 3 2 2 2 1 3 2 3 2 3 4 2 3 3 9 12 12 11 11 9 5 1 2 5 6 8 8 11 13 14 15
5 5 6 5 7 5 10 13 23 22 17 10 7 3 1 1 2 6 7 3 3 4 3 3 3 2 2 2 2 2 4 3 1 2 3 3 8 9 11 11 11 10 6 1 4 6 7 9 8 9 12 15 16 16
3 3 3 4 5 2 10 16 12 6 5 2 2 3 2 2 1 2 3 3 3 3 4 4 3 1 1 2 2 3 2 2 3 3 4 2 6 10 9 8 9 7 6 2 7 9 8 9 11 13 18 18 18 17
3 4 1 3 5 8 9 14 6 4 3 2 1 2 2 2 3 3 2 1 2 3 2 3 3 1 2 3 1 3 3 3 4 2 3 2 7 8 8 7 6 3 3 5 8 9 11 14 14 14 13 14 13 20
2 5 3 4 5 8 9 8 4 3 3 2 2 2 1 1 2 2 3 2 2 2 2 2 2 1 2 1 2 3 2 4 1 1 2 6 6 5 5 3 5 8 9 11 12 13 12 13 15 15 15 18 19 16
2 2 7 8 7 5 6 4 1 2 2 2 2 2 2 2 3 1 0 2 2 1 1 2 2 2 2 2 2 2 3 2 1 3 3 5 6 5 4 6 8 10 12 13 14 13 14 14 14 13 13 15 12 14
3 6 8 11 8 5 3 3 2 2 3 2 2 3 2 2 2 2 1 2 2 1 1 1 3 3 3 2 2 1 2 0 1 3 4 4 5 6 9 12 13 14 15 15 14 14 14 13 12 13 14 16 15 15
5 9 14 15 6 5 3 4 4 2 3 2 3 2 2 3 3 3 2 2 3 1 3 2 2 3 2 2 1 1 1 2 3 4 4 6 8 11 12 14 14 15 15 15 15 15 16 16 16 15 14 15 16 16
11 6 19 15 9 3 3 1 2 2 2 3 2 3 2 2 2 2 1 0 1 2 2 2 2 1 1 1 0 1 1 3 3 5 7 8 10 9 11 13 14 15 16 16 16 17 16 16 15 15 14 14 13 17
12 11 15 16 5 5 3 1 2 2 3 2 3 2 2 2 2 1 2 1 1 2 3 4 4 4 3 2 2 3 6 8 6 7 8 7 10 11 13 14 13 12 13 13 13 16 16 16 17 14 11 12 16 17
7 15 4 6 4 2 3 3 2 2 1 3 3 2 2 2 2 2 1 2 3 5 4 4 5 5 5 5 7 8 9 9 10 12 12 13 8 9 9 9 10 11 13 14 16 16 17 17 16 12 13 15 17 17
14 6 4 3 3 1 2 1 2 1 2 3 2 3 2 2 1 1 2 3 3 4 7 7 4 5 6 7 6 8 9 10 11 12 11 9 8 9 11 12 13 13 14 18 17 18 18 16 13 13 14 15 16 15
7 4 3 2 2 3 2 2 1 3 2 2 3 2 2 1 1 1 3 3 3 1 2 3 4 3 4 3 3 5 8 10 12 11 8 9 11 14 14 15 16 15 16 18 16 18 18 17 16 14 15 14 13 14
2 2 0 4 2 3 3 4 2 2 2 2 3 2 2 2 2 3 3 0 2 4 4 5 1 1 2 3 5 8 10 7 10 13 15 17 19 18 17 18 17 17 17 15 14 15 15 13 12 11 12 14 14 14
5 3 3 2 3 2 4 4 5 4 3 4 3 2 2 2 3 4 2 4 3 5 7 7 6 5 5 11 9 13 14 15 16 17 20 19 19 17 15 13 14 18 16 12 12 13 12 11 9 12 14 13 10 12
4 3 2 2 3 4 3 2 2 2 4 4 4 5 4 4 4 2 4 8 4 7 8 8 9 9 10 13 14 15 16 15 15 18 24 25 24 21 21 19 15 10 7 11 12 12 10 10 12 12 10 11 11 9
3 2 4 4 2 0 3 3 4 4 3 3 4 4 3 3 1 3 4 6 7 8 7 7 8 10 12 13 14 14 15 17 19 19 18 15 13 10 13 13 13 14 11 9 9 10 10 9 8 10 11 10 9 8
3 3 3 3 1 1 3 3 2 2 1 3 2 2 2 3 3 4 5 8 8 8 9 11 11 12 11 12 11 10 11 15 18 14 14 9 14 16 20 18 17 15 14 13 11 10 8 9 8 7 8 8 7 7
2 0 2 2 1 2 0 1 1 1 2 1 2 3 3 4 6 6 6 9 10 10 9 9 10 12 12 13 12 11 10 12 14 13 9 10 16 20 19 19 18 17 16 14 13 12 9 8 8 5 6 5 6 5
1 1 1 1 2 0 1 2 2 1 2 2 1 3 3 4 5 8 10 8 7 8 9 10 9 10 11 12 13 13 12 11 15 14 14 14 16 17 18 19 18 18 16 15 13 11 9 8 5 4 4 5 6 7
1 2 1 2 2 1 1 1 1 2 2 3 3 2 3 3 2 3 7 7 7 8 9 10 11 12 11 10 9 9 11 13 14 16 16 17 18 18 19 18 17 17 16 15 11 8 8 6 5 5 4 5 6 7
2 2 2 2 2 2 1 2 2 2 2 1 2 2 3 3 2 3 2 6 5 7 9 10 12 12 9 9 10 11 13 14 16 16 18 19 18 19 18 15 17 16 14 13 9 7 6 6 5 5 5 5 6 6

GFSWCAN_925_spd_018.txt.gz
Wind_Speed
32 30 25 22 18 17 16 14 11 9 6 4 3 3 4 4 5 6 3 6 3 3 3 5 3 4 2 6 4 8 4 1 2 3 3 3 1 4 1 4 7 7 6 4 3 4 6 1 1 1 6 11 7 4
32 28 25 21 18 16 15 14 11 8 7 5 3 3 3 4 3 3 2 6 9 3 4 6 7 7 7 9 4 7 1 6 4 3 2 1 1 1 3 3 10 4 6 4 9 5 7 3 4 4 1 2 4 4
19 26 25 22 18 16 14 12 11 8 7 5 4 2 3 4 3 5 4 2 4 2 4 4 3 6 6 8 5 3 1 2 5 4 4 3 3 4 4 4 3 4 8 3 3 7 8 7 5 9 7 5 2 2
21 19 20 20 19 16 14 12 10 9 7 5 4 2 3 4 5 6 2 3 2 5 4 3 2 3 4 4 4 5 6 9 6 5 3 3 3 8 4 6 4 4 5 6 8 12 9 2 7 6 4 6 2 8
20 18 16 15 14 16 15 13 12 10 8 6 4 3 2 3 5 6 4 4 3 3 4 2 1 2 1 1 4 4 9 5 3 3 2 3 3 1 3 1 3 5 8 5 6 5 1 3 5 4 7 4 8 2
18 17 18 13 10 8 15 15 14 11 10 7 5 3 2 1 2 1 2 4 3 5 3 2 2 1 1 2 5 5 6 3 4 4 3 3 3 3 3 2 6 7 7 6 4 8 9 7 3 4 6 7 2 4
19 17 15 15 13 8 4 12 16 14 11 8 5 3 3 1 3 3 1 1 2 3 2 2 2 2 3 4 3 1 6 3 0 0 3 3 2 2 3 6 7 7 9 3 5 7 4 3 4 5 3 3 2 6
16 16 14 14 12 11 8 3 10 18 16 11 8 5 3 2 1 2 3 2 4 2 2 3 2 1 3 1 2 4 2 1 1 1 1 2 1 1 4 7 10 13 4 5 4 3 5 8 7 7 3 3 5 7
15 14 14 13 11 9 9 5 2 13 17 15 10 6 4 2 2 1 3 3 2 1 2 2 5 4 4 2 2 1 0 1 1 1 2 2 3 6 6 7 10 7 6 4 6 7 10 8 4 2 3 5 6 8
14 13 13 14 12 9 9 6 0 6 19 17 12 4 1 4 6 8 1 1 1 1 2 3 3 3 4 1 1 2 2 2 2 3 3 2 3 9 9 3 2 7 8 8 8 8 6 2 1 3 5 7 8 10
11 12 13 14 11 11 9 9 6 11 12 4 2 2 1 9 4 3 2 3 2 2 3 3 6 5 3 3 3 1 3 2 3 3 3 3 3 7 11 6 4 6 8 7 6 8 6 2 3 4 4 7 6 8
11 10 11 13 10 14 12 8 8 5 5 7 11 7 3 3 3 3 3 1 4 5 2 3 1 3 2 1 3 2 3 2 5 5 2 3 3 6 9 9 9 10 11 10 7 5 3 3 5 5 4 7 8 12
7 9 9 10 11 13 14 16 19 18 10 6 7 4 2 1 2 2 4 2 2 1 1 1 2 2 2 2 3 2 5 5 1 3 3 2 8 7 8 9 10 12 14 9 4 4 5 5 5 6 8 12 14 14
6 6 8 10 7 10 11 11 9 5 6 3 2 3 2 2 2 2 2 2 1 1 2 3 2 2 1 2 2 3 1 2 3 3 4 1 6 7 8 6 8 10 9 4 4 5 5 5 9 10 13 16 15 16
4 4 6 8 7 6 7 3 7 6 3 2 0 2 2 1 2 1 1 1 3 1 1 2 2 1 1 2 0 3 4 2 2 1 2 3 5 6 8 7 7 6 4 2 4 6 7 9 11 14 15 16 15 16
4 3 2 4 8 8 7 4 4 4 2 2 2 2 1 1 1 2 2 2 1 1 0 1 2 1 2 2 2 1 1 1 2 2 1 5 7 7 6 5 4 2 4 6 9 11 12 12 13 16 15 17 22 19
3 2 4 6 7 7 5 4 4 3 2 1 2 1 3 3 2 0 1 2 4 2 2 1 2 4 1 0 0 1 2 2 2 2 2 5 5 4 4 2 2 5 7 9 12 13 14 14 14 16 14 18 17 16
2 3 1 6 4 5 3 3 2 1 2 2 1 2 2 3 2 1 2 1 1 1 1 2 2 1 0 1 1 2 2 2 2 2 3 3 4 2 3 6 9 10 11 12 14 15 15 16 15 15 18 21 13 13
5 3 4 9 2 3 2 3 3 1 2 3 2 2 2 2 3 4 3 5 3 2 1 1 1 2 1 1 1 2 2 1 1 2 2 5 6 8 7 8 10 12 14 14 15 13 14 15 17 18 19 17 14 15
7 6 5 10 3 2 2 1 2 1 2 2 2 3 2 2 1 1 1 1 1 1 0 1 2 1 1 2 1 1 1 1 2 2 3 4 7 5 5 8 10 12 14 15 15 15 15 15 16 18 19 19 17 11
5 2 6 6 2 2 1 1 2 1 2 2 3 3 3 2 2 1 1 1 1 2 3 3 1 1 1 4 3 3 3 3 3 3 4 4 7 8 9 12 14 12 11 10 11 14 16 16 19 20 20 15 10 9
3 11 5 2 2 2 1 1 1 2 1 2 3 2 2 2 2 1 1 2 3 4 3 2 3 2 2 3 3 3 3 4 6 8 9 10 5 7 9 10 8 9 10 13 14 15 17 18 18 20 20 17 15 16
9 5 3 2 2 2 2 2 2 2 3 4 3 3 2 2 1 2 2 3 3 2 4 4 2 3 3 4 3 4 4 4 6 7 9 11 12 12 12 12 15 16 16 17 19 18 18 15 18 18 17 17 16 15
5 2 1 1 0 3 1 3 2 3 2 3 4 3 3 2 2 2 2 2 1 3 2 1 2 2 5 3 2 7 11 9 9 11 14 14 12 15 18 19 20 21 22 21 18 17 17 18 20 17 15 13 13 13
2 2 2 3 2 4 4 5 3 2 3 3 3 2 3 3 3 3 2 2 6 6 5 11 7 4 3 3 8 12 18 18 14 13 15 17 18 19 18 19 20 21 22 23 20 19 17 15 15 14 12 10 14 14
2 2 2 2 2 3 3 4 4 4 3 3 2 3 2 2 2 3 2 4 5 5 6 7 7 5 6 12 10 12 15 18 17 15 16 19 21 19 18 15 15 17 19 22 20 14 14 15 14 11 10 14 12 9
3 2 1 3 2 4 4 2 3 2 3 3 4 4 4 3 4 3 4 8 4 6 7 8 8 8 8 10 11 12 12 13 14 16 20 20 11 17 19 17 16 20 22 21 21 20 17 15 13 12 10 9 11 6
2 1 3 2 3 2 3 3 3 3 2 2 5 4 3 2 3 3 4 5 6 5 5 7 8 8 9 9 9 9 10 15 16 13 14 2 13 17 23 21 22 22 22 21 21 19 20 14 14 13 11 9 8 7
3 2 3 3 2 2 1 2 2 2 2 3 3 2 3 3 5 5 5 5 6 6 7 8 9 9 9 9 9 7 9 13 16 12 12 8 14 18 26 24 25 25 25 24 22 21 21 17 12 12 9 6 6 5
2 3 2 1 1 2 2 4 2 2 3 3 2 3 4 4 5 5 5 6 7 7 6 6 7 8 9 10 10 11 8 10 13 13 10 10 17 23 24 24 26 25 25 24 24 23 19 19 15 8 5 7 8 8
1 1 2 1 1 2 3 2 1 2 1 1 3 2 3 4 5 6 7 6 5 6 7 7 7 9 10 10 10 11 11 9 14 12 13 15 18 21 23 24 25 23 24 22 22 20 17 16 13 9 7 9 9 9
2 3 2 1 2 3 1 1 1 1 2 2 2 3 4 4 3 3 4 6 5 6 7 7 8 10 10 9 9 9 10 13 14 17 18 17 19 22 23 25 23 22 22 21 19 17 13 12 9 8 9 10 9 9
1 2 2 2 1 1 2 3 1 2 2 2 2 2 4 4 3 3 3 4 4 4 6 7 9 10 11 5 10 10 11 15 17 16 17 19 21 23 25 22 21 19 21 20 16 13 9 8 8 8 8 8 8 7

GFSWCAN_925_spd_021.txt.gz
Wind_Speed
35 31 27 24 22 19 17 15 12 10 7 5 5 6 7 6 7 6 6 7 3 3 3 7 7 5 4 5 5 4 4 4 3 3 3 3 2 4 2 7 7 7 7 4 3 3 7 7 4 8 6 4 6 6
34 30 28 24 21 19 17 15 12 10 8 5 5 6 6 6 6 5 5 9 9 6 3 6 11 12 8 2 5 4 6 4 5 4 1 3 1 0 1 3 4 2 7 6 8 6 7 4 6 4 4 6 4 6
33 31 28 24 21 18 17 14 12 10 8 6 5 6 7 7 7 10 7 7 5 3 3 3 3 6 5 11 6 4 2 5 4 3 3 3 3 3 4 5 1 3 6 3 4 6 6 6 6 6 7 7 7 5
34 30 27 24 22 19 16 15 12 10 8 6 5 5 7 8 9 7 6 6 6 6 4 3 2 4 5 6 6 6 8 9 8 4 3 3 3 5 4 4 4 5 3 1 3 3 4 8 9 8 8 7 5 5
27 25 27 24 21 19 17 14 12 10 8 6 5 4 6 7 8 10 9 8 7 4 4 2 2 3 4 3 5 8 15 5 3 3 2 3 3 2 1 2 2 3 5 3 5 4 4 4 6 8 7 5 6 4
29 26 23 22 23 18 16 14 13 11 9 6 5 4 4 4 5 4 2 4 5 6 4 1 1 4 4 1 4 3 3 2 3 4 3 3 3 4 3 3 5 5 6 4 4 4 8 8 6 7 6 7 6 7
24 23 22 21 17 14 15 15 13 11 9 7 5 4 4 4 6 6 3 1 3 4 3 2 2 4 5 3 5 4 7 2 2 2 1 2 2 3 2 4 6 7 6 8 11 9 5 5 4 8 7 10 8 13
23 20 20 18 16 13 11 12 15 13 11 8 5 5 5 6 5 3 5 3 4 6 5 3 2 3 3 2 2 5 2 3 3 2 2 1 2 2 3 6 8 9 5 8 7 6 5 7 6 7 7 12 8 7
20 20 18 15 14 12 8 6 10 18 13 10 7 5 4 3 2 2 3 2 3 3 3 2 4 3 2 2 1 3 2 1 2 1 1 2 2 5 6 6 6 5 7 10 7 8 8 6 4 7 7 8 7 5
20 19 18 16 13 10 6 6 8 15 15 12 7 3 1 1 3 3 1 3 4 3 2 2 2 2 3 1 1 2 2 2 2 3 2 1 3 5 8 1 3 6 10 11 8 8 6 7 7 7 7 8 6 2
18 18 18 15 15 13 12 12 12 16 17 6 3 1 2 6 2 4 0 2 1 2 1 2 4 4 1 3 2 2 2 1 2 4 5 3 3 5 4 5 5 6 8 11 15 13 12 9 6 6 5 4 2 4
16 16 17 16 18 17 15 12 9 6 5 7 12 7 4 4 2 3 3 1 1 2 3 1 1 2 1 1 3 2 4 2 5 3 2 3 3 4 10 9 8 14 17 16 18 13 14 12 7 5 2 2 4 8
14 15 14 14 18 20 22 21 19 17 11 7 6 4 2 3 1 3 5 1 1 1 1 0 1 1 2 3 2 2 5 5 1 3 3 3 3 5 6 11 11 17 21 18 14 12 8 4 2 2 5 7 9 12
11 13 14 11 12 13 15 16 12 7 5 3 2 3 2 2 2 2 1 1 1 1 1 2 2 2 1 2 2 3 1 2 2 3 3 1 5 4 5 7 10 6 11 9 4 2 2 3 7 8 9 10 12 13
9 10 11 11 6 3 3 6 9 7 4 3 2 3 2 1 1 0 0 1 3 1 2 2 2 1 1 2 1 2 1 1 1 1 1 2 2 8 8 9 8 6 5 3 1 2 5 8 10 11 11 12 13 14
7 7 9 8 9 9 7 5 7 3 3 3 3 3 2 2 1 1 2 1 1 0 1 1 2 1 2 1 1 0 2 1 2 1 2 2 4 5 6 6 8 7 3 2 5 7 8 9 11 13 14 14 18 20
6 4 4 7 8 8 5 4 4 4 3 2 2 2 1 3 3 1 1 0 2 1 1 1 2 1 0 1 1 2 2 1 2 1 1 4 4 4 5 6 4 4 5 7 8 9 11 12 12 13 15 22 21 20
6 5 4 4 4 6 4 4 3 3 3 2 2 2 2 2 2 2 2 2 2 1 1 1 2 2 1 1 1 0 2 1 1 2 2 2 4 4 3 0 4 6 8 11 13 13 13 15 14 17 20 20 20 22
10 8 3 4 4 3 3 4 3 3 2 2 2 2 3 2 3 3 1 4 2 0 2 2 2 1 1 1 2 1 0 1 1 2 2 4 4 6 8 6 6 8 10 11 12 14 16 16 17 20 23 25 23 26
1 7 2 4 4 2 3 2 1 3 2 2 2 2 2 2 0 1 1 1 1 1 2 1 2 2 2 1 1 2 1 2 3 2 2 3 5 6 4 7 10 11 12 14 15 14 14 16 20 23 23 20 16 17
0 2 3 3 4 4 0 1 2 1 2 2 2 3 2 0 1 1 1 1 2 1 1 3 2 2 9 8 5 3 4 4 1 2 2 2 8 13 15 16 16 17 17 16 13 16 19 19 24 24 21 17 17 19
2 1 2 2 3 4 2 3 1 1 2 2 2 2 2 2 2 1 1 1 2 2 2 1 0 2 2 2 2 3 3 4 4 4 6 8 3 6 9 13 11 11 16 19 22 21 24 27 23 15 16 20 17 15
4 3 2 1 2 2 3 4 2 3 3 2 1 2 1 2 1 1 1 2 3 0 5 6 5 6 6 5 5 11 10 7 10 15 18 20 19 20 22 22 21 20 17 19 20 22 23 19 19 22 19 14 15 15
4 2 1 2 2 2 1 2 1 2 2 3 3 3 2 2 2 0 2 1 2 9 8 13 11 2 3 14 11 14 17 17 16 17 21 17 13 14 18 19 21 22 20 20 20 21 22 25 27 17 15 17 16 15
2 1 0 2 1 3 4 4 4 2 2 3 3 1 2 2 2 2 2 2 3 6 6 14 13 13 6 4 11 13 19 19 14 10 14 17 18 17 16 16 16 13 25 23 22 22 22 25 23 21 20 20 14 13
3 3 2 4 2 3 4 3 4 4 3 3 2 2 2 2 2 3 2 1 2 3 5 5 5 4 7 13 8 13 15 18 16 10 10 17 12 13 12 12 13 16 27 24 23 22 23 23 23 22 17 16 13 10
3 3 2 1 1 2 2 2 2 3 2 3 3 3 3 3 4 2 2 6 3 9 7 9 10 10 8 9 10 9 10 14 12 11 13 5 14 17 18 16 16 19 25 24 26 25 25 24 24 20 19 19 13 4
1 1 3 2 0 0 3 2 2 2 2 1 3 2 6 4 2 2 3 6 6 6 10 11 9 8 9 9 7 7 11 14 14 13 8 4 14 15 24 23 21 26 25 23 25 25 26 27 26 22 18 17 9 4
2 2 3 2 2 0 1 2 2 1 2 2 3 1 3 3 4 4 6 6 5 8 10 9 10 8 9 10 14 11 11 16 20 8 6 4 13 17 27 25 27 30 29 27 28 26 25 26 25 25 24 3 8 7
1 2 2 1 2 1 2 3 2 3 5 2 4 3 3 3 7 9 9 8 9 9 9 9 9 10 12 12 12 11 9 13 16 11 3 5 15 22 25 28 27 31 27 26 30 30 23 25 23 18 7 9 9 9
1 1 2 2 2 2 2 2 1 0 2 2 3 3 3 3 4 6 8 8 8 7 10 11 11 12 12 12 13 11 10 7 12 10 15 17 17 20 24 28 30 25 23 27 29 25 25 20 16 11 9 11 11 10
2 3 1 1 2 2 1 1 1 1 1 2 1 3 3 3 2 2 5 7 9 11 9 8 9 11 12 8 6 9 5 9 16 16 15 16 18 20 25 26 22 22 23 25 26 22 21 13 11 10 9 9 9 9
2 1 1 0 1 1 1 1 2 1 1 1 3 2 2 2 3 3 4 4 3 3 4 6 6 6 11 9 8 7 12 15 11 14 15 15 19 22 23 22 22 21 20 22 19 17 15 12 10 10 9 8 8 8

GFSWCAN_925_spd_024.txt.gz
Wind_Speed
36 34 31 27 24 22 19 17 15 12 10 9 9 9 9 8 7 8 9 7 3 3 3 4 4 4 3 3 5 4 4 4 3 4 3 4 3 5 2 5 6 7 7 4 3 2 8 7 4 7 6 4 6 6
31 31 28 27 24 22 19 17 15 12 10 9 10 10 9 8 6 7 6 9 10 5 3 6 11 11 4 4 6 1 6 4 5 4 2 3 1 1 2 3 3 2 7 5 9 6 5 6 5 4 7 6 7 7
33 31 30 27 24 22 20 17 15 12 10 9 10 10 10 9 8 9 10 6 6 3 4 4 3 7 8 9 3 5 2 5 4 3 4 2 3 4 4 5 4 4 5 3 3 5 8 6 2 3 3 5 6 5
33 31 29 27 24 22 20 17 15 12 10 9 9 10 10 11 9 8 8 7 7 5 4 3 3 4 8 8 7 3 10 9 8 3 3 3 3 4 3 3 4 5 4 5 4 3 3 3 2 6 6 7 7 7
33 30 28 26 23 21 20 17 15 12 10 9 9 9 9 11 12 12 14 12 7 5 4 2 1 5 7 8 10 13 18 6 3 3 2 3 2 2 1 2 3 4 7 4 6 6 4 5 7 7 7 6 6 6
32 28 26 25 23 21 19 17 15 13 10 9 8 8 8 9 11 3 3 6 7 4 4 1 4 5 9 7 11 8 6 3 3 3 3 2 3 3 3 4 7 5 5 5 5 3 2 7 8 7 6 6 7 10
31 27 26 24 22 21 18 16 14 13 11 10 9 8 8 7 5 6 4 2 4 4 3 2 3 4 5 4 4 3 6 2 3 2 1 3 2 3 3 5 6 7 6 3 8 10 4 4 5 8 9 11 19 18
29 28 24 20 20 18 18 16 15 13 12 10 10 10 10 11 10 7 8 7 5 9 5 3 2 4 4 2 2 4 2 3 3 2 1 2 2 2 3 8 6 7 3 7 8 2 5 7 9 7 17 16 9 7
23 22 19 17 16 14 16 17 15 14 12 11 11 10 6 4 4 2 5 5 8 5 4 2 4 4 2 2 1 3 2 1 2 1 1 3 1 5 7 5 5 5 7 9 7 7 9 10 11 10 10 7 8 5
23 20 16 14 11 10 13 15 19 16 13 11 5 5 2 3 2 3 3 4 5 3 3 2 2 1 3 1 2 2 2 1 1 3 2 2 4 5 7 6 5 6 8 12 12 8 9 10 10 6 7 7 8 5
21 21 18 17 17 15 14 14 17 20 15 3 3 1 1 3 2 4 2 2 0 2 2 0 3 3 1 3 2 2 2 1 3 4 4 3 3 4 6 1 2 6 10 9 12 14 12 10 8 7 5 7 4 2
20 22 23 21 18 16 16 18 19 7 6 8 12 7 3 5 3 3 1 1 2 3 2 1 1 1 0 2 3 1 3 1 5 2 1 2 2 4 6 9 10 13 18 17 20 16 14 13 10 7 5 2 2 3
17 17 20 22 23 22 21 17 17 22 15 7 5 4 2 3 2 4 6 1 2 1 1 1 1 1 2 3 2 2 5 4 1 2 2 2 2 6 8 9 11 15 21 17 15 15 12 7 4 1 2 4 5 8
18 15 12 13 15 16 16 12 8 6 4 3 3 3 1 2 2 1 1 2 1 1 1 2 2 2 1 2 1 3 1 1 2 2 3 1 4 4 4 2 8 5 9 10 9 8 5 1 2 4 6 8 10 12
14 13 11 13 11 10 9 8 7 6 5 3 3 3 2 2 1 1 1 1 2 1 1 2 2 1 1 2 1 2 1 1 0 2 2 1 4 3 3 4 6 6 6 7 4 3 4 5 7 9 11 11 12 15
7 8 14 12 13 12 8 5 7 4 4 3 3 3 1 3 2 2 1 1 1 0 1 1 2 2 1 1 1 1 3 3 1 1 2 2 3 4 4 3 5 5 5 4 4 4 6 8 10 11 13 14 15 17
11 5 8 9 12 12 10 4 4 4 3 3 2 2 2 3 2 1 1 1 3 1 1 1 2 2 1 1 1 2 2 2 2 2 2 4 4 4 5 4 2 2 4 5 6 7 8 10 10 11 12 17 17 18
11 9 6 8 11 9 5 7 4 3 4 2 2 1 2 2 2 2 1 1 2 1 1 1 2 2 1 1 1 2 2 1 1 2 2 3 5 6 4 1 3 5 5 7 8 8 10 12 11 14 16 19 20 23
13 9 5 6 10 5 5 5 5 3 3 2 2 2 2 2 2 2 1 5 2 0 2 2 3 1 1 2 2 1 1 2 2 1 0 1 2 4 7 8 7 8 10 12 13 14 14 13 14 16 18 19 19 19
6 9 5 4 8 3 3 3 2 3 2 2 2 2 2 1 0 1 2 2 2 2 3 1 3 3 3 2 2 2 1 2 3 2 2 3 6 8 9 8 10 11 13 14 15 16 17 17 19 24 23 21 18 16
3 6 8 3 5 8 2 1 2 1 3 2 2 2 1 1 1 1 1 1 3 1 1 2 3 3 2 5 7 9 7 7 2 3 3 1 9 12 16 19 16 15 16 17 17 20 20 19 22 26 23 19 18 25
2 4 3 2 4 5 3 4 2 1 2 2 2 2 2 2 2 2 0 1 1 2 2 1 1 2 2 3 9 9 5 9 13 17 18 16 6 9 11 16 17 14 14 16 16 16 17 19 24 25 22 24 21 16
0 1 2 3 4 2 3 6 1 2 3 1 1 2 1 1 1 2 1 1 1 4 5 4 4 6 16 17 20 23 20 17 13 13 13 13 11 13 15 17 18 15 13 15 17 18 20 24 24 25 26 25 18 18
1 2 1 1 2 1 2 1 1 1 2 1 3 2 2 2 1 2 2 1 2 7 7 10 8 8 12 13 11 13 16 14 10 11 16 13 11 13 15 15 13 16 18 17 18 20 21 23 26 25 25 25 24 22
2 4 4 1 1 2 1 1 1 2 3 2 3 1 2 2 2 1 2 2 1 2 4 12 13 11 6 5 8 10 15 15 11 7 13 13 11 12 13 13 14 14 24 21 21 22 22 24 24 25 27 23 25 26
1 3 4 4 2 3 4 3 4 5 3 2 2 1 2 3 2 3 1 1 2 2 4 4 4 3 6 8 6 7 9 12 9 9 12 10 15 14 11 10 12 14 26 25 20 22 24 24 24 25 25 27 26 25
2 3 2 2 1 1 2 0 0 2 2 3 2 2 2 2 4 1 2 5 2 6 10 9 9 8 6 7 10 11 11 13 11 5 7 12 15 16 20 14 15 19 25 25 22 22 23 25 25 26 26 26 24 26
3 2 2 2 1 1 1 1 0 2 3 2 3 3 5 5 2 2 3 5 9 11 13 14 12 11 12 11 9 8 11 13 11 11 7 5 15 9 23 23 25 26 26 23 21 24 27 26 26 28 28 28 24 3
1 1 2 2 3 2 1 3 2 1 3 2 4 2 2 3 5 3 6 9 7 10 12 13 11 9 13 11 10 10 13 17 20 6 4 3 11 14 22 26 29 31 27 25 24 27 27 22 23 23 22 9 9 10
2 1 2 2 2 1 1 2 2 2 4 3 4 3 3 3 8 10 8 7 12 14 14 14 11 9 12 11 10 9 11 13 13 12 2 5 14 17 23 26 29 27 25 24 26 29 24 21 19 17 13 11 11 11
2 2 1 1 2 1 2 2 0 1 1 2 4 3 3 3 4 9 10 9 9 8 10 11 11 10 10 10 9 7 6 6 11 12 10 9 12 17 21 23 22 21 21 22 24 23 21 20 15 13 12 11 11 10
2 3 1 1 1 2 1 1 2 1 1 1 2 3 2 3 2 2 5 6 6 9 8 6 6 7 7 5 7 5 6 10 12 11 12 11 13 18 19 20 19 20 19 19 21 15 15 13 12 12 10 10 9 9
2 3 3 2 4 4 2 3 4 3 3 2 3 2 2 3 3 2 3 5 5 5 5 7 5 5 5 6 6 8 11 11 9 11 10 10 15 16 19 18 18 16 16 19 13 11 12 12 12 11 10 9 9 9

GFSWCAN_925_spd_030.txt.gz
Wind_Speed
43 41 38 36 34 32 29 26 24 21 19 18 17 18 25 30 22 16 5 3 3 3 2 3 3 5 3 3 5 5 4 3 3 4 3 3 3 5 2 4 6 7 6 4 3 2 7 6 4 7 6 1 6 7
41 38 35 33 32 30 28 25 23 20 18 18 16 17 22 27 23 21 6 12 14 6 3 7 13 11 2 5 6 1 4 4 5 4 1 3 2 2 2 3 1 2 6 5 9 6 4 6 4 3 2 3 5 6
38 35 33 33 30 28 27 24 23 19 18 17 15 17 20 21 19 15 15 9 10 4 4 4 3 6 14 3 4 5 2 5 3 2 4 3 3 4 4 5 3 4 4 3 2 4 7 9 6 6 5 6 4 4
34 33 33 31 29 26 25 23 22 20 17 17 16 17 18 16 14 18 11 8 10 4 4 3 6 5 12 4 3 2 11 8 7 3 3 3 3 4 3 3 3 4 4 4 5 9 5 9 8 6 5 4 4 4
33 32 31 29 27 24 23 22 20 19 19 18 18 18 19 20 21 24 23 16 9 6 4 2 1 9 14 9 14 15 17 6 3 2 2 3 3 4 1 2 3 5 7 4 6 8 4 6 4 4 7 7 7 7
31 30 29 27 24 23 22 19 17 18 18 17 18 21 20 17 12 6 4 12 11 6 4 2 3 5 12 14 19 12 7 4 3 3 2 1 2 3 4 3 8 3 4 4 5 1 5 3 4 2 5 5 4 7
29 27 27 24 23 22 19 17 16 17 17 14 15 14 12 9 9 9 5 2 6 6 3 3 3 4 7 5 4 3 6 3 3 2 2 2 1 3 3 4 4 4 6 5 4 4 3 4 3 5 7 12 18 19
26 25 24 22 21 21 17 15 15 17 18 20 22 22 21 19 15 12 17 10 8 11 4 4 2 3 8 2 2 3 2 2 4 2 1 2 2 2 3 4 7 7 7 4 5 2 3 1 6 8 14 17 14 12
24 23 20 20 20 18 15 13 14 15 16 16 15 14 7 8 5 3 6 11 16 9 3 3 4 3 3 2 1 3 2 2 2 1 1 3 1 3 4 10 9 7 5 7 2 5 7 10 11 11 13 14 14 9
26 23 20 20 22 21 16 14 13 13 13 12 5 6 3 4 4 4 3 4 5 4 3 3 1 2 2 1 2 2 2 1 1 1 1 2 1 3 9 7 7 9 7 2 3 5 8 12 12 13 12 9 7 5
25 21 21 19 19 20 17 14 11 10 6 4 4 2 2 5 3 4 3 4 2 3 3 1 1 3 2 2 2 1 2 1 2 3 2 1 2 4 8 11 11 15 18 17 18 17 17 12 11 10 7 7 6 7
30 26 22 18 17 18 16 15 11 4 6 7 13 7 3 5 3 6 2 1 3 2 2 2 0 1 1 2 3 0 2 1 3 1 1 1 2 5 6 9 10 15 18 18 21 16 15 13 8 7 6 4 4 2
30 30 28 24 20 14 13 11 8 20 12 6 5 4 3 3 5 3 4 1 2 0 1 1 2 1 1 3 3 2 3 3 1 1 1 2 4 4 4 6 6 8 10 13 12 11 9 6 3 3 2 2 3 3
29 29 27 24 20 17 16 16 15 8 7 4 4 4 2 2 2 1 1 2 1 1 1 2 2 2 1 3 1 2 1 1 3 2 1 1 1 5 3 4 4 4 7 7 6 4 4 3 3 4 4 4 5 7
24 25 25 25 17 13 12 12 10 10 6 3 3 3 3 2 2 2 2 2 2 1 1 2 2 2 2 2 2 3 2 1 2 3 0 1 4 4 5 3 4 4 3 4 5 5 5 5 5 7 7 7 8 10
9 13 28 22 15 10 9 7 7 5 4 3 3 3 1 2 1 2 2 2 1 1 1 2 2 2 1 2 2 2 3 3 2 2 2 2 4 3 4 3 3 3 6 5 6 6 7 7 8 9 12 12 11 12
16 12 20 19 10 10 6 5 5 5 3 3 2 2 2 3 3 2 1 1 1 1 1 2 3 3 2 2 1 1 3 3 2 1 2 4 5 5 6 5 2 4 5 6 7 9 11 13 14 17 16 19 21 21
16 16 17 18 8 7 6 8 4 4 5 3 2 2 2 2 2 2 2 2 2 1 1 2 3 2 3 4 2 3 2 1 1 2 2 3 4 5 4 2 4 6 9 12 13 14 16 18 15 13 16 21 23 21
17 14 13 16 10 5 4 5 5 3 3 2 1 2 2 2 2 2 1 4 2 2 3 2 4 2 2 2 2 4 2 2 2 2 3 7 9 10 11 12 13 13 14 13 14 12 12 13 13 14 16 17 16 17
12 14 12 14 7 4 4 3 3 4 2 1 2 2 2 1 2 1 2 2 2 2 3 2 2 2 2 2 1 2 1 3 3 3 3 5 12 15 15 13 13 11 12 13 12 14 13 13 15 16 19 19 19 22
11 18 14 11 6 10 3 2 3 2 2 2 1 2 2 2 2 2 2 1 3 1 1 0 0 1 7 11 13 12 10 4 2 2 3 4 8 12 12 13 12 12 12 12 12 13 16 14 17 20 23 21 21 24
11 12 7 9 8 5 4 8 2 1 2 2 1 2 2 1 1 1 2 2 1 1 1 2 1 2 4 6 10 15 14 17 16 17 16 10 4 6 10 12 13 12 12 13 12 13 16 16 21 24 24 25 26 24
10 9 7 11 6 5 1 6 3 2 2 2 1 2 1 1 1 2 1 2 1 2 2 4 8 14 16 14 16 18 15 15 13 12 13 13 13 13 10 12 14 15 11 13 16 14 16 20 22 25 26 26 26 25
7 5 4 3 4 0 3 3 2 3 1 1 2 2 2 2 1 2 1 1 2 2 3 7 9 7 11 12 11 12 11 11 14 15 11 10 10 11 11 9 9 11 13 13 16 18 19 21 22 25 26 27 26 23
5 5 4 4 3 4 5 4 4 3 1 2 1 1 2 2 2 2 2 0 2 3 3 6 9 8 5 5 9 10 11 8 7 10 10 10 10 9 9 8 8 8 17 19 22 22 22 22 24 25 26 25 25 25
5 3 3 1 2 2 2 1 1 3 2 1 2 1 1 2 2 1 1 3 2 3 3 5 5 5 7 9 6 6 7 6 5 9 7 9 11 11 9 8 10 11 18 17 18 20 21 22 24 25 26 26 23 23
3 3 2 1 0 1 2 1 2 2 1 2 2 1 1 1 1 2 1 6 3 7 9 9 9 9 10 10 10 9 7 5 5 8 11 8 8 10 12 12 12 14 17 16 16 16 18 21 22 23 23 24 19 16
2 2 1 2 1 1 1 1 1 1 1 2 2 2 1 1 2 2 4 6 10 12 14 15 14 15 16 13 10 9 8 9 12 9 5 4 3 3 11 13 14 16 15 16 16 16 16 16 18 19 18 16 16 16
1 2 2 3 2 2 2 2 2 2 2 0 2 2 2 2 3 4 5 6 7 9 12 13 13 11 12 10 9 10 10 6 2 4 2 3 5 4 12 14 16 18 19 19 17 16 16 12 12 12 12 13 12 12
3 0 2 1 1 1 1 1 1 1 4 3 4 3 3 3 7 6 5 6 10 13 11 10 7 5 6 4 6 5 6 7 9 7 1 3 7 12 13 16 18 20 21 20 20 19 14 13 13 14 14 14 13 13
2 1 1 0 1 1 1 2 2 1 3 3 5 3 3 2 4 10 11 11 9 7 6 7 8 7 5 6 6 5 3 5 9 9 9 10 10 11 15 16 18 20 20 19 19 17 15 14 14 14 13 12 12 12
3 3 2 2 2 3 6 3 3 3 3 2 2 2 2 3 2 3 2 3 3 7 6 6 5 3 3 4 5 5 5 8 9 10 10 11 11 13 15 16 18 19 18 18 17 15 13 13 12 12 12 12 12 12
3 3 3 3 4 5 3 3 5 3 3 2 3 1 1 3 3 1 3 5 5 6 6 6 5 4 4 4 5 6 8 10 12 11 11 11 13 16 15 15 18 18 17 15 14 14 12 11 11 11 11 11 12 12

GFSWCAN_925_spd_033.txt.gz
Wind_Speed
36 32 34 34 33 30 28 26 23 21 20 22 26 32 38 43 31 8 8 6 4 3 1 2 2 5 3 2 5 5 4 2 2 3 3 3 3 4 2 3 5 5 6 3 3 1 6 5 3 4 3 2 2 5
34 32 32 31 29 28 25 24 21 19 19 21 24 31 37 41 30 11 6 8 11 5 3 7 15 10 2 4 6 0 3 4 4 4 1 3 2 1 2 3 1 3 4 4 8 4 3 5 4 1 2 2 2 3
32 31 30 30 29 28 25 22 20 19 19 19 23 28 33 37 24 12 16 10 6 3 3 3 3 6 12 4 3 5 2 4 3 1 4 2 3 3 4 4 1 4 4 2 1 2 7 10 7 7 5 7 5 5
33 33 33 31 28 26 24 22 21 19 19 21 25 28 33 31 19 13 8 5 5 4 4 2 6 5 13 3 1 2 10 9 7 2 3 3 3 3 3 2 3 3 5 4 4 8 4 7 7 10 7 6 5 3
34 33 32 29 27 25 23 22 21 21 21 24 25 28 29 24 23 24 6 5 4 3 4 1 1 9 16 12 16 17 16 6 2 3 2 2 3 4 1 1 3 5 5 4 5 3 3 5 5 3 3 4 4 5
31 30 29 27 26 24 22 22 22 22 25 31 33 31 32 35 35 20 3 7 8 6 4 3 3 4 12 15 19 12 7 4 3 3 2 2 1 2 3 3 3 4 4 2 4 2 5 7 6 4 4 2 6 10
30 29 27 26 24 23 22 22 21 20 21 19 19 18 13 9 9 7 5 0 5 6 3 3 2 4 7 5 4 4 6 3 3 3 2 2 2 2 3 3 9 11 10 8 6 4 3 5 5 6 10 15 22 22
28 26 26 24 22 23 24 24 25 25 25 26 27 27 24 23 17 13 18 11 8 12 4 4 1 3 8 3 2 4 2 2 4 2 2 2 1 1 1 8 11 12 13 1 12 5 3 7 12 12 17 19 18 15
24 24 24 22 21 22 21 20 19 18 18 17 14 12 6 9 4 3 8 13 18 10 4 3 4 3 3 2 1 2 2 3 1 2 2 1 1 2 4 8 10 11 6 10 8 12 14 15 14 14 15 14 16 11
22 20 18 18 20 20 19 14 13 11 8 6 1 6 3 4 3 4 4 4 6 4 4 3 0 2 1 1 2 2 2 2 2 1 0 2 3 5 5 5 5 8 11 6 3 8 11 10 12 12 11 9 8 5
22 21 20 20 20 21 17 10 8 7 6 5 3 2 2 5 4 4 3 4 3 4 3 1 1 3 3 2 2 1 2 1 3 1 2 1 2 2 2 5 7 10 14 15 18 16 15 11 8 8 5 7 4 3
22 18 17 17 16 16 11 6 4 6 7 8 13 8 4 5 4 6 2 2 4 2 1 2 1 2 1 2 3 1 3 2 2 1 2 3 2 4 4 6 6 9 12 13 16 14 14 12 8 5 3 3 5 6
30 27 20 14 12 12 12 10 12 19 10 6 6 5 3 3 6 4 5 1 1 1 0 1 2 1 1 2 3 2 3 2 2 2 2 2 5 4 5 5 5 5 7 8 7 6 4 3 3 4 5 4 3 4
26 25 25 21 17 15 13 13 8 6 6 4 3 5 3 2 2 2 2 2 1 1 2 2 2 2 1 3 1 3 1 2 3 3 3 3 5 6 4 3 4 3 5 5 5 5 5 6 6 6 7 8 9 10
28 26 21 21 15 15 14 12 10 9 7 4 4 3 3 2 2 2 1 2 2 1 1 2 2 2 2 3 1 3 2 2 1 2 2 3 6 7 5 3 4 4 3 5 5 7 8 8 9 10 12 11 11 13
12 19 26 14 11 9 11 13 16 7 5 3 4 3 1 2 2 2 2 2 1 1 1 2 2 2 2 2 2 1 3 3 3 3 4 6 7 5 4 3 2 3 5 7 8 9 9 10 10 9 11 18 21 20
20 12 21 12 10 11 5 5 5 5 3 3 3 2 2 3 3 2 1 1 2 1 2 2 3 1 1 2 1 1 3 3 4 5 3 4 5 5 6 4 3 7 10 10 10 12 12 12 13 16 17 19 19 18
14 17 17 10 4 7 6 9 4 4 5 3 3 2 2 2 2 2 1 2 2 1 1 1 3 2 2 3 2 2 1 3 4 4 3 2 3 7 6 7 10 11 12 12 12 12 14 15 14 13 14 18 17 18
17 16 15 11 8 5 3 5 5 4 3 2 2 2 2 2 2 2 1 4 4 2 3 2 3 2 2 1 2 4 3 2 3 3 4 10 10 12 13 13 13 13 14 13 14 12 11 12 11 12 13 15 15 17
13 15 14 17 8 5 4 3 4 3 3 2 2 2 2 2 2 2 2 3 2 2 4 3 1 0 0 1 1 1 2 4 6 5 5 7 10 13 14 12 12 11 11 10 11 12 10 9 10 12 14 16 16 18
13 17 16 9 7 11 4 3 3 2 2 3 1 2 1 2 2 2 2 2 3 2 2 1 2 4 7 8 9 9 9 6 2 2 4 5 8 11 11 11 10 11 10 9 8 9 10 10 13 14 16 17 18 19
12 12 7 10 7 5 4 9 2 1 2 1 2 2 2 1 1 2 2 3 2 1 1 2 2 3 6 7 11 13 12 14 14 17 18 13 6 8 9 9 8 8 9 9 9 9 10 11 14 16 18 20 19 20
8 8 7 12 5 5 2 8 4 3 2 1 1 2 1 1 1 2 2 2 2 3 3 4 8 13 14 12 15 17 15 14 14 13 12 13 12 10 9 8 8 8 7 9 10 10 11 15 16 19 19 20 19 21
9 6 5 5 4 2 3 4 3 3 2 1 1 1 1 1 1 2 1 1 2 4 4 6 8 8 11 11 11 11 11 11 13 12 9 8 9 9 7 7 7 9 10 9 11 14 15 17 19 19 20 19 19 16
6 7 5 5 3 5 5 4 4 3 2 2 2 2 1 2 2 1 0 1 3 4 4 6 7 8 5 5 8 9 9 6 7 10 8 9 9 7 7 7 7 7 13 13 15 18 18 19 20 20 19 18 17 16
6 5 3 1 3 3 1 2 0 2 1 2 1 1 1 2 2 2 2 4 3 4 6 5 4 5 7 8 7 5 5 5 5 8 6 7 9 8 6 6 7 7 14 14 16 18 18 19 19 20 20 19 18 15
4 3 2 2 1 1 2 1 1 1 1 1 1 0 1 1 2 2 2 7 3 6 9 11 9 9 9 9 8 8 7 6 6 10 10 8 8 9 11 9 7 11 15 15 16 16 17 19 19 18 18 18 15 15
1 1 2 3 2 0 2 1 1 2 1 2 1 3 1 2 2 2 4 5 8 10 14 15 15 15 14 12 10 10 12 12 11 8 6 4 3 3 8 10 10 12 15 15 15 15 16 16 15 15 15 15 16 13
2 3 3 4 4 3 2 1 0 1 2 1 1 2 2 2 2 4 5 4 5 8 10 11 12 12 13 12 12 12 8 3 3 4 3 2 5 3 10 11 13 15 17 18 15 15 12 10 11 11 12 11 11 10
3 2 3 2 2 1 1 1 1 0 4 3 4 3 3 3 7 5 5 7 10 11 9 7 4 3 5 4 6 6 7 7 9 6 1 2 6 12 11 13 14 16 18 17 17 16 12 10 10 10 10 10 11 12
2 1 1 0 1 1 2 6 3 2 3 3 5 3 3 3 4 10 11 9 7 5 6 7 8 7 6 7 6 4 3 5 8 7 7 9 10 10 12 14 14 16 17 17 16 15 14 12 12 12 11 11 11 12
3 3 2 2 2 3 6 3 3 2 2 2 2 2 2 2 2 3 5 4 5 8 8 7 6 4 4 5 5 4 4 7 9 9 9 10 10 11 14 14 14 16 17 15 14 13 13 11 11 10 10 11 11 12
2 3 3 2 4 5 3 3 4 4 3 2 2 1 1 2 2 1 4 6 7 7 7 7 4 3 3 6 6 6 8 10 13 13 12 10 11 15 15 13 14 16 16 14 13 12 11 10 10 9 9 10 10 11

GFSWCAN_925_spd_039.txt.gz
Wind_Speed
40 38 37 36 35 34 34 36 40 36 38 38 38 37 38 41 38 40 11 10 4 5 7 1 3 14 5 10 6 9 7 2 3 3 3 3 2 4 2 3 6 6 7 3 3 3 5 5 6 1 5 6 7 9
35 35 33 31 34 32 33 28 30 32 33 34 32 35 37 37 38 48 9 2 13 6 6 9 10 8 4 6 4 12 2 11 6 4 1 2 2 1 1 3 3 4 4 1 6 1 5 3 4 3 6 8 8 10
30 32 33 34 33 33 30 30 31 31 30 31 33 34 35 36 39 37 4 4 9 4 5 5 5 6 8 5 3 4 2 4 4 3 4 2 3 4 3 4 3 3 2 2 1 4 0 3 3 3 9 9 11 10
27 29 30 31 28 28 29 28 27 29 30 30 30 31 31 35 45 29 4 1 8 5 4 4 3 3 7 1 3 1 9 7 8 4 3 3 3 3 3 1 3 3 5 4 5 6 5 6 7 10 11 9 9 10
27 27 27 26 26 25 24 26 28 28 29 30 29 29 32 34 39 19 2 5 9 3 4 6 10 9 6 5 6 9 13 9 4 3 2 2 3 3 2 0 3 1 2 2 1 5 4 7 11 10 9 10 10 9
31 29 26 22 20 20 22 24 25 26 27 28 30 31 34 36 38 18 3 4 6 5 5 4 3 6 9 12 12 9 5 3 2 3 3 3 2 2 4 4 4 4 2 3 3 7 4 7 11 11 12 13 13 14
32 30 28 28 27 21 17 19 23 24 27 29 32 34 37 40 10 2 2 6 11 8 3 4 4 3 3 4 3 4 6 3 2 3 3 2 3 2 3 4 5 1 2 1 5 7 9 10 7 11 15 15 20 21
34 31 30 30 30 27 29 26 27 29 31 32 35 37 38 22 8 6 9 11 7 1 1 4 3 3 5 3 3 3 2 2 5 3 2 2 3 1 3 5 2 5 4 7 6 8 9 11 12 11 13 15 14 12
37 37 37 36 35 36 39 38 38 38 38 40 38 30 19 2 3 4 7 11 5 3 2 3 5 4 1 3 2 2 2 3 1 2 2 3 2 2 4 4 4 6 3 5 10 10 10 10 11 12 12 11 12 8
32 31 34 31 28 23 28 29 28 30 35 34 21 4 3 3 9 6 2 3 2 3 4 3 1 4 0 2 2 2 2 3 3 2 3 2 2 5 4 3 3 2 2 10 10 9 10 11 10 9 9 9 7 7
29 29 33 22 24 22 16 16 15 14 12 4 3 3 3 7 7 4 2 2 2 3 3 2 3 5 1 2 3 2 3 2 3 3 3 3 3 4 4 5 5 5 8 8 14 13 14 12 10 7 6 6 6 7
19 20 19 20 23 27 23 13 8 16 9 7 13 8 4 1 3 5 2 2 2 2 1 2 3 3 2 1 3 2 3 2 3 5 2 3 4 8 8 10 10 12 15 15 15 13 12 10 8 7 7 7 7 6
20 18 17 14 14 16 14 22 23 17 9 5 4 4 3 4 4 3 5 2 3 1 1 2 3 2 3 3 3 2 3 2 5 2 2 2 8 6 10 11 12 12 12 12 11 10 10 11 10 9 8 8 7 8
18 18 20 21 18 12 8 7 8 11 11 5 5 5 2 3 3 2 3 3 2 1 3 4 3 2 1 3 1 4 1 3 4 4 3 5 8 9 11 10 11 10 5 8 10 10 9 9 10 12 13 10 11 10
21 20 19 22 19 17 16 12 5 14 9 5 5 4 4 2 3 2 1 2 2 0 1 3 3 2 3 3 2 3 3 3 3 1 3 7 12 12 11 10 10 8 5 8 10 10 9 8 8 9 9 10 10 9
13 19 24 18 20 16 12 17 15 6 4 3 5 3 2 2 2 2 3 3 3 2 1 2 3 2 3 2 3 3 3 2 3 3 5 9 10 10 11 9 10 10 10 9 9 10 9 8 7 6 6 8 8 6
13 8 10 13 16 19 14 9 8 6 3 3 3 3 2 4 3 2 3 2 4 2 2 1 2 3 2 2 2 2 3 3 5 6 6 7 10 10 11 12 11 10 10 10 9 8 8 6 6 5 5 8 10 8
10 9 7 7 9 15 10 9 4 4 6 4 3 3 2 3 2 3 2 2 2 1 2 2 2 2 1 2 3 3 3 6 6 7 6 7 9 12 11 11 11 10 9 8 8 8 7 4 4 5 7 10 10 10
17 15 8 8 6 6 4 5 5 4 5 2 2 2 3 2 4 5 3 4 4 3 3 1 1 2 3 4 4 5 6 6 8 7 8 12 12 11 12 13 11 10 9 8 6 5 5 6 6 7 8 10 10 11
14 14 18 15 8 5 4 3 4 4 3 3 2 3 3 3 2 2 3 5 4 2 5 4 4 3 3 3 4 4 6 7 8 7 6 7 11 12 11 10 9 9 8 8 7 5 4 3 6 8 9 9 11 12
9 14 15 9 8 11 4 3 4 3 3 3 2 2 3 2 3 4 4 6 4 3 3 4 4 4 7 7 7 8 8 7 5 4 7 7 10 10 10 9 8 6 6 5 4 5 6 6 7 8 9 10 11 12
8 10 6 10 5 5 4 9 3 2 3 2 2 3 3 2 3 4 4 5 3 4 3 3 4 4 6 9 11 12 12 14 15 17 17 14 7 8 8 6 6 6 6 6 5 5 5 6 7 9 9 11 11 12
7 7 7 9 5 5 3 6 3 4 3 2 1 2 2 2 2 2 3 3 3 8 8 7 10 12 11 11 13 14 11 10 12 12 12 12 12 11 10 8 7 5 5 6 5 5 5 7 7 9 10 11 12 13
9 6 6 5 6 4 2 3 2 2 2 2 2 2 3 3 3 2 3 3 4 9 6 6 5 5 9 11 10 12 11 10 12 12 9 9 9 9 8 8 8 8 6 4 5 6 6 8 9 10 11 12 12 13
5 7 5 6 4 3 3 3 3 3 3 2 2 3 2 1 2 3 3 2 5 6 6 9 9 8 5 6 9 11 14 10 9 10 10 9 9 8 7 7 7 7 6 5 6 8 8 9 10 11 12 12 13 14
7 8 5 5 3 3 3 2 3 3 2 2 3 2 1 1 2 3 2 3 5 5 7 8 5 5 6 10 7 8 9 7 7 10 9 8 7 5 3 3 1 4 7 7 8 9 10 11 11 13 13 12 12 13
5 6 4 3 2 2 3 3 2 2 3 3 2 1 1 1 3 3 3 8 4 8 10 12 12 10 9 9 9 9 10 11 11 10 8 8 8 8 7 5 4 4 6 7 8 9 11 12 12 12 13 13 13 13
4 5 4 4 4 4 3 2 3 3 3 3 2 3 3 6 4 3 5 7 7 7 9 11 11 10 10 9 8 8 8 7 7 7 6 7 6 6 6 5 5 9 7 8 9 9 10 11 12 13 14 14 14 12
4 3 2 4 3 3 4 3 3 3 4 3 3 2 3 3 5 5 6 5 5 5 6 7 8 7 8 9 9 8 8 7 5 4 4 3 4 4 8 7 7 8 9 10 10 10 11 12 12 12 12 12 12 12
4 4 2 3 2 3 3 4 3 4 6 5 4 4 4 5 8 8 8 9 9 8 7 6 6 6 5 5 5 6 8 9 10 8 5 4 7 9 9 9 9 10 10 11 12 12 11 11 11 10 10 11 11 11
3 3 2 2 2 3 4 4 2 6 3 4 8 5 5 4 6 10 11 9 8 6 6 7 7 8 7 8 8 6 5 6 8 7 6 7 8 9 9 10 10 11 11 11 12 12 12 12 11 11 11 11 11 11
4 4 3 2 2 3 4 3 2 2 2 2 2 2 3 3 3 4 9 9 7 8 8 7 6 6 6 6 6 5 5 6 8 9 9 9 10 9 10 10 11 11 11 12 13 12 12 12 12 11 12 11 11 10
2 2 2 1 1 1 2 3 1 2 2 2 3 3 4 4 4 3 4 8 7 6 6 6 5 5 5 6 7 6 7 8 10 12 13 11 10 10 11 11 11 11 12 13 13 12 12 12 11 11 10 10 10 10

GFSWCAN_925_spd_042.txt.gz
Wind_Speed
37 39 41 41 41 41 39 37 35 35 34 33 34 30 31 42 45 36 34 33 20 9 14 15 9 15 14 10 10 10 6 2 3 3 3 2 2 3 2 7 7 6 6 3 2 2 5 6 5 2 4 5 7 7
37 38 37 37 36 35 34 34 34 34 34 36 38 36 37 41 38 37 24 37 42 9 7 18 13 14 10 12 7 8 6 9 5 4 2 3 2 2 2 2 6 4 4 4 7 3 6 4 5 5 6 5 7 8
34 34 34 33 33 33 32 29 32 32 31 35 37 39 39 37 36 46 36 34 10 5 5 5 4 11 14 14 9 3 1 6 5 3 4 2 3 3 3 3 4 4 4 2 2 4 7 4 9 12 10 8 8 8
26 27 28 29 29 29 31 31 33 38 35 38 40 39 36 38 37 37 25 26 13 4 4 5 4 5 9 8 2 6 10 8 7 5 3 3 3 4 2 1 3 3 6 4 4 3 3 13 13 10 8 10 10 9
22 23 23 25 28 31 31 33 34 38 41 36 35 34 31 30 29 30 34 30 13 3 4 4 8 10 4 4 5 7 10 9 3 3 3 2 3 4 2 1 1 3 1 3 1 7 4 12 10 10 11 11 11 11
27 29 30 30 29 29 27 27 26 28 32 33 29 27 28 28 25 12 3 4 13 8 5 3 1 5 7 9 9 8 5 4 3 3 2 3 3 1 3 3 5 7 6 5 4 4 9 12 13 14 13 13 14 15
24 24 25 24 25 28 31 31 29 29 29 28 27 24 23 25 25 4 4 5 7 4 3 3 3 2 4 8 4 4 6 3 3 3 2 3 2 2 3 2 10 6 5 7 4 5 8 6 10 11 15 15 16 16
36 31 26 24 26 27 26 27 29 29 28 28 28 30 32 28 14 1 4 0 5 5 4 3 1 3 4 2 2 4 2 3 5 3 2 2 2 2 2 9 9 5 9 8 9 12 13 13 13 12 14 14 12 11
43 44 40 34 30 28 28 30 30 31 32 33 39 38 22 2 0 4 9 15 16 10 2 2 4 4 2 3 2 2 2 3 2 2 2 3 2 2 6 9 9 5 5 11 11 11 11 13 12 12 12 12 11 6
47 39 39 42 39 35 35 36 37 39 42 47 40 7 3 3 13 5 1 2 3 3 4 2 1 3 1 2 1 2 2 3 2 1 2 2 3 8 6 6 5 5 9 11 11 10 11 12 11 10 10 10 11 10
32 39 38 34 35 31 33 38 44 45 41 14 3 3 5 9 1 3 3 3 2 2 3 1 3 5 2 3 3 2 2 1 3 3 4 3 3 5 6 6 5 5 10 5 10 11 12 12 9 8 8 12 11 12
28 21 27 33 33 35 28 23 21 9 5 8 16 10 3 2 4 5 3 1 2 2 1 1 3 3 1 1 3 2 3 2 3 5 2 3 4 10 8 9 10 10 13 13 18 14 15 13 11 12 12 11 10 13
25 23 19 19 25 19 25 26 22 17 13 7 6 4 3 4 4 3 3 1 3 1 1 1 3 2 3 3 3 3 3 2 4 1 2 2 9 8 10 9 11 14 15 16 16 16 16 15 15 14 12 11 12 13
23 23 24 23 23 17 11 11 18 10 13 5 4 6 2 3 3 3 2 2 1 1 2 3 2 2 1 3 1 4 1 3 3 4 3 4 9 10 10 9 12 11 6 11 14 15 15 15 15 16 14 12 12 11
20 21 22 25 21 20 19 14 8 19 8 5 4 4 4 2 2 1 1 2 3 2 1 2 2 2 2 3 2 3 3 3 3 1 3 6 10 9 10 11 11 7 6 11 13 12 12 14 13 13 12 11 10 12
16 24 27 23 14 15 19 18 17 7 4 3 5 2 2 2 3 3 4 3 4 3 2 1 2 3 3 2 2 2 4 2 3 2 5 9 9 9 9 10 11 12 13 15 14 13 12 13 11 10 11 11 8 11
20 10 14 18 22 15 12 11 9 5 4 4 4 3 3 4 3 2 3 3 3 2 2 0 2 4 2 1 2 3 3 2 4 4 4 8 10 10 10 13 15 14 15 14 13 12 11 10 9 8 8 10 8 7
11 10 8 11 12 17 13 12 4 4 6 4 4 3 2 3 1 3 2 3 2 2 2 3 1 2 3 2 3 2 3 4 5 5 6 8 11 14 14 13 15 15 14 13 12 11 9 6 7 8 7 8 7 8
17 14 10 11 10 6 4 5 4 4 4 2 2 2 3 2 4 3 3 2 2 1 2 2 3 3 3 3 3 6 4 5 6 5 6 11 12 11 16 16 15 14 12 10 9 10 10 10 9 7 7 8 8 9
13 14 18 18 7 5 4 3 4 4 3 2 2 3 2 2 2 3 4 5 5 3 5 4 4 3 3 3 2 4 6 7 6 7 6 6 13 15 13 12 12 13 12 11 10 7 6 7 8 7 7 7 8 9
10 15 17 9 7 11 4 3 4 3 3 3 2 2 3 3 3 4 5 4 5 4 3 3 3 4 9 12 14 13 10 6 4 5 7 6 11 13 13 11 9 9 9 8 8 8 7 7 6 6 6 7 8 9
8 11 7 11 5 5 4 10 2 2 3 2 2 2 3 2 3 4 2 5 4 4 4 5 6 6 8 11 11 15 14 17 18 18 17 14 6 9 9 9 10 10 10 8 7 6 6 6 5 6 6 8 9 10
7 7 7 10 5 6 3 7 4 4 3 2 1 2 3 2 3 2 3 4 3 6 9 8 12 13 13 15 17 20 16 14 13 13 13 14 14 13 12 11 10 8 9 8 6 5 5 4 5 7 7 9 11 10
9 6 5 5 6 4 2 4 3 2 3 2 3 3 3 3 3 3 4 3 5 12 9 10 4 6 11 12 10 14 14 12 14 13 10 12 12 11 11 11 10 10 8 5 5 5 5 6 8 8 8 10 10 10
5 7 5 6 4 3 4 3 4 3 4 4 2 3 2 2 2 3 3 3 6 7 7 11 12 11 6 7 11 13 16 12 11 11 13 10 10 9 9 9 9 9 8 6 6 7 7 7 8 8 10 10 11 11
7 9 5 6 4 4 4 3 4 5 3 3 4 2 2 1 3 4 3 6 7 6 8 9 8 6 7 13 9 11 12 11 10 12 11 11 12 9 5 4 5 8 8 7 7 8 9 9 9 10 11 11 11 11
6 6 4 1 2 1 3 3 1 3 5 5 2 3 2 2 4 3 4 9 4 10 11 12 13 12 10 10 10 10 11 13 13 10 9 9 10 11 10 8 7 6 6 6 7 8 9 10 11 11 12 12 11 11
4 5 5 5 4 5 3 3 4 5 4 5 3 5 4 6 4 3 5 8 6 7 10 11 11 11 11 11 10 9 7 5 7 7 8 8 9 9 9 7 5 7 6 6 7 7 8 9 11 12 13 13 13 12
4 4 2 4 4 5 5 5 3 3 5 4 4 3 3 3 6 6 6 7 10 10 9 8 7 7 8 10 11 11 12 13 9 5 5 4 4 8 10 7 7 7 7 8 9 9 10 11 10 12 12 11 11 12
5 4 2 4 3 3 3 5 4 5 7 5 5 4 5 5 9 11 10 10 10 9 8 8 9 9 10 8 7 8 10 11 12 9 5 5 8 10 9 9 8 9 9 10 11 11 12 10 12 12 11 10 10 9
3 4 2 3 3 3 3 2 7 8 4 5 10 7 5 4 7 11 12 10 9 10 8 9 11 11 10 10 10 8 6 9 9 7 8 7 8 9 10 10 10 10 11 11 11 12 13 13 11 12 12 12 12 11
4 4 3 3 3 3 3 2 2 3 3 3 2 3 4 3 3 4 12 13 10 10 11 11 9 8 7 6 7 6 6 7 8 10 11 11 10 9 10 10 11 11 12 12 13 13 13 13 12 12 13 12 12 11
1 2 2 2 1 1 3 3 1 3 4 3 3 3 4 4 4 3 4 9 8 8 8 7 6 6 6 7 8 7 8 8 11 13 13 15 17 14 11 11 12 13 12 12 13 14 14 13 12 11 12 12 11 10

GFSWCAN_925_spd_045.txt.gz
Wind_Speed
39 38 37 38 39 37 35 33 32 35 37 35 33 34 34 33 32 30 18 19 7 3 9 4 9 7 5 5 6 5 4 2 3 2 4 2 3 4 4 8 8 6 6 3 3 2 5 6 4 6 5 4 7 6
33 34 36 37 37 37 36 35 34 37 34 34 33 32 30 37 39 27 6 20 18 6 5 21 11 13 13 11 9 0 7 8 8 4 3 4 2 2 3 2 2 2 6 6 7 6 6 7 12 6 8 7 6 7
30 32 35 37 35 35 34 32 33 35 34 33 32 32 32 35 27 29 15 15 9 3 6 5 2 13 22 24 26 7 2 6 3 4 4 3 3 4 3 3 3 2 3 4 5 1 8 11 10 9 10 10 13 12
30 32 34 34 34 33 32 32 33 32 31 30 29 29 32 27 26 31 20 20 9 2 1 5 6 2 18 22 19 12 3 1 5 4 3 3 3 3 4 4 4 4 4 6 4 11 14 11 7 10 12 13 15 16
27 29 30 31 31 31 31 30 29 29 28 28 25 25 26 24 24 25 22 23 27 5 2 5 4 11 12 12 13 16 10 6 4 3 3 2 3 4 2 3 1 0 4 4 4 5 10 6 8 13 15 13 12 14
22 24 26 27 27 27 27 27 29 27 26 26 26 24 27 26 30 18 2 32 39 29 3 4 3 8 6 7 15 8 2 3 3 4 2 2 2 4 3 3 1 5 10 5 5 11 16 14 14 14 15 13 13 14
18 20 23 25 26 28 28 27 29 29 29 32 29 30 33 35 32 11 6 4 10 6 3 3 1 3 6 3 3 4 4 3 3 3 3 3 2 3 3 3 6 8 10 9 13 18 11 4 9 12 15 17 20 19
19 25 27 27 27 27 29 29 27 28 33 35 35 33 27 22 16 17 36 11 9 4 4 4 1 4 7 3 2 3 3 3 5 3 2 2 3 2 3 5 8 11 12 14 13 13 15 15 16 12 16 16 12 9
13 13 16 17 20 24 25 27 31 33 37 33 34 30 19 12 7 7 9 2 16 8 4 2 4 3 3 3 2 4 3 4 2 2 2 4 1 2 4 9 7 7 7 12 14 14 14 15 14 12 11 8 8 6
30 23 18 20 20 21 23 27 30 33 37 39 32 6 2 3 6 4 2 3 4 4 4 2 1 2 1 1 2 2 2 3 2 2 2 3 2 5 6 7 7 10 12 13 15 12 13 13 13 12 11 11 12 12
37 34 30 23 23 25 26 28 32 41 43 10 2 3 4 4 8 4 4 4 2 4 3 1 2 3 3 3 3 1 2 0 3 3 4 1 2 3 4 6 2 7 10 6 12 11 11 15 13 12 11 15 16 16
39 44 37 32 31 29 29 38 46 13 2 9 14 8 4 4 4 6 3 3 4 2 2 2 2 2 2 2 3 1 3 2 2 3 3 3 1 6 6 5 5 11 13 14 20 15 16 16 19 18 15 16 17 18
28 31 36 35 30 27 26 23 11 25 20 9 5 4 3 4 6 4 2 2 2 2 1 1 3 1 3 4 3 2 4 1 2 3 3 2 6 5 7 11 13 17 21 21 20 22 22 20 22 20 17 19 20 20
28 25 22 27 25 22 27 18 10 6 9 4 4 6 4 4 4 3 2 2 1 1 1 4 3 2 1 3 1 4 0 2 3 3 3 4 8 8 7 9 14 12 13 14 16 18 18 20 19 21 21 19 19 16
29 28 27 22 16 15 12 15 20 14 8 5 5 5 4 1 2 2 2 2 3 2 3 3 3 2 1 3 2 3 2 3 3 3 2 5 9 9 11 11 12 12 11 12 16 16 17 18 18 17 17 17 17 15
18 26 30 23 16 16 14 10 18 8 4 4 6 3 2 2 3 3 3 2 4 3 1 2 2 3 3 3 2 2 5 3 2 2 4 8 9 11 10 12 12 17 18 15 15 15 18 19 17 18 15 13 14 15
23 14 18 18 22 19 16 13 9 6 4 4 3 3 2 4 3 2 2 2 2 1 1 1 4 2 1 2 2 3 2 2 3 4 5 9 12 12 11 12 18 20 18 16 16 17 18 19 18 16 13 10 11 13
16 19 17 10 9 16 11 11 4 4 6 3 3 4 2 3 1 2 3 2 2 2 2 2 1 4 4 3 2 2 2 4 5 6 7 10 12 17 17 16 19 20 19 18 18 16 14 16 15 13 13 10 12 11
19 20 16 14 11 7 4 6 6 4 4 2 2 2 2 2 3 4 5 6 5 5 3 3 5 4 3 3 2 4 3 3 5 5 7 14 16 16 19 20 20 18 16 16 17 16 18 18 15 13 11 9 11 10
16 18 20 20 9 6 5 3 5 4 3 2 2 3 2 2 3 4 7 6 6 3 5 4 3 3 3 3 2 5 4 5 7 8 7 7 14 19 16 16 16 19 18 19 18 18 17 16 14 11 10 8 8 6
10 16 17 11 9 12 4 3 4 3 2 2 2 2 2 2 5 6 5 5 6 4 3 4 5 5 11 14 15 12 7 7 4 5 7 7 12 16 16 16 17 15 13 12 13 15 17 14 10 8 8 7 7 8
10 12 7 11 6 5 4 11 2 2 3 1 2 2 2 2 3 4 3 6 4 4 4 4 6 6 9 13 15 19 16 20 21 20 19 17 6 8 10 13 16 15 15 13 14 13 11 7 7 5 6 6 6 9
6 8 8 9 6 6 2 8 4 4 3 1 2 3 3 2 1 1 4 3 4 8 7 6 12 16 14 18 23 24 23 19 16 16 17 17 18 18 19 19 16 15 12 12 11 10 9 6 7 7 5 7 8 8
10 6 6 5 5 4 2 4 3 3 3 3 3 3 3 2 2 3 3 3 5 14 11 15 6 7 13 17 11 17 17 18 19 19 16 16 14 15 16 16 17 16 13 11 10 9 6 6 6 6 8 8 9 9
6 8 5 6 5 5 4 4 5 4 3 4 3 3 2 1 3 3 3 3 6 7 7 11 15 13 7 6 12 15 23 15 14 13 17 12 15 14 14 14 15 13 8 8 10 8 9 7 7 8 9 9 9 9
8 8 5 7 4 4 4 3 4 4 2 3 3 1 1 3 5 4 3 3 3 5 7 9 6 6 7 13 8 12 15 11 14 14 13 15 16 12 8 8 8 8 10 7 6 7 8 9 9 10 10 11 12 7
6 6 3 2 2 1 2 2 2 4 5 5 3 4 2 4 4 3 2 8 3 10 12 15 14 13 10 10 12 14 15 14 14 13 11 14 15 14 13 11 9 6 4 7 10 9 7 8 9 11 12 13 12 12
3 3 4 5 3 5 3 3 4 5 4 5 3 6 3 4 4 3 4 10 7 10 12 14 13 13 16 15 13 12 12 6 10 11 15 17 14 13 12 10 8 7 7 5 8 7 8 8 12 11 11 14 14 12
3 4 2 4 4 4 5 5 3 3 4 3 3 3 3 3 8 7 11 14 14 16 15 13 9 11 14 16 17 19 18 16 14 7 7 3 3 13 13 10 6 7 8 8 8 9 10 12 9 11 13 16 15 14
4 4 2 5 4 4 3 4 3 3 8 4 5 4 4 4 13 18 17 15 13 13 15 17 17 17 16 13 12 15 17 17 15 12 4 3 9 13 13 10 10 11 10 12 12 11 11 12 13 12 11 12 11 11
3 3 3 4 3 2 1 4 11 9 5 4 8 4 4 3 5 16 23 12 13 20 15 16 16 15 16 17 15 9 8 11 10 10 12 9 11 11 12 12 11 12 11 13 12 12 14 14 14 13 11 11 10 7
3 3 2 3 2 1 1 2 1 2 2 2 2 3 2 3 3 5 13 13 15 15 15 14 12 10 10 7 8 7 7 6 7 14 13 14 14 16 15 11 9 12 14 14 13 13 13 15 16 15 9 7 12 12
1 2 4 3 3 2 2 2 2 3 3 3 3 2 2 3 3 2 6 10 7 7 8 6 6 6 4 5 7 4 4 9 14 11 12 14 15 13 14 18 17 13 13 12 12 12 14 16 16 14 8 8 9 9

GFSWCAN_925_spd_048.txt.gz
Wind_Speed
37 37 38 37 37 38 37 37 36 36 37 38 38 40 41 41 42 40 16 14 2 3 6 4 5 7 15 12 9 4 4 2 2 3 4 4 3 5 4 6 7 7 6 3 3 3 6 6 4 7 6 4 7 6
35 36 35 34 35 33 33 32 31 31 34 33 35 32 43 41 41 33 7 20 15 4 4 12 19 30 19 14 6 3 4 6 5 4 2 2 2 2 4 3 3 2 7 6 8 5 3 2 5 5 6 7 4 7
32 33 33 32 31 29 30 30 24 28 33 29 28 30 38 35 38 25 11 25 14 3 7 4 7 12 14 27 29 5 3 6 4 4 3 3 3 4 4 4 4 1 4 4 5 4 4 7 8 7 7 10 7 6
29 31 32 30 29 28 28 26 23 33 30 25 26 28 28 31 32 26 10 14 16 1 2 6 11 7 10 17 29 10 8 4 6 3 3 3 4 4 4 4 5 5 6 6 5 2 8 8 6 10 12 11 14 13
27 28 30 29 29 28 27 25 26 27 26 25 23 25 23 23 24 17 17 16 14 1 2 4 16 4 2 8 8 12 12 6 3 3 3 3 3 3 2 3 1 3 6 5 5 12 4 4 5 7 12 10 11 15
26 27 27 29 29 29 27 28 26 25 26 23 22 22 22 27 23 18 4 22 18 10 3 3 5 4 1 4 8 6 4 4 3 3 2 2 2 3 3 2 2 2 3 5 6 7 13 12 9 8 13 12 12 14
25 27 29 30 29 27 26 25 26 26 24 23 22 22 21 25 25 7 3 5 32 14 2 3 3 3 3 2 2 1 3 3 3 2 2 2 1 3 2 3 6 5 12 16 19 18 10 0 8 11 15 18 21 20
22 24 26 27 28 28 28 28 28 27 24 20 18 20 23 26 24 18 18 12 23 7 1 4 3 2 1 2 2 3 3 2 3 3 2 1 2 2 2 3 10 12 14 11 6 9 13 15 15 13 18 18 14 11
30 28 27 28 27 27 30 29 27 28 25 21 24 25 12 15 6 8 25 11 8 10 3 2 3 3 3 2 2 3 2 3 2 3 1 1 2 1 1 11 12 12 7 14 15 18 16 15 14 13 12 10 13 9
25 33 34 32 31 30 27 26 24 22 27 29 23 9 2 8 4 9 1 3 4 3 3 1 1 2 3 2 3 3 2 2 2 1 0 3 2 2 3 6 10 13 18 18 19 10 14 14 14 11 9 8 10 11
24 25 28 27 26 29 29 30 30 36 35 13 3 2 8 26 8 3 3 2 1 2 3 1 2 3 4 4 2 2 2 2 3 2 3 1 2 3 3 7 9 12 12 7 11 13 14 16 15 13 11 15 16 14
34 32 30 30 30 34 37 39 42 27 12 11 11 10 8 3 3 5 2 2 4 1 2 2 2 3 2 3 3 2 3 3 2 2 3 2 2 5 6 5 9 10 14 14 19 17 20 19 20 20 17 15 16 17
39 34 31 28 29 35 40 45 15 16 25 7 4 5 3 3 7 4 2 2 2 2 2 2 3 2 3 4 3 3 4 2 1 2 4 1 4 5 7 11 13 16 21 21 19 23 25 22 21 25 19 18 20 19
30 35 38 34 29 36 38 11 13 5 8 4 4 6 4 3 3 2 1 2 0 1 3 2 2 3 2 3 2 3 1 1 1 2 4 3 6 9 11 13 15 13 16 17 16 21 21 22 20 20 20 22 21 17
32 27 27 25 18 23 21 17 9 9 7 4 5 5 4 1 2 2 1 2 3 1 2 2 3 2 2 3 2 3 2 4 4 3 2 5 8 12 12 12 14 13 13 13 18 19 19 20 20 18 18 18 19 19
16 22 28 21 15 11 13 18 17 6 4 4 6 3 3 2 4 4 3 2 3 2 1 2 3 3 2 3 2 2 4 2 2 1 3 8 12 12 13 12 11 16 17 18 19 19 19 18 18 18 19 17 16 16
25 14 18 16 20 27 13 9 8 6 4 4 3 2 2 3 2 2 2 3 3 2 2 2 4 2 1 3 3 3 2 1 1 3 5 11 11 13 12 13 16 17 17 18 18 18 18 19 22 18 14 13 14 15
17 19 16 8 12 21 12 11 5 4 7 4 3 4 4 4 2 4 4 4 2 2 2 3 2 5 4 3 2 1 2 3 5 6 7 10 11 14 17 14 17 18 17 18 19 18 19 16 14 11 15 15 14 12
20 20 14 14 10 8 4 6 6 4 5 2 2 3 2 2 6 5 6 7 6 6 3 3 5 3 3 2 3 3 3 3 5 6 7 12 15 17 18 19 19 19 18 17 17 15 16 15 14 13 13 11 11 8
19 21 24 19 9 5 5 4 5 4 3 2 2 6 4 4 5 7 9 8 5 3 5 4 4 4 3 3 3 4 4 4 7 8 7 7 14 17 15 16 15 18 19 19 19 19 17 15 13 11 11 9 8 6
12 18 18 12 9 14 4 3 4 3 2 3 2 2 3 7 10 8 7 6 7 4 4 4 4 6 12 16 16 11 9 9 5 5 6 7 12 17 16 15 16 17 15 14 14 14 15 12 10 9 8 8 6 6
11 13 8 14 6 5 4 10 3 3 3 1 2 2 2 2 3 5 5 7 5 5 4 4 7 7 10 14 16 21 17 21 20 20 18 16 7 9 11 13 17 15 15 13 12 12 11 10 8 7 6 5 4 5
7 9 8 11 7 7 3 7 5 4 3 2 2 3 3 3 3 2 4 5 4 7 12 9 13 16 16 20 25 28 26 22 17 17 18 18 19 18 19 18 15 14 13 13 12 12 10 7 6 5 5 6 5 5
11 6 6 4 6 2 3 5 3 3 4 3 3 3 3 2 2 4 4 3 4 13 11 14 12 7 14 18 11 17 18 18 19 19 16 15 15 15 17 18 19 18 14 12 11 10 9 8 6 6 7 6 6 6
7 8 6 7 4 5 5 5 6 5 3 4 4 4 2 3 3 4 3 3 5 7 7 11 14 12 7 6 12 16 20 16 14 13 17 14 15 15 15 16 17 14 10 9 10 8 8 6 6 7 7 9 9 8
7 5 4 5 3 4 1 3 4 4 3 4 3 2 3 3 5 4 3 2 3 4 6 7 6 6 7 13 9 12 14 12 15 17 16 17 13 9 8 7 5 8 10 10 9 7 6 7 7 8 9 8 7 9
6 5 3 1 1 2 4 3 3 4 4 5 3 5 3 5 4 3 1 4 3 7 12 15 14 13 11 12 14 15 17 18 19 18 18 22 22 19 15 11 8 6 5 7 9 8 7 7 8 10 9 9 11 11
2 4 5 5 4 3 4 4 4 4 3 4 3 6 3 3 3 2 4 7 12 13 17 17 18 18 18 15 15 10 13 14 15 16 17 17 17 16 14 9 6 5 6 6 7 7 8 9 11 9 9 12 14 13
3 3 3 6 4 5 4 3 3 3 5 2 3 3 3 3 7 6 10 13 13 17 17 14 14 16 18 20 21 22 20 11 6 6 5 3 9 14 15 9 6 8 8 8 9 10 9 9 10 12 11 11 10 10
4 2 3 4 4 3 2 3 2 2 7 5 5 5 5 4 11 18 17 16 18 17 18 17 16 17 15 13 14 17 17 18 18 16 3 2 7 14 15 14 13 13 12 12 11 11 11 11 11 11 10 11 9 9
2 4 4 4 2 2 4 8 15 13 6 4 7 4 3 3 7 20 19 16 16 15 16 17 16 14 14 15 13 9 11 9 11 13 11 9 11 13 14 13 12 13 14 14 13 12 13 14 13 13 14 12 6 7
3 2 3 3 0 2 2 3 2 3 2 3 1 2 2 3 3 4 10 9 12 14 12 11 12 9 8 8 7 6 3 5 11 13 12 12 11 12 12 16 16 13 13 13 12 11 12 12 13 14 13 7 7 8
4 4 4 3 3 3 3 3 3 3 3 2 2 2 2 3 2 2 6 8 10 12 12 9 6 6 1 4 5 5 10 12 11 8 8 9 12 13 13 13 14 14 13 12 12 11 13 15 17 15 13 10 10 8

GFSWCAN_925_spd_054.txt.gz
Wind_Speed
22 20 22 27 37 48 50 49 48 47 49 52 53 50 40 38 39 43 20 22 4 1 4 4 5 4 6 13 7 5 5 2 3 6 4 4 3 7 4 3 6 7 7 3 3 3 6 8 5 9 7 1 6 6
37 39 36 40 42 42 44 42 43 47 49 49 49 44 35 34 35 32 7 19 15 2 1 4 10 12 8 6 10 4 6 6 6 4 2 3 2 1 4 4 1 3 6 6 9 7 3 5 4 1 4 5 6 8
30 31 35 36 33 33 36 40 42 43 42 42 39 35 33 34 34 33 16 22 9 2 3 4 5 4 6 16 15 5 3 4 4 3 4 3 3 4 4 5 2 3 3 4 4 5 5 3 3 1 1 4 6 5
25 28 31 33 35 36 37 39 37 35 33 31 35 35 32 33 35 29 17 27 18 3 2 4 8 10 8 9 17 17 2 3 5 2 2 3 3 4 3 3 4 4 6 6 3 3 2 5 4 4 5 7 12 9
23 25 25 25 27 29 31 32 32 32 33 32 32 33 34 33 32 33 20 18 24 5 3 3 7 18 11 15 20 20 12 4 2 2 2 3 2 4 1 1 3 5 7 5 6 7 4 4 9 7 9 7 8 15
23 24 24 25 26 25 25 25 26 27 27 26 34 31 37 35 36 23 4 23 28 7 2 1 4 3 4 5 11 10 10 4 3 4 3 3 1 4 4 4 5 6 7 6 4 9 4 10 8 4 10 9 10 11
22 23 24 23 23 24 25 24 25 25 28 32 34 35 33 32 34 5 5 17 18 14 1 4 4 3 3 2 1 2 2 2 3 3 3 3 1 3 2 4 3 2 4 4 13 14 7 4 6 9 14 13 20 19
22 23 22 22 28 28 26 23 22 22 27 36 37 33 31 39 16 4 11 29 24 8 2 1 3 4 3 1 3 1 3 1 2 3 2 3 2 1 4 2 4 4 7 8 3 5 8 16 15 14 16 17 16 14
25 26 26 29 31 29 29 31 25 33 45 48 42 41 25 6 3 3 6 16 13 3 3 2 2 2 3 1 1 2 1 2 1 2 2 3 2 5 4 4 7 5 3 11 11 13 15 16 16 15 15 14 17 14
26 27 29 31 31 31 31 29 34 40 47 46 32 5 3 9 20 22 8 4 4 2 1 2 1 2 2 2 2 2 2 2 2 2 3 3 3 1 2 4 8 9 12 14 17 10 15 15 15 13 13 12 14 14
24 26 26 28 31 33 32 30 31 33 28 3 3 2 12 27 5 1 3 4 3 4 3 4 5 2 1 2 1 0 2 1 3 3 3 2 3 3 6 8 7 10 8 5 10 10 9 14 16 16 14 12 18 20
25 24 23 23 23 24 25 27 26 10 1 1 6 18 10 3 3 4 3 2 3 5 2 3 3 3 2 2 2 2 3 2 4 1 3 3 1 4 8 14 12 9 7 11 12 15 15 14 18 15 14 16 16 21
25 24 24 24 23 22 22 20 18 7 6 5 3 3 1 1 3 4 4 2 2 3 2 2 2 2 2 2 2 1 2 2 1 2 1 1 1 5 8 10 12 11 13 15 16 21 22 20 21 23 19 21 23 20
22 22 22 22 21 19 17 15 13 8 5 2 2 4 2 3 3 1 1 1 1 1 1 1 3 1 1 3 2 2 1 0 3 1 3 1 4 8 8 9 14 13 13 14 15 17 18 20 20 20 22 23 24 20
20 21 21 21 22 20 18 16 14 1 2 2 3 4 4 1 1 2 1 2 3 1 2 2 2 2 3 3 1 2 2 2 2 2 2 2 6 8 9 10 12 12 12 12 15 14 18 22 21 20 19 21 23 24
29 27 12 18 18 20 19 20 5 3 3 3 6 4 5 4 6 5 5 3 4 3 1 1 3 3 3 2 3 3 2 2 2 2 1 5 7 7 9 9 10 11 13 15 18 20 21 20 20 20 20 21 22 22
12 6 10 25 24 27 23 7 4 4 3 4 4 6 4 3 4 3 4 4 4 1 2 2 4 4 1 3 3 4 3 3 2 2 3 5 9 9 10 11 12 17 17 20 22 21 21 22 23 22 18 15 16 17
12 15 20 31 37 33 10 4 2 4 7 4 4 7 6 5 5 5 5 6 3 2 3 4 3 6 4 4 3 4 3 4 5 6 6 8 11 10 15 13 18 20 20 21 21 20 19 18 16 14 17 15 16 13
18 18 25 24 8 6 3 5 5 4 6 3 4 4 4 6 9 7 7 8 6 6 3 3 6 4 3 3 6 7 3 2 5 7 8 12 16 17 19 21 21 20 20 19 18 16 17 17 15 14 13 13 11 10
25 28 21 12 5 5 5 4 5 4 4 3 2 8 6 6 7 9 11 9 8 4 7 5 5 4 5 6 6 5 4 4 5 9 9 9 17 20 18 17 17 20 21 21 20 19 18 19 18 15 13 11 10 8
18 20 15 15 9 12 4 3 4 3 3 4 2 2 3 6 13 12 11 8 9 4 4 4 5 6 12 13 15 14 14 13 9 7 6 8 15 19 19 20 21 20 18 16 15 16 17 14 12 12 12 11 8 5
9 11 7 13 6 5 4 9 3 1 3 2 2 2 3 3 3 6 4 8 5 5 5 5 7 6 8 14 17 23 20 23 23 23 23 20 9 10 15 17 18 17 18 17 16 15 14 13 12 11 9 7 4 3
7 8 8 12 7 6 2 5 5 4 4 2 3 3 3 3 3 3 4 5 4 7 12 8 12 17 16 20 25 29 26 23 19 19 20 21 22 22 22 23 21 18 16 17 16 16 14 11 10 9 7 5 5 4
10 7 6 5 6 2 3 5 3 3 4 4 3 3 3 2 2 4 4 3 4 13 11 15 14 7 15 22 11 19 21 20 22 24 21 19 18 20 21 21 23 23 17 14 14 13 12 11 10 10 9 8 7 7
7 8 6 7 4 6 6 5 6 5 4 3 3 4 3 3 3 3 2 3 5 6 7 13 14 13 7 7 13 19 23 19 17 16 20 16 15 16 18 20 22 22 18 18 16 13 12 10 11 11 10 8 8 9
8 6 5 4 4 4 2 3 4 3 3 3 3 2 3 3 4 3 2 1 3 5 6 7 6 6 8 14 9 12 14 14 19 22 19 21 20 15 12 10 9 13 15 14 12 11 10 10 10 10 10 8 8 11
7 5 2 3 2 3 4 3 2 4 5 4 2 3 3 5 3 2 2 6 3 7 10 11 10 10 9 11 15 19 22 23 23 20 18 21 21 19 18 14 11 10 9 9 9 9 11 11 11 11 9 11 13 14
4 5 4 5 4 3 4 3 4 4 3 3 3 5 4 3 2 2 4 9 13 14 18 19 19 17 15 14 14 14 15 13 10 11 14 19 20 16 13 10 8 8 9 9 10 11 12 12 11 9 12 13 14 12
4 3 4 6 5 5 5 3 2 3 5 1 3 2 2 2 4 4 6 9 9 12 14 15 15 17 20 20 19 19 20 14 12 6 5 3 8 15 13 12 14 14 13 12 11 10 9 10 11 13 13 14 14 13
4 2 4 4 5 4 2 2 1 3 6 3 4 3 3 4 10 12 14 14 15 16 14 13 10 11 12 12 13 15 15 16 17 13 3 1 6 7 10 11 14 13 13 14 14 15 14 14 13 13 14 15 14 12
1 3 4 4 3 1 3 7 12 9 5 4 8 4 3 2 5 12 11 9 9 9 9 10 11 10 10 11 9 6 8 10 11 9 7 6 6 7 10 11 12 13 13 13 12 13 13 13 15 17 15 13 13 11
4 3 4 3 2 1 1 1 2 3 1 3 2 2 3 3 2 2 3 3 5 6 4 3 3 5 6 7 8 8 7 8 7 6 6 8 8 10 12 12 12 12 11 11 11 11 11 12 14 14 13 13 13 12
3 3 3 3 3 2 2 3 3 2 3 2 0 2 1 3 3 4 4 3 5 6 5 4 4 6 4 5 5 7 7 7 6 5 5 7 10 12 11 10 11 11 10 10 10 10 11 11 11 11 12 12 13 13

GFSWCAN_925_spd_057.txt.gz
Wind_Speed
12 10 12 18 23 28 30 23 43 55 58 56 54 51 51 53 49 29 16 15 3 2 3 3 3 5 8 13 7 4 4 3 2 4 3 3 3 5 4 4 4 6 7 4 3 1 7 7 6 9 7 3 6 10
35 13 14 20 22 26 32 48 53 52 51 49 47 45 49 51 49 27 9 17 5 2 1 2 4 9 4 19 11 8 5 6 6 3 3 2 3 1 5 9 2 4 6 5 9 6 2 13 4 5 3 4 6 12
30 35 35 34 36 40 45 45 44 45 44 42 44 48 41 47 44 22 12 10 6 2 2 0 4 3 4 10 13 5 2 4 4 2 4 3 4 5 4 5 4 4 4 3 2 4 5 5 3 3 2 4 4 6
33 34 33 37 37 38 39 39 39 40 41 40 47 40 36 34 34 24 14 10 10 2 1 3 2 6 6 13 11 8 4 4 4 2 2 2 2 4 4 4 5 3 8 6 4 4 4 10 10 3 3 4 10 11
29 32 36 37 35 33 34 36 39 39 37 40 39 36 33 34 31 22 16 11 16 1 1 2 4 10 12 13 11 14 7 2 2 2 2 3 2 2 1 0 3 5 6 5 6 8 6 5 8 12 11 9 12 18
23 25 28 31 34 37 39 40 38 37 36 35 35 36 33 35 32 22 2 10 19 13 1 1 5 6 5 11 14 10 7 4 3 3 3 3 2 4 4 5 4 8 7 3 3 4 3 5 7 7 9 13 11 15
22 23 24 25 27 29 31 33 31 29 31 30 30 30 32 34 30 5 6 5 30 20 3 2 2 4 11 7 3 3 6 3 3 3 3 3 3 3 2 9 4 4 4 4 6 9 1 6 5 9 14 13 19 20
15 19 22 24 26 26 26 27 26 24 25 28 30 29 29 27 12 6 10 10 35 5 2 2 3 3 2 3 3 1 3 3 3 3 1 3 2 1 5 4 3 3 3 5 6 3 1 12 14 13 15 16 17 16
19 18 18 18 20 22 25 26 27 26 34 27 32 31 26 5 2 7 17 25 20 10 3 2 2 2 2 1 2 2 2 2 1 3 3 5 4 8 5 6 8 10 6 8 7 9 12 13 15 15 16 15 18 16
19 26 25 25 25 23 20 28 32 34 35 33 26 4 2 8 10 20 11 3 2 1 2 2 2 1 1 1 1 2 1 2 2 3 4 4 4 2 3 4 6 8 11 14 9 7 12 13 13 13 12 12 14 15
18 17 18 19 18 23 31 30 42 38 28 4 3 3 5 24 5 2 3 3 3 3 3 3 4 1 2 2 2 2 1 1 2 3 4 3 3 3 7 8 8 9 11 5 5 8 8 16 17 15 13 13 16 19
19 19 19 20 20 24 30 29 25 9 4 4 5 12 12 4 2 4 4 2 5 6 3 4 3 2 1 2 2 2 1 0 3 1 0 2 3 7 3 6 7 7 8 10 12 14 13 14 16 15 15 15 20 25
18 19 19 21 22 23 23 16 8 9 4 3 2 3 1 2 7 5 7 3 3 3 3 3 2 3 1 2 2 2 3 3 2 1 1 2 4 4 6 7 9 8 8 11 16 19 21 20 21 21 18 23 26 24
19 19 20 20 22 20 15 6 4 9 6 2 2 4 2 3 3 2 2 2 1 1 2 2 2 2 2 2 2 3 1 0 0 0 2 3 3 3 7 7 11 10 9 16 15 15 16 18 18 21 24 25 25 21
19 18 19 18 17 14 11 6 4 7 5 3 3 3 4 3 3 3 1 2 2 0 1 3 3 2 2 3 1 2 2 3 3 2 3 2 3 5 7 9 10 10 10 11 12 14 16 20 21 21 20 21 23 24
21 16 16 17 14 13 12 10 5 4 2 3 6 5 5 4 6 5 6 3 3 2 0 2 3 3 2 2 3 4 2 3 3 3 2 3 5 7 8 10 11 11 12 14 18 20 22 21 20 22 21 21 21 22
22 5 17 22 22 18 19 5 2 3 4 4 4 8 5 2 3 4 4 5 3 1 2 3 5 3 3 4 4 4 4 5 5 4 4 7 7 7 10 11 11 16 17 20 22 23 24 23 24 24 19 16 16 17
5 20 30 31 27 15 5 7 3 4 7 4 3 7 7 6 8 7 7 8 4 3 3 4 4 7 5 4 3 4 5 3 5 6 7 8 10 10 15 13 19 21 21 22 23 23 22 19 18 15 17 17 16 14
34 42 41 33 15 7 3 4 4 4 6 3 4 6 3 5 9 8 8 8 7 7 4 4 6 4 4 4 6 8 7 4 4 6 9 16 18 18 20 23 24 24 23 21 21 19 20 20 17 15 13 11 12 9
40 25 22 17 4 4 4 3 4 4 4 2 2 7 5 5 7 8 11 10 9 4 7 5 5 5 4 5 5 6 5 4 5 9 9 9 18 23 21 19 18 21 22 22 22 20 19 20 18 16 13 11 10 8
21 18 18 11 5 9 4 3 4 3 4 3 2 2 4 6 13 11 10 8 9 5 5 5 5 5 12 13 14 13 14 15 10 8 7 9 16 20 21 22 22 22 20 18 17 18 20 16 13 14 14 12 10 8
6 7 4 5 5 5 4 8 3 1 3 2 2 3 3 3 4 6 5 9 5 5 4 5 7 6 8 13 16 21 20 23 23 23 23 21 10 11 16 19 20 19 20 18 17 16 15 13 12 12 11 9 7 7
7 6 7 10 6 6 2 5 5 4 4 2 2 4 3 3 3 3 4 5 4 8 12 8 11 15 14 18 23 27 25 22 19 19 20 21 22 21 22 22 19 17 16 16 14 14 13 12 14 13 11 10 10 10
7 6 6 4 5 2 3 5 3 3 3 4 3 3 4 3 2 4 4 3 5 13 11 15 14 7 14 21 11 18 19 19 21 23 19 19 18 19 21 21 21 21 15 13 14 15 15 16 14 14 14 13 13 12
7 8 6 7 4 6 6 5 5 5 4 4 4 4 3 3 3 3 2 2 5 6 7 13 14 13 7 7 13 18 21 17 16 15 19 14 15 16 18 19 20 19 17 17 17 15 14 13 14 14 13 12 12 13
8 6 5 4 3 4 3 3 4 3 3 4 4 2 3 3 4 3 2 2 3 4 6 6 6 7 8 14 10 12 13 12 15 20 16 16 14 13 11 11 10 12 16 14 12 12 12 12 12 12 11 11 13 14
6 5 2 3 2 4 4 3 2 4 5 4 2 3 3 4 2 2 2 6 3 5 7 8 10 12 11 12 13 15 20 21 20 17 14 17 18 17 15 11 9 7 9 10 10 11 11 11 12 10 10 12 13 14
4 4 5 5 5 4 4 4 4 4 3 3 3 5 3 3 2 2 3 6 9 10 13 14 13 13 13 11 10 9 11 11 10 12 15 19 18 17 16 14 11 10 10 10 10 10 10 11 11 11 12 13 15 13
4 3 3 5 5 5 5 3 2 3 4 2 3 2 2 2 4 3 4 8 8 10 12 14 15 15 16 16 17 17 17 11 5 5 5 3 6 12 12 13 12 12 12 12 12 12 11 12 11 12 12 13 13 11
3 2 4 4 5 4 2 2 1 2 5 3 4 3 3 3 8 9 10 10 11 11 9 8 7 6 8 9 10 13 14 14 13 9 3 2 4 6 9 10 11 12 11 11 11 11 10 11 12 14 14 13 13 12
2 3 4 4 4 1 2 4 5 5 4 4 6 3 2 2 4 8 9 8 8 9 9 9 9 8 8 9 7 6 8 10 9 8 8 6 6 8 10 11 11 11 10 10 10 10 11 12 13 13 13 13 13 13
4 4 4 4 2 1 1 2 2 3 2 3 2 2 2 3 1 1 2 2 3 3 2 3 4 5 5 5 6 6 5 4 3 3 4 5 8 11 10 9 9 9 8 8 9 9 10 10 10 11 12 13 13 13
3 3 3 4 3 1 3 3 3 2 3 2 1 1 1 3 4 4 4 3 3 2 2 3 6 6 3 3 4 4 4 5 3 3 4 6 10 10 9 9 9 8 8 8 8 8 8 9 10 11 11 12 13 13

GFSWCAN_925_spd_060.txt.gz
Wind_Speed
18 15 12 12 23 27 32 40 44 48 47 47 57 65 65 62 53 27 20 17 12 7 9 2 16 17 22 15 14 16 9 6 6 8 6 5 4 5 5 6 6 8 9 5 6 6 10 10 11 10 12 2 7 10
20 15 14 11 18 23 28 33 37 42 45 58 63 60 59 55 47 26 14 16 8 1 4 5 3 8 16 26 12 15 9 16 7 7 6 5 3 1 7 8 5 5 5 2 8 5 2 19 12 16 4 6 6 10
30 29 20 20 9 21 17 29 34 45 55 57 56 54 49 49 43 28 22 19 10 2 2 2 4 6 5 12 20 8 8 7 8 5 5 4 4 6 5 7 8 6 3 4 4 10 10 8 13 5 7 6 3 6
31 29 28 35 41 43 43 47 47 50 52 51 50 50 52 42 27 31 19 14 14 4 3 3 7 4 8 9 13 12 8 7 5 5 4 3 3 5 6 11 10 10 10 12 16 14 5 11 13 15 11 7 7 9
30 30 31 32 34 38 41 42 44 44 43 42 42 45 50 33 27 30 24 12 11 2 2 3 5 5 7 9 15 16 8 9 5 4 2 4 3 3 2 2 7 8 11 6 8 10 9 12 4 14 15 14 11 14
30 32 33 33 36 36 37 39 35 36 39 37 35 39 44 39 34 21 4 4 6 7 2 2 7 9 11 10 14 15 13 8 4 3 3 4 3 5 4 9 15 16 14 14 15 6 8 1 2 5 11 11 13 15
23 29 33 36 35 34 38 41 39 43 43 42 40 40 35 32 21 4 4 12 16 10 3 2 3 4 12 14 6 5 10 8 8 7 5 6 4 5 4 11 12 9 12 14 6 4 5 7 3 6 6 9 10 13
21 22 25 28 32 35 33 36 41 41 43 41 41 40 35 19 13 9 7 19 20 5 1 3 3 3 11 7 5 6 6 4 4 4 1 8 6 3 6 14 18 19 13 8 11 8 7 1 5 7 9 12 14 15
22 22 22 22 23 27 28 31 33 34 36 35 36 30 18 5 2 4 7 23 10 2 3 2 3 3 5 3 3 2 2 3 1 3 5 4 7 8 8 14 12 12 12 11 8 6 6 7 8 10 13 15 15 14
21 19 21 21 23 26 28 29 30 35 37 38 20 4 3 7 16 20 5 3 3 3 3 3 1 4 4 5 4 4 1 3 3 4 4 4 10 14 12 7 7 8 9 6 6 5 7 7 9 10 11 10 12 15
22 21 17 19 23 27 33 34 37 38 25 5 2 2 6 17 4 3 4 3 4 4 6 5 5 5 1 2 3 2 3 4 4 3 3 3 1 4 14 10 7 4 3 5 3 4 6 6 12 13 11 12 13 17
22 26 32 26 30 30 28 31 25 8 3 2 6 10 7 4 2 2 4 3 6 5 5 3 2 3 3 3 2 2 2 1 2 2 1 1 3 9 8 4 5 4 4 4 4 7 8 10 10 12 14 16 20 24
22 28 32 40 41 32 24 15 11 3 3 3 3 3 1 1 3 5 8 4 4 2 4 3 2 1 1 3 3 1 2 2 1 1 1 2 5 7 7 5 8 9 11 12 13 14 15 17 20 18 14 21 25 23
20 24 27 22 22 18 13 15 12 7 8 3 2 4 2 2 3 3 3 3 2 1 4 3 3 2 1 2 0 2 2 1 3 2 3 3 6 7 7 6 9 11 12 13 13 14 14 15 18 22 22 22 26 24
21 20 20 19 16 8 11 15 20 14 4 5 4 5 4 4 4 5 2 2 3 2 2 2 2 1 2 2 2 2 3 3 5 3 4 5 5 4 6 8 10 10 11 12 11 13 15 20 22 23 23 25 27 26
24 20 13 15 14 11 9 9 14 6 3 3 6 6 8 4 9 6 7 4 4 2 0 1 2 2 3 2 3 5 2 5 4 4 6 4 7 8 9 10 11 11 12 14 18 21 22 22 23 25 26 25 23 22
17 6 20 17 14 13 11 6 4 5 5 4 4 8 7 3 5 7 7 6 3 1 2 2 4 5 2 4 3 5 4 6 6 5 5 8 9 10 11 12 12 17 18 22 24 24 25 26 26 25 20 20 21 21
4 19 26 19 17 12 4 5 4 4 6 5 3 6 6 5 8 6 7 8 3 2 3 4 4 7 5 4 3 4 4 4 7 8 8 10 13 14 16 15 20 22 24 24 24 23 22 22 20 18 20 19 20 18
19 31 29 25 10 5 2 4 4 4 5 3 4 6 2 6 9 8 8 7 8 8 5 4 6 4 4 4 6 7 7 5 6 8 10 17 20 20 21 23 24 26 25 24 23 22 23 22 19 17 16 15 15 12
34 33 23 14 5 3 4 3 3 5 4 3 2 9 9 7 9 9 11 10 9 5 7 5 5 6 5 6 6 6 5 6 7 9 10 10 18 22 22 20 20 22 24 24 24 21 21 21 20 18 16 14 13 11
28 19 11 4 4 8 4 3 4 3 4 3 2 5 5 9 13 13 12 10 9 5 5 6 6 7 13 14 14 13 14 15 10 9 8 9 16 20 21 22 23 23 21 19 19 20 21 19 16 15 15 14 12 10
8 6 3 5 4 4 4 8 3 2 2 3 3 4 4 5 6 9 8 9 6 7 5 7 8 7 9 14 17 20 19 22 22 21 20 19 10 13 16 19 20 19 21 20 19 18 17 15 13 13 13 11 10 10
8 5 6 8 5 5 3 5 3 4 3 3 2 4 4 4 4 4 5 5 5 8 12 10 14 16 16 18 23 27 24 22 19 19 20 20 21 21 21 22 20 19 17 18 16 15 15 13 15 13 12 12 11 10
6 6 5 5 6 4 2 4 3 3 3 3 3 4 4 4 3 4 4 3 5 10 10 13 11 8 15 20 13 19 19 18 20 21 19 18 18 19 19 20 20 19 16 14 14 14 13 13 12 12 12 11 12 11
6 8 5 6 5 5 5 4 5 4 4 5 3 4 3 2 3 3 3 2 5 6 6 11 12 12 8 8 14 17 18 16 16 16 17 14 13 14 16 17 18 17 13 12 13 12 11 11 11 11 11 11 11 11
8 8 6 5 4 4 4 3 4 5 4 3 4 2 2 3 4 4 2 3 4 4 6 7 6 6 9 13 9 12 12 11 12 16 15 15 13 11 10 9 8 11 13 11 10 10 9 9 9 8 8 9 9 10
6 6 5 4 3 4 4 4 4 5 4 4 2 2 2 4 3 3 3 5 3 6 7 8 9 11 10 11 11 12 13 13 14 13 11 12 14 13 12 10 10 7 8 8 8 8 8 8 8 8 8 8 8 8
5 5 5 5 5 5 4 4 4 4 3 3 1 4 3 2 3 2 3 6 7 8 9 10 10 9 9 7 6 5 6 7 8 9 12 13 12 12 11 9 9 8 7 8 7 7 7 7 7 7 8 8 8 7
5 3 3 5 5 6 6 4 3 3 4 2 2 2 2 3 2 4 7 7 6 7 9 10 9 9 10 10 10 9 8 4 1 4 5 4 4 7 7 6 6 7 6 6 6 6 6 7 6 7 6 6 7 7
3 3 4 4 5 5 4 4 3 3 5 5 4 4 3 3 5 4 5 5 5 6 6 6 4 3 4 4 5 7 9 9 8 6 4 4 4 3 5 6 6 6 6 5 5 5 6 6 5 6 7 7 8 7
2 2 4 4 4 3 4 5 5 6 3 4 7 5 4 3 3 5 6 6 7 7 6 6 5 4 4 4 3 3 5 6 8 8 7 5 4 5 5 6 6 6 6 6 5 5 6 6 6 7 7 8 8 8
3 4 4 4 3 5 2 0 2 2 2 1 2 2 3 3 3 4 2 3 4 4 3 4 4 3 4 4 5 5 5 3 3 3 4 4 5 7 6 7 7 6 5 5 5 5 6 6 6 6 7 8 9 9
3 3 4 4 4 4 4 2 2 3 2 2 2 1 1 0 2 3 4 5 3 3 3 4 5 5 4 3 3 3 3 3 2 2 3 5 8 8 6 6 7 6 5 5 5 5 6 6 6 7 7 9 9 10

GFSWCAN_925_spd_063.txt.gz
Wind_Speed
29 22 20 17 27 22 7 38 46 44 46 47 50 51 53 65 62 33 27 27 15 6 11 4 14 16 17 20 15 15 11 11 10 10 8 6 4 11 12 15 12 10 9 5 8 9 11 6 9 13 14 14 7 9
32 29 23 12 18 17 22 35 45 44 46 49 49 52 52 64 61 33 22 22 15 2 4 6 2 13 5 26 15 11 13 15 8 9 6 6 4 1 8 11 11 8 10 9 9 5 6 14 11 17 9 8 6 8
28 26 23 10 15 19 26 34 37 39 43 46 47 49 54 58 48 33 24 21 15 3 3 4 7 8 7 10 18 13 13 14 16 13 6 4 5 7 6 10 15 13 7 4 6 11 12 10 12 13 8 8 8 6
28 30 38 15 15 20 28 32 36 39 41 43 49 53 60 48 31 35 24 19 19 5 3 5 8 7 6 3 13 15 16 14 10 9 6 4 4 6 7 10 10 11 8 10 17 19 18 10 9 13 13 11 10 8
30 30 33 43 30 20 22 26 32 36 38 44 50 57 57 33 28 28 23 14 9 3 4 6 7 3 6 11 19 15 13 13 7 8 3 5 7 6 5 7 10 13 13 9 9 9 9 14 13 9 15 16 12 12
29 33 33 32 37 44 45 47 51 52 54 50 48 48 43 37 35 28 3 8 12 9 2 4 4 8 5 2 13 17 13 7 9 7 7 7 11 9 4 9 12 15 17 14 14 14 12 10 6 7 10 10 10 11
27 29 32 35 33 38 39 40 42 45 51 48 48 45 40 32 18 5 4 14 14 7 2 1 3 9 20 9 4 8 16 10 8 5 4 7 8 5 5 10 10 10 13 16 14 11 8 12 7 1 4 3 2 7
24 28 32 33 40 38 37 39 39 39 46 40 44 35 28 25 15 10 14 19 10 4 1 2 2 3 14 6 5 7 9 10 8 6 5 8 5 4 5 13 19 18 19 18 16 10 11 9 4 3 3 3 6 7
22 25 27 32 34 39 39 37 44 47 47 43 37 30 22 8 4 6 14 8 6 3 3 3 3 3 2 8 3 6 6 8 3 7 9 5 8 8 6 14 14 13 12 14 16 15 9 8 9 4 4 5 7 8
21 22 23 27 29 35 37 39 41 42 43 39 24 4 4 5 27 19 3 1 2 1 2 2 2 2 3 1 4 2 3 6 5 5 5 5 10 13 4 13 13 8 13 12 5 7 6 8 6 4 5 5 6 9
18 23 23 24 27 27 31 33 34 30 9 3 3 3 15 18 2 2 3 2 3 2 4 4 6 2 3 2 1 2 2 2 4 4 7 3 3 6 14 12 11 10 8 7 6 6 6 5 3 3 4 5 8 10
19 27 28 29 28 30 30 23 7 2 5 4 14 15 5 1 2 1 4 3 5 4 5 5 5 3 2 1 5 1 4 3 4 4 3 3 2 7 10 10 13 12 9 7 7 7 9 10 10 12 12 15 20 22
34 35 30 34 32 23 14 10 7 7 7 2 3 3 2 2 4 4 6 4 3 2 2 3 4 4 3 7 1 3 3 2 3 3 2 3 5 6 7 5 8 10 10 12 13 17 20 20 23 23 16 22 25 25
37 31 29 27 22 18 16 12 11 4 5 3 2 3 3 3 6 6 5 5 2 2 3 6 3 2 2 1 1 3 3 1 2 2 4 5 7 6 6 7 9 10 11 12 13 14 17 17 19 23 22 23 25 24
29 24 20 18 17 16 15 13 11 10 6 5 5 4 6 4 6 6 6 3 4 5 2 3 2 1 2 2 3 1 3 4 6 4 4 6 7 7 7 8 9 10 10 12 12 14 17 23 23 24 25 26 27 26
24 19 14 13 12 12 8 10 12 5 3 4 8 5 9 5 8 8 6 5 5 5 2 2 2 2 4 2 3 6 4 6 4 4 6 5 8 9 10 10 11 11 13 15 20 24 25 25 24 27 28 26 25 25
8 5 11 11 14 18 13 7 6 6 5 5 4 8 8 4 7 7 7 6 6 4 4 3 5 5 2 4 4 5 4 5 7 7 7 9 10 10 11 12 12 17 19 23 25 25 26 25 26 27 22 23 24 25
7 20 14 10 14 16 8 9 5 5 7 5 3 7 7 6 9 8 6 6 4 3 3 5 5 8 6 5 4 4 5 6 7 9 10 11 13 14 16 15 19 22 24 24 25 25 24 24 22 19 21 20 21 20
24 21 13 9 6 5 3 4 4 4 5 3 5 6 3 5 8 8 8 8 9 8 4 4 6 4 4 4 6 7 6 6 7 9 11 18 19 19 21 23 25 25 25 25 24 21 23 23 20 17 17 16 17 15
26 22 15 8 6 3 4 3 4 4 3 2 3 7 7 6 8 9 10 9 9 4 6 5 4 5 4 5 6 5 6 6 7 9 10 10 19 21 21 19 19 21 23 23 23 21 21 22 21 20 19 18 16 15
23 18 13 3 4 8 4 2 4 3 4 3 3 6 5 9 12 11 11 9 8 4 5 6 6 7 11 13 13 13 15 15 10 9 9 9 16 19 20 21 22 22 20 20 19 20 21 19 17 17 16 16 15 14
10 8 3 4 3 3 4 6 3 3 2 3 5 4 4 6 8 8 9 9 6 8 5 6 7 6 9 12 16 20 20 22 21 21 20 19 10 13 16 19 19 18 20 19 19 18 17 16 15 14 14 13 12 14
8 4 4 6 4 4 3 3 4 4 3 2 2 4 4 4 4 4 4 5 5 9 11 11 14 15 16 18 21 23 21 20 18 18 18 19 19 19 19 20 19 17 16 17 15 15 15 13 14 13 12 12 11 11
7 5 5 4 6 4 2 4 3 3 3 3 3 4 4 4 3 4 5 4 5 9 8 11 8 8 13 17 11 17 18 17 19 19 17 16 16 17 17 17 17 17 15 13 13 13 12 12 11 12 12 11 11 10
6 7 4 7 4 4 4 3 4 3 4 4 3 4 3 3 3 3 3 3 5 6 6 10 11 11 8 8 14 16 16 15 15 14 15 12 12 12 14 15 16 15 12 11 12 11 11 10 10 10 10 11 11 11
7 9 5 4 3 3 3 3 3 4 3 3 4 2 2 3 3 4 3 4 5 5 6 6 6 6 8 12 9 11 12 10 11 14 15 13 12 10 9 8 9 11 12 10 9 9 9 9 10 10 10 11 11 11
5 5 5 4 3 4 4 5 4 5 4 4 3 3 2 3 3 3 4 6 4 7 8 10 10 11 10 11 12 12 13 14 13 12 11 13 14 14 12 10 9 8 8 9 9 10 9 10 10 10 9 9 9 9
5 5 5 4 5 6 4 4 4 4 4 4 1 4 3 3 3 3 4 7 8 8 9 10 10 9 10 9 8 7 6 6 7 8 10 12 12 12 11 9 9 9 8 9 9 9 8 8 7 7 7 7 7 6
5 3 4 6 6 6 7 5 4 3 4 3 2 2 3 3 3 8 8 7 7 7 8 8 8 8 8 9 9 9 8 6 4 4 5 4 5 9 8 7 6 6 6 6 7 6 6 5 4 5 5 5 5 5
4 3 4 5 5 6 5 5 5 4 6 5 4 6 7 7 5 4 5 5 5 6 6 5 4 3 4 4 5 7 9 8 8 5 3 4 4 4 5 5 5 5 5 4 4 3 5 3 3 3 5 4 5 6
2 3 5 5 4 6 6 7 9 8 6 5 7 6 6 4 4 4 5 5 6 6 6 5 4 3 3 3 3 2 4 5 6 7 7 5 4 4 4 3 3 3 3 3 3 3 4 3 3 4 4 5 6 7
4 4 4 4 4 4 1 1 2 2 2 3 3 3 3 3 3 4 3 4 4 4 2 2 3 3 3 4 4 4 6 4 3 3 3 3 3 3 3 3 3 3 3 3 3 3 4 4 4 5 6 7 7 8
5 7 7 5 4 4 3 3 2 2 2 2 2 1 1 1 2 3 3 3 0 2 4 3 3 4 4 4 3 3 3 1 2 2 0 2 4 3 2 3 4 4 4 4 4 4 5 5 6 6 7 8 9 10

GFSWCAN_925_spd_066.txt.gz
Wind_Speed
36 36 41 32 23 30 36 41 40 39 40 47 53 55 50 48 49 39 22 36 13 3 5 3 15 12 18 16 15 15 13 3 11 9 7 6 5 7 8 14 13 13 7 7 5 7 13 3 6 19 8 6 6 9
32 37 17 19 19 20 16 4 31 40 39 37 49 52 52 51 51 40 12 32 13 3 2 4 17 15 23 22 10 10 14 10 9 7 6 6 3 2 7 8 12 10 13 8 7 7 6 6 6 4 6 5 5 7
31 33 15 20 18 16 21 29 36 36 35 34 47 48 49 49 48 27 28 31 13 3 2 4 9 10 5 2 11 7 9 6 14 8 4 4 3 5 4 6 8 11 10 4 10 12 6 5 6 5 5 5 7 7
29 34 19 20 16 19 24 27 32 37 34 38 44 46 48 52 45 24 33 24 13 6 2 2 4 5 1 2 6 5 4 5 5 7 6 3 4 6 5 7 9 8 12 12 13 20 7 13 8 3 5 7 6 5
29 32 24 15 18 19 22 27 30 33 38 41 41 44 47 52 35 28 27 19 14 4 1 4 8 7 7 5 4 7 6 10 4 11 3 6 6 4 0 3 5 7 7 4 3 5 3 2 7 8 6 8 12 7
30 28 37 29 21 29 28 32 39 40 40 40 38 41 49 49 31 13 4 7 19 10 1 4 3 6 7 8 8 8 3 5 5 4 5 5 7 5 2 5 11 11 11 12 8 6 6 3 3 2 4 9 10 5
32 28 31 38 41 41 39 33 36 46 50 49 45 46 46 46 25 3 3 17 26 22 2 2 4 7 9 7 5 4 4 2 4 3 4 6 7 8 5 6 8 10 10 8 7 6 6 4 2 5 4 7 7 7
29 30 30 30 40 45 48 47 50 53 51 45 41 37 35 31 16 8 14 20 10 2 2 1 1 3 9 4 3 5 3 5 4 3 3 6 6 4 3 8 12 14 16 14 13 10 4 4 2 3 2 4 4 4
24 27 27 35 33 39 41 49 51 45 42 39 34 31 20 6 3 6 11 11 8 2 3 2 1 1 2 4 2 5 6 6 3 1 2 3 3 4 3 5 7 13 8 10 11 7 9 5 5 4 4 3 5 4
24 27 31 30 39 39 42 40 41 40 32 21 11 6 4 5 24 12 7 2 0 1 2 1 3 1 4 2 2 2 2 2 4 5 2 4 4 5 15 12 12 12 11 10 7 8 9 6 4 5 5 3 2 6
21 25 28 31 32 36 39 36 28 15 6 4 4 4 18 4 1 1 2 2 2 1 3 4 6 3 3 2 1 3 2 2 5 5 7 4 2 6 15 13 13 14 14 12 8 6 6 5 4 9 14 16 17 18
22 25 28 29 29 26 19 9 8 5 6 6 15 12 2 1 3 3 2 2 2 3 5 4 3 3 2 1 1 2 2 2 5 4 4 3 3 8 10 10 11 11 12 14 16 16 17 17 16 16 15 15 18 24
25 27 30 27 19 14 14 12 15 13 6 5 2 4 1 2 3 2 5 3 2 2 1 4 3 3 3 2 0 2 3 4 1 3 3 3 7 7 8 8 10 11 13 14 16 16 19 18 22 22 16 22 26 26
30 27 20 17 14 12 13 9 2 5 5 4 3 5 4 4 5 5 5 4 3 4 6 4 2 2 2 3 3 3 2 2 3 3 4 6 9 7 9 8 9 11 12 14 14 14 15 15 17 24 25 26 27 25
24 19 16 14 11 10 9 8 11 9 6 5 5 5 6 4 5 5 6 3 4 6 4 1 1 3 3 3 2 3 2 4 6 4 4 7 8 8 8 8 9 10 10 12 13 14 16 21 21 24 27 28 30 30
18 13 10 8 8 7 4 8 11 8 4 4 7 4 8 3 7 7 7 4 4 6 4 1 3 3 2 2 4 7 4 6 4 4 7 7 9 9 9 10 11 12 13 14 19 22 23 24 24 26 30 29 28 28
0 3 5 8 12 13 8 6 7 6 5 4 4 7 7 4 7 6 7 7 5 3 2 3 5 4 3 3 4 5 4 5 7 7 8 10 10 10 10 11 12 16 18 20 22 24 24 25 27 27 20 24 27 27
5 11 6 4 5 7 10 8 4 5 7 6 3 7 7 5 7 7 6 8 5 3 3 4 4 7 6 5 4 5 4 7 8 8 8 10 13 15 16 13 19 21 21 22 23 23 23 22 21 18 21 20 21 20
12 7 5 11 8 4 3 5 5 4 4 3 4 5 3 5 8 8 8 7 7 6 4 4 6 4 4 4 6 6 5 7 7 8 9 18 19 18 20 22 24 24 24 24 24 22 24 25 22 20 19 19 18 16
9 10 10 16 10 4 4 3 4 4 3 2 4 6 5 6 7 7 9 7 7 4 6 5 5 5 3 4 5 5 4 6 7 8 9 9 17 20 19 18 18 21 22 23 23 22 22 22 23 23 22 20 18 17
9 6 8 10 6 10 4 3 4 3 4 2 3 6 5 6 11 11 10 8 7 4 5 5 6 6 10 12 13 13 14 14 8 7 8 8 14 17 18 20 20 20 19 18 17 19 20 18 18 19 19 19 18 16
5 5 4 8 4 4 4 9 3 3 3 3 5 5 4 7 7 8 8 10 6 7 5 7 8 8 10 12 14 18 18 20 20 19 19 17 8 10 13 16 17 16 18 18 18 17 17 17 17 17 16 15 17 18
5 4 5 6 4 5 3 3 4 4 3 2 3 4 4 4 4 5 4 6 5 9 11 11 15 17 16 17 20 22 20 18 16 16 16 17 17 17 18 18 17 16 15 17 16 16 16 15 17 16 15 14 13 13
6 5 5 4 5 4 2 3 3 3 3 3 3 4 4 3 3 4 4 3 5 9 8 8 9 8 13 15 10 16 15 14 16 16 15 15 15 16 17 17 17 17 15 13 14 14 14 14 15 15 15 13 13 12
5 7 4 7 4 3 4 3 3 3 4 4 3 4 3 2 3 3 3 3 5 6 6 11 12 11 7 8 13 15 15 14 14 13 16 10 11 13 14 15 16 15 14 12 13 12 12 12 12 12 12 12 10 11
7 8 5 5 4 4 4 3 3 4 3 3 4 2 2 3 3 4 3 5 5 5 7 6 6 6 8 12 8 11 12 10 12 14 14 14 14 10 9 9 10 13 12 12 11 10 10 10 9 10 10 10 10 9
5 5 5 4 3 4 5 5 5 5 5 5 3 3 2 3 4 3 4 7 5 7 9 11 11 11 10 11 11 11 12 13 13 12 11 13 14 14 12 9 9 8 8 9 9 9 8 8 8 8 7 8 8 7
5 5 5 5 6 7 4 4 4 5 4 4 1 4 3 4 3 3 3 8 8 8 9 10 11 11 11 10 9 7 7 7 8 9 12 13 12 11 10 9 8 6 8 8 7 7 7 6 6 6 5 6 5 5
5 4 4 6 5 6 7 5 4 3 4 4 2 3 3 3 4 7 8 8 7 8 9 9 9 9 9 10 9 9 8 8 4 3 3 4 7 8 7 6 5 5 5 4 6 6 5 5 5 5 5 5 6 6
4 3 4 6 5 5 5 5 5 3 6 7 6 7 7 7 7 6 5 4 6 8 8 7 5 5 5 6 6 7 8 8 9 9 4 5 4 3 4 4 4 5 4 4 4 4 6 3 3 3 5 5 6 7
3 3 5 5 4 5 5 6 9 10 7 7 7 7 5 3 4 6 6 6 6 6 6 6 5 5 4 4 4 3 6 5 6 8 8 5 4 4 3 3 3 3 4 4 4 4 5 5 5 5 5 6 6 8
4 4 4 4 4 3 3 2 2 3 2 3 3 3 3 4 3 4 3 2 3 4 5 4 3 6 4 4 5 6 7 5 4 4 4 3 3 3 3 3 3 3 3 3 4 4 5 5 6 7 7 8 9 10
7 7 7 5 4 3 2 2 2 2 2 2 2 2 3 3 3 4 2 1 5 5 6 5 6 4 5 4 4 3 4 1 2 1 0 2 4 2 1 2 3 3 5 4 5 5 6 6 7 8 9 10 11 12

GFSWCAN_925_spd_069.txt.gz
Wind_Speed
37 36 38 29 28 30 31 34 39 41 42 43 43 44 49 50 45 42 16 36 15 7 4 4 5 8 11 14 12 3 4 4 2 5 6 4 4 6 4 4 7 5 5 3 3 5 13 6 3 7 6 8 6 3
34 34 27 23 22 23 23 28 34 47 48 44 45 42 46 48 45 41 9 36 32 3 4 5 7 6 4 1 4 8 5 3 3 4 5 4 3 1 6 3 4 5 6 5 7 4 6 7 5 3 1 1 4 2
32 33 19 21 17 16 19 16 13 25 47 44 41 46 47 44 46 32 21 28 13 3 3 2 2 3 6 10 11 7 3 7 6 5 2 4 4 3 5 9 5 5 4 4 1 5 2 7 11 13 6 3 4 3
30 30 16 15 13 15 15 19 22 27 34 37 41 44 44 46 50 31 24 30 14 2 3 1 6 2 5 13 12 3 5 8 6 3 3 4 4 4 4 5 5 5 9 7 3 3 5 3 8 12 12 8 8 8
29 22 16 15 13 16 17 20 22 23 33 39 44 45 45 50 41 30 23 28 14 1 3 2 6 3 22 4 7 12 6 4 3 2 2 4 3 2 2 1 4 4 6 5 5 9 8 8 14 8 7 15 6 4
30 21 17 20 18 21 22 27 34 42 44 48 46 51 46 39 38 23 3 17 14 9 3 2 1 4 4 2 5 6 4 3 3 3 3 3 6 4 1 3 3 1 1 5 3 2 7 6 10 8 5 3 6 8
25 33 27 21 30 30 32 33 37 42 47 49 49 43 33 30 26 2 4 14 15 9 3 2 2 2 7 3 2 3 3 1 2 3 2 1 7 2 2 2 3 4 5 6 5 7 4 1 4 6 6 6 6 6
21 26 30 21 31 43 46 43 35 37 45 48 47 37 29 24 15 10 21 23 15 8 2 2 0 3 3 2 2 3 3 2 0 3 0 2 4 2 1 4 5 11 11 9 9 4 4 5 7 6 7 7 8 7
23 30 35 40 42 46 50 49 48 46 44 44 37 28 19 12 4 5 20 19 13 2 2 2 3 2 3 1 1 0 3 2 2 3 2 1 3 1 8 12 14 15 11 10 8 11 10 10 7 8 9 8 9 8
28 27 36 39 42 43 42 41 38 32 26 22 15 4 3 5 11 12 7 3 4 2 2 1 1 3 2 2 2 2 1 3 3 5 4 2 2 8 12 11 12 14 15 16 8 6 7 6 9 9 12 11 13 13
27 30 33 34 28 21 18 14 9 6 5 4 3 4 7 3 3 3 2 3 2 1 1 2 2 3 3 3 1 1 1 2 3 3 6 4 2 5 11 11 11 13 11 12 10 12 13 10 9 10 12 13 14 15
26 30 23 18 17 18 23 30 26 17 7 8 14 8 3 3 3 5 1 2 1 1 0 2 3 3 0 1 2 2 2 1 2 1 4 3 3 8 9 10 11 11 10 11 12 13 14 16 13 13 13 13 16 21
23 19 15 18 20 19 18 20 19 11 6 4 4 4 3 4 6 4 2 3 3 5 5 3 2 1 2 2 2 1 2 3 2 2 3 4 6 8 8 8 10 10 10 12 14 16 19 19 22 20 15 21 25 25
17 13 14 16 17 14 16 17 14 9 9 4 4 6 4 5 4 3 3 3 3 3 6 4 1 1 1 1 1 1 1 2 3 4 3 4 6 6 7 8 9 11 12 12 13 13 15 17 19 25 25 24 27 25
14 13 15 17 14 12 13 15 15 11 7 4 5 5 5 3 5 3 3 3 3 4 3 2 2 1 2 1 3 3 4 5 5 3 3 5 8 8 9 9 10 10 10 10 12 13 17 22 24 25 28 29 30 29
9 8 15 18 18 10 7 10 16 7 4 4 7 4 5 4 4 4 4 3 3 5 2 2 0 2 4 3 4 6 3 5 3 3 5 6 9 9 10 11 10 12 14 15 19 22 24 24 24 26 30 30 29 29
8 4 7 8 12 17 6 5 7 6 4 5 3 3 3 2 3 4 4 5 4 3 3 3 5 4 3 4 4 4 3 3 4 6 7 10 10 11 11 12 15 18 18 20 22 23 24 25 27 28 21 25 28 28
3 4 9 13 5 6 11 8 4 4 6 4 3 3 4 2 4 4 5 5 4 2 2 3 3 6 5 3 3 2 4 5 6 6 7 9 12 17 18 14 20 20 20 21 21 22 22 23 21 19 22 22 24 23
6 4 10 11 6 4 3 5 5 4 4 2 2 3 3 3 6 5 5 7 4 5 3 3 6 4 3 3 4 5 3 4 5 6 7 15 17 18 20 23 23 23 24 24 24 22 25 27 23 22 22 20 19 19
5 4 9 11 5 4 4 3 5 4 3 3 2 6 5 5 6 7 9 8 8 4 6 5 4 3 3 4 5 4 5 6 5 7 8 8 17 22 20 18 17 20 22 24 25 23 22 23 24 23 22 22 22 20
1 6 9 6 4 8 3 3 3 3 4 2 3 1 3 7 12 12 11 8 6 4 4 5 6 6 11 12 15 16 16 16 8 7 7 8 16 19 20 21 22 22 20 18 17 20 21 19 18 21 23 23 21 22
3 7 5 6 4 4 4 8 3 3 3 5 4 2 3 3 3 6 8 9 5 5 4 6 6 6 8 10 14 18 19 22 21 20 20 18 8 11 14 16 17 16 18 17 17 17 18 18 19 17 20 22 22 21
4 6 6 7 6 6 2 5 4 4 3 2 3 4 3 3 3 3 3 5 4 5 10 11 15 15 13 15 18 20 19 18 15 15 15 16 17 17 17 17 16 15 14 16 16 16 17 18 19 20 19 18 19 20
6 5 5 4 5 3 3 4 3 3 4 4 4 4 3 2 3 3 4 2 4 9 5 8 11 7 12 14 9 14 14 13 14 15 14 14 13 15 17 18 18 17 16 16 17 17 17 17 15 17 18 19 19 18
6 8 5 5 4 5 4 4 4 4 4 5 4 4 2 3 3 3 2 2 4 4 4 11 10 8 6 6 11 13 15 13 11 11 16 9 14 15 15 17 18 20 17 16 17 16 17 15 16 17 16 18 16 16
7 6 5 5 4 4 3 3 3 4 3 3 3 1 3 3 4 4 2 2 3 4 5 4 5 5 7 11 7 10 12 12 14 14 15 17 17 12 11 10 10 14 15 15 14 15 14 15 15 15 14 13 12 10
5 5 4 4 3 3 4 4 4 4 5 4 2 4 3 4 3 2 2 5 2 10 13 14 12 11 10 12 12 12 14 14 15 15 14 16 17 14 13 13 10 9 9 9 12 13 12 10 11 12 10 9 9 8
4 4 5 4 5 6 4 4 5 4 3 4 3 5 3 3 2 2 2 10 12 12 13 14 15 17 17 15 11 9 10 12 13 17 19 18 16 15 15 12 9 9 8 7 5 5 6 8 8 7 8 7 6 4
4 2 4 6 5 5 6 4 3 2 3 2 2 3 2 3 3 5 9 10 11 11 11 11 11 11 12 11 9 8 10 10 4 1 5 3 8 10 7 7 5 9 6 6 9 10 9 8 7 5 5 5 5 4
2 2 4 5 5 4 3 3 3 1 4 4 4 3 2 3 12 8 6 7 10 11 11 11 10 10 11 10 9 11 10 9 11 10 7 4 6 5 4 4 5 5 4 3 5 3 2 2 2 1 2 4 7 8
3 3 4 4 4 1 2 3 9 11 4 4 5 4 3 2 4 9 10 8 9 10 9 10 12 8 8 9 7 9 6 7 8 10 10 7 4 3 2 2 2 3 3 2 3 4 5 3 4 5 5 6 6 7
3 3 4 4 2 2 3 3 2 3 3 2 1 2 1 2 2 2 2 1 2 7 8 10 11 9 5 6 7 6 6 7 6 5 5 4 3 3 3 2 2 2 4 1 2 3 4 5 5 7 7 9 10 12
3 4 3 4 3 3 1 2 2 1 2 2 2 1 1 2 3 2 3 4 10 12 12 10 7 6 8 6 4 5 3 1 1 1 1 1 3 1 5 3 3 5 3 2 3 4 5 6 8 9 10 10 12 13

GFSWCAN_925_spd_072.txt.gz
Wind_Speed
35 37 38 38 32 30 30 30 31 35 39 44 41 43 45 46 46 42 15 33 14 1 5 21 9 12 9 9 4 4 1 2 2 6 6 4 4 6 4 4 6 10 6 3 1 2 4 5 5 6 4 6 5 5
34 38 38 30 27 26 25 27 31 29 37 43 42 43 44 45 45 42 8 33 30 3 4 4 14 26 29 15 9 5 5 5 5 4 1 3 1 1 5 6 2 3 6 6 8 6 4 2 4 5 2 3 6 5
35 34 28 23 20 20 19 22 27 27 33 46 43 44 44 44 46 41 16 27 20 9 4 3 6 10 14 15 18 6 2 4 1 3 4 2 3 4 3 7 3 3 4 3 2 4 5 2 2 1 2 5 9 7
35 26 22 20 17 16 16 23 21 11 39 44 44 43 43 45 45 35 26 27 22 4 3 3 9 8 8 8 6 6 5 5 4 3 3 3 3 2 5 5 6 6 4 5 3 1 0 0 5 5 4 5 9 7
30 25 22 19 20 17 14 12 24 36 42 42 43 43 42 43 45 31 23 28 24 4 3 4 5 3 8 10 8 8 6 5 3 2 2 3 1 2 3 2 4 4 5 5 5 8 6 7 10 8 6 5 2 6
27 23 15 19 22 25 21 26 27 28 30 36 38 39 44 47 38 29 4 19 24 21 2 3 1 3 8 10 6 3 1 2 3 4 2 2 3 2 1 4 5 4 1 5 3 3 8 6 7 7 7 3 1 2
20 17 19 21 24 28 32 31 33 37 38 43 47 45 45 45 15 2 4 17 31 13 3 3 3 3 8 3 1 2 1 1 3 4 3 3 2 5 3 6 13 13 8 8 7 5 3 2 4 6 8 4 5 7
31 28 34 27 28 33 40 42 48 48 47 40 42 43 41 22 12 5 20 21 10 7 3 3 2 3 4 3 2 1 2 3 3 3 2 3 2 1 2 8 13 12 10 11 15 10 4 5 7 6 4 5 11 10
40 43 42 42 37 30 35 42 43 42 42 38 33 36 26 3 3 6 22 15 6 4 3 3 3 3 2 2 2 3 2 1 1 2 2 3 3 2 5 9 13 13 9 11 10 11 12 11 9 8 8 10 13 10
33 32 31 30 28 30 33 32 30 27 25 17 14 4 3 4 19 14 6 3 4 3 3 2 0 3 2 1 1 2 2 2 2 4 3 3 3 5 8 9 12 13 11 13 6 7 8 5 8 10 11 10 11 11
24 25 23 21 25 29 16 12 16 19 5 3 3 3 6 2 3 2 2 3 1 3 3 1 3 3 3 3 3 1 1 1 2 4 5 3 3 4 9 8 11 12 11 9 8 8 9 9 8 9 11 13 12 13
17 22 21 22 27 27 25 23 15 10 5 7 12 6 3 4 3 6 2 3 5 3 4 2 2 3 1 1 2 1 3 3 3 1 3 3 4 9 10 11 13 12 10 10 11 12 13 13 12 12 12 13 16 21
14 19 20 22 24 22 19 16 14 10 7 4 4 4 3 4 10 5 4 3 3 4 5 4 2 2 2 3 2 1 0 2 2 3 3 3 6 6 7 7 8 9 10 13 15 18 20 19 21 19 14 21 25 26
13 18 21 22 21 22 21 14 12 7 10 4 5 7 4 5 4 4 3 2 2 3 5 2 2 2 1 3 0 2 1 3 4 3 3 4 7 7 6 6 7 10 12 14 15 15 16 18 20 25 24 24 27 27
14 19 20 25 21 16 18 12 16 13 7 5 5 6 5 3 3 3 3 3 3 4 3 1 2 1 2 3 4 4 5 4 5 3 3 4 7 8 8 9 10 10 11 12 13 14 17 22 23 25 27 28 29 30
12 6 19 21 20 11 9 13 20 7 4 4 7 4 3 3 5 4 5 4 4 5 2 1 2 3 4 3 5 5 3 4 2 2 4 6 10 10 9 9 9 11 13 15 19 22 23 25 24 26 29 29 29 29
9 6 16 16 14 19 9 7 8 6 4 5 3 3 1 2 2 3 3 5 5 3 2 3 5 4 3 3 3 4 3 2 3 4 5 8 8 7 8 8 12 16 18 18 23 24 25 25 26 27 21 24 27 28
5 9 15 14 7 4 9 8 4 5 7 3 3 4 2 2 3 3 5 5 5 2 3 3 3 6 4 3 3 2 3 5 6 6 6 8 9 13 15 13 18 20 20 24 24 24 22 20 20 19 21 22 24 24
5 11 14 12 11 5 4 6 6 5 5 3 3 3 2 2 6 5 5 6 6 7 3 3 6 4 3 3 2 3 5 4 5 6 8 16 17 17 18 21 22 23 24 23 23 21 22 23 20 19 18 19 19 19
1 6 10 9 6 4 4 3 6 5 3 3 3 7 5 4 5 6 8 8 7 4 6 5 3 3 2 3 3 2 5 5 6 7 7 7 15 20 20 17 17 19 21 22 24 21 19 19 21 21 21 20 20 18
4 8 8 6 6 10 4 2 4 3 4 2 3 2 3 5 11 11 9 7 7 4 4 4 3 4 9 10 12 13 12 11 6 5 5 6 11 15 16 17 18 19 18 17 15 16 18 16 15 18 21 22 22 23
4 5 3 6 5 5 4 8 4 4 3 3 2 2 3 3 3 5 5 7 5 5 3 3 4 5 6 8 12 15 15 19 18 17 15 13 6 9 12 14 15 15 16 15 14 14 15 15 17 21 23 21 21 21
2 3 5 6 6 5 2 4 4 3 3 2 3 4 3 3 2 3 3 5 3 5 7 8 12 15 13 15 17 20 17 16 14 14 14 15 16 16 16 15 14 13 13 14 14 16 17 18 19 20 21 21 21 21
5 5 4 4 4 2 3 4 3 3 4 3 3 3 3 2 2 4 4 3 3 5 4 7 9 5 9 13 8 12 13 12 14 13 12 12 12 13 15 15 15 15 14 15 17 18 17 19 20 19 19 20 19 18
6 8 5 6 4 5 5 4 4 4 4 4 4 3 2 3 3 3 2 1 3 2 3 8 9 8 5 5 10 12 12 10 10 10 11 10 13 13 14 16 18 16 13 17 17 17 17 17 18 18 18 16 16 15
7 5 4 3 3 4 3 3 3 2 3 3 2 1 3 3 4 3 2 1 1 2 1 3 5 4 5 7 5 7 8 8 12 12 10 9 9 12 10 8 9 12 11 11 14 16 15 14 13 14 14 12 12 13
5 4 3 4 2 3 4 4 4 5 5 4 3 3 4 4 2 1 2 3 2 6 11 11 10 9 8 9 9 10 10 11 14 15 14 14 12 10 11 15 12 8 7 8 9 9 13 13 11 10 10 9 7 5
3 4 5 5 5 4 5 4 4 3 2 3 3 5 4 4 1 1 2 10 13 13 15 15 15 15 14 12 12 13 14 17 19 19 20 17 15 13 11 11 11 8 8 6 6 6 7 8 9 9 7 6 6 4
4 2 4 6 5 5 5 3 2 1 2 1 3 2 1 2 1 4 11 12 11 13 14 14 14 14 13 12 11 9 12 13 11 2 3 1 4 6 7 6 8 7 7 8 9 10 7 6 6 4 3 2 4 4
2 2 4 4 5 4 3 2 1 2 4 4 4 3 3 4 11 8 12 12 11 10 9 10 11 9 10 11 11 9 8 6 2 10 6 5 7 8 4 4 4 5 4 2 3 2 1 2 2 2 2 2 3 4
3 3 5 4 4 2 2 0 10 10 4 3 4 4 3 2 4 10 11 11 12 12 13 13 12 9 8 8 6 7 6 6 6 6 8 9 7 4 3 2 3 2 1 0 0 2 3 1 1 1 2 4 5 7
3 3 5 4 1 2 3 1 1 3 2 3 2 3 3 3 2 2 5 2 2 6 9 8 8 5 3 4 4 3 4 8 6 5 4 3 2 2 2 3 2 1 2 2 3 1 2 3 3 5 6 8 7 8
4 4 4 4 3 1 3 3 3 2 3 2 1 2 2 3 2 2 1 4 2 10 10 8 5 4 5 4 4 6 5 3 2 2 2 1 0 1 5 5 4 5 5 4 4 4 3 4 5 6 7 9 10 11

GFSWCAN_925_spd_075.txt.gz
Wind_Speed
32 34 37 41 38 37 36 33 34 32 34 36 39 44 43 45 46 41 26 31 8 1 2 6 15 12 10 13 7 5 4 2 3 7 3 4 3 6 2 3 1 4 5 3 3 3 6 4 1 5 4 3 2 6
32 38 40 33 28 27 29 28 30 30 31 34 37 42 45 44 48 44 12 30 21 3 1 5 18 31 31 24 12 8 8 6 6 4 3 2 1 1 5 3 2 3 6 4 6 5 5 4 2 2 2 2 4 0
33 35 32 28 27 26 26 28 29 29 30 34 37 38 46 44 48 45 18 30 13 2 3 2 6 22 36 25 23 5 2 4 3 4 4 3 3 4 3 4 4 4 2 2 3 5 9 7 3 6 7 6 5 4
31 30 27 23 23 21 19 18 27 36 40 33 35 42 43 46 47 40 29 30 15 3 2 4 15 6 27 31 26 15 5 4 4 2 3 3 3 4 3 4 4 5 1 3 4 7 6 6 8 7 10 8 4 4
28 22 21 20 21 16 14 13 13 5 30 34 41 44 43 44 44 34 26 33 22 5 5 2 5 4 5 19 19 19 7 4 3 2 2 3 2 2 0 1 1 3 6 2 7 9 6 7 8 7 4 3 4 2
15 17 19 22 19 19 17 21 25 33 43 45 43 42 42 43 43 29 4 23 31 6 2 4 2 3 1 16 8 6 4 2 3 4 3 2 2 3 2 4 2 4 6 7 7 17 7 10 7 4 4 3 3 5
21 21 26 24 22 24 25 22 27 33 40 41 41 41 44 43 36 6 4 6 36 10 2 1 3 1 3 4 2 2 2 3 2 2 2 3 2 3 3 3 5 8 9 13 10 17 7 1 3 1 7 8 11 10
38 35 25 32 35 36 35 29 30 37 40 40 41 43 36 32 20 4 6 32 28 6 3 2 3 3 1 2 2 1 2 2 2 1 1 3 1 2 1 8 11 13 12 6 16 17 16 4 10 9 8 8 12 11
32 30 29 28 34 37 40 40 31 36 36 42 41 32 19 2 2 7 32 29 21 7 3 3 3 3 2 2 3 3 1 2 1 2 2 3 2 1 5 8 8 10 10 13 17 12 11 12 10 12 11 12 12 10
27 28 25 22 23 29 28 37 37 33 33 26 11 3 3 2 25 15 8 3 1 3 3 3 2 3 3 1 2 2 1 2 2 3 2 3 3 7 10 9 8 10 9 12 12 8 12 10 11 12 14 11 12 10
26 27 27 23 15 15 19 23 19 15 10 1 3 3 12 5 2 3 3 3 1 4 4 1 3 4 4 3 2 1 2 2 2 3 4 2 3 6 10 9 9 9 8 7 5 5 7 10 8 9 12 13 12 14
22 24 25 27 24 15 7 9 6 4 5 8 10 6 4 3 3 6 2 3 5 3 3 3 3 3 2 1 2 1 2 2 3 2 3 3 3 6 9 10 11 9 9 8 8 10 12 13 11 11 13 14 17 22
22 26 24 23 23 21 15 12 8 5 3 4 4 5 4 5 12 6 5 3 3 4 5 4 3 2 2 3 2 2 2 1 3 3 3 2 4 5 7 7 8 9 8 10 11 15 19 17 18 18 14 20 23 24
20 25 26 22 22 24 17 10 7 5 9 5 5 8 4 5 4 3 3 2 2 2 4 2 1 1 1 2 1 2 3 4 3 3 2 3 6 7 8 7 7 9 9 11 12 13 13 17 18 22 23 23 26 25
12 21 28 28 19 17 21 12 18 14 7 5 5 6 5 2 2 3 4 2 3 4 2 0 0 1 4 4 3 4 5 4 4 2 2 3 6 6 6 7 8 8 8 10 11 11 16 21 22 23 25 27 29 29
12 7 25 21 22 13 10 16 23 8 4 4 7 4 3 3 5 4 5 4 3 5 2 1 3 4 5 3 5 5 3 3 2 2 4 4 6 6 8 9 9 11 12 14 17 18 21 23 23 25 29 29 28 29
13 8 19 14 17 25 12 8 8 6 4 5 3 2 1 1 2 3 4 6 5 3 3 3 5 4 3 3 4 4 3 2 3 4 5 8 9 8 9 9 12 13 15 18 19 20 22 23 26 27 21 24 28 28
8 14 16 14 5 7 17 9 4 5 7 4 3 5 2 1 4 3 5 7 4 3 3 4 3 6 4 3 2 1 3 4 5 5 6 7 9 14 15 12 18 20 20 20 19 20 20 21 20 18 22 21 24 24
8 13 12 9 7 5 4 6 6 5 5 2 2 3 2 1 6 4 5 6 6 6 4 3 5 3 2 2 2 2 2 2 3 4 6 13 14 15 17 19 20 20 20 18 18 17 19 20 18 18 18 18 20 19
7 10 12 12 4 4 5 3 6 5 3 2 1 7 4 3 4 4 7 7 6 4 6 4 3 2 2 2 2 1 3 2 5 6 6 6 11 15 16 14 14 15 16 17 18 17 17 18 20 19 19 19 20 17
5 9 11 8 7 11 4 3 4 3 4 2 2 1 2 4 9 7 6 6 6 4 3 3 2 4 8 10 11 11 10 9 5 3 3 4 9 12 14 15 16 16 15 13 13 15 17 15 15 18 23 22 23 22
6 7 5 9 5 5 4 7 5 4 3 3 2 2 3 3 3 5 3 7 4 4 3 2 4 4 6 8 11 15 14 17 16 15 14 12 5 8 10 12 13 13 14 13 12 12 13 14 18 20 22 21 20 20
4 5 5 7 6 5 0 2 4 2 3 1 2 3 3 3 2 3 4 4 3 5 7 6 9 13 12 14 16 19 17 15 13 12 13 14 15 15 15 15 13 12 11 12 12 15 15 16 17 20 21 21 22 21
6 5 5 4 5 2 2 4 3 3 3 3 3 3 3 2 2 3 3 2 2 4 4 5 6 5 8 12 7 11 12 12 13 14 12 11 11 12 12 13 13 13 12 12 14 15 16 16 16 17 18 20 19 19
6 7 5 6 4 5 5 4 4 4 4 3 3 3 3 3 3 3 2 1 2 2 2 8 9 7 4 3 7 9 9 9 9 9 11 10 11 11 11 13 13 11 11 15 15 16 16 16 15 16 15 15 15 14
7 5 4 3 3 4 2 3 3 2 3 3 3 2 3 3 4 3 1 1 0 1 1 2 3 3 4 6 4 5 6 6 8 8 6 5 6 10 9 7 7 8 8 9 13 15 14 14 14 14 12 10 9 9
5 3 3 4 2 4 4 4 4 5 4 3 2 3 3 4 1 0 1 3 2 4 7 6 7 7 6 7 8 8 7 6 9 11 10 11 9 7 6 10 9 6 6 6 5 7 10 10 10 9 10 9 7 4
3 4 5 5 5 4 4 3 4 3 1 2 3 4 4 4 2 1 1 6 12 11 12 12 11 12 13 12 11 13 15 16 18 17 16 15 13 11 10 10 8 6 6 5 5 6 6 6 7 7 5 4 2 1
4 2 4 6 5 5 5 3 1 2 2 2 4 2 2 2 1 2 7 10 11 13 14 14 12 11 11 9 7 8 11 9 5 4 3 1 0 3 4 4 6 6 7 8 8 6 4 4 3 2 2 2 1 2
2 2 4 4 5 5 3 2 1 2 3 3 3 3 3 5 7 7 11 10 11 12 12 11 12 7 8 7 9 7 4 4 9 11 5 5 7 8 5 3 3 3 3 2 3 2 3 4 5 5 4 4 4 4
2 3 5 4 4 1 2 1 3 6 3 4 3 4 2 0 5 11 6 8 9 9 11 10 8 6 4 5 4 5 2 2 4 4 4 6 7 5 4 3 4 3 2 1 2 2 2 4 5 5 5 5 5 7
4 4 4 4 1 2 2 3 2 3 3 3 2 2 3 3 2 3 4 5 8 8 6 8 7 4 2 1 1 1 0 5 5 4 3 2 1 1 2 3 3 3 3 4 5 5 4 3 3 4 5 6 7 8
3 4 4 4 3 1 2 3 4 2 4 2 2 1 2 3 3 3 1 1 4 5 7 6 4 4 6 6 6 6 5 3 2 2 1 1 2 2 3 5 5 6 6 6 6 6 7 7 7 7 8 9 11 11

GFSWCAN_925_spd_078.txt.gz
Wind_Speed
28 31 32 35 37 40 36 36 38 39 38 41 40 42 42 41 40 36 23 27 16 1 2 5 10 12 6 11 6 5 4 1 3 5 2 3 3 5 4 5 0 5 5 4 3 2 6 3 3 4 5 3 1 4
31 32 34 33 35 34 33 30 32 33 36 35 37 39 43 44 43 42 11 29 29 2 1 4 8 10 32 25 11 11 7 6 6 4 4 2 2 1 4 3 2 3 5 2 6 5 4 4 5 3 3 5 4 6
33 33 32 31 28 30 30 32 29 31 34 35 35 35 39 43 44 46 16 28 15 3 1 1 4 17 25 27 20 5 2 5 4 5 4 4 3 4 4 4 3 5 0 2 2 3 4 7 7 4 2 8 7 5
32 29 23 26 27 23 22 22 27 28 35 37 34 34 38 38 47 45 25 27 18 3 2 4 11 19 24 24 27 14 4 5 4 2 2 3 3 4 4 4 5 5 3 4 5 5 10 8 7 8 9 6 7 7
15 18 20 20 21 18 16 19 20 25 33 38 35 33 36 43 41 34 25 30 23 4 5 3 2 7 20 24 23 15 6 3 2 2 2 3 2 3 0 2 1 2 5 3 4 3 2 10 14 11 8 8 7 5
18 19 19 20 19 16 15 16 18 10 31 40 35 39 35 37 40 31 3 24 32 3 2 2 2 3 3 18 18 13 8 2 3 3 3 2 2 3 3 3 3 5 6 4 4 7 6 18 19 15 11 4 4 9
19 23 26 25 23 20 19 26 27 30 32 30 32 38 46 46 38 7 3 14 28 6 3 3 3 2 8 4 2 3 3 2 2 1 1 3 2 3 3 2 3 7 8 8 4 11 6 7 11 16 7 7 11 14
21 21 28 31 26 24 27 29 32 36 38 40 43 48 46 35 21 3 2 28 31 8 2 3 3 3 5 3 3 2 2 2 2 3 0 2 1 1 2 7 9 11 13 4 11 11 5 6 10 13 10 7 12 13
21 18 22 31 28 30 31 39 42 40 44 44 42 33 21 6 3 6 29 28 15 4 3 1 0 3 3 2 3 3 2 2 2 2 2 2 2 3 6 9 10 10 10 13 14 5 10 10 11 12 10 12 11 10
24 18 16 20 27 28 31 35 37 32 30 28 18 4 3 2 23 28 6 2 2 1 2 2 2 3 3 2 2 2 2 2 3 3 2 3 3 6 10 8 9 10 11 11 12 7 9 9 9 10 12 10 11 11
23 22 14 14 19 22 23 20 17 17 11 5 2 2 15 22 4 2 3 2 3 3 0 2 5 4 5 3 3 1 2 1 2 2 2 2 3 6 9 9 9 10 10 9 8 6 5 6 5 6 11 11 12 14
22 20 21 17 10 3 5 9 8 9 4 3 10 6 4 4 2 4 1 2 4 3 3 3 3 2 2 1 3 1 2 1 2 2 3 2 3 6 8 9 10 10 9 9 10 10 8 10 6 7 11 11 16 20
23 21 19 21 17 12 11 3 9 7 7 3 4 5 4 5 11 6 5 3 2 4 4 3 3 2 3 3 3 2 2 2 3 3 3 2 4 7 8 8 9 9 10 9 10 13 16 15 11 12 12 18 21 23
21 23 23 18 19 14 11 5 3 5 8 4 4 7 4 4 4 3 3 2 2 2 4 2 2 2 1 3 2 3 2 3 3 3 2 3 6 5 5 6 7 9 10 11 10 12 13 14 15 18 22 21 23 24
9 22 26 29 17 14 18 15 13 13 7 5 5 6 5 3 2 3 4 2 4 4 3 0 3 3 4 4 4 3 5 4 4 2 2 4 7 8 7 8 8 9 8 10 12 11 14 17 19 22 25 25 27 29
6 8 22 23 21 10 7 15 21 7 4 4 7 4 3 2 5 4 5 4 4 5 2 3 4 4 5 3 5 5 3 3 1 2 3 4 7 7 8 8 9 11 12 14 16 18 20 21 22 23 26 26 26 28
13 8 16 9 21 23 11 8 9 6 4 5 3 2 1 1 2 3 3 5 5 2 3 3 5 2 2 4 3 4 2 1 2 3 4 6 7 7 8 10 13 14 14 17 18 20 20 22 24 24 19 22 25 27
6 14 12 10 4 5 14 10 4 5 7 4 3 4 3 1 3 3 6 7 4 3 3 3 3 5 4 3 2 2 2 3 4 4 5 5 7 10 12 10 14 15 16 17 17 19 20 20 20 16 19 19 22 23
8 14 11 8 7 6 4 5 6 4 4 2 2 2 2 2 4 4 5 6 5 6 4 3 5 3 2 2 2 3 2 2 2 3 5 11 12 11 13 15 16 17 18 17 17 17 20 22 19 17 17 17 17 16
3 13 14 9 5 4 5 3 5 5 3 2 1 3 2 1 3 3 7 6 5 3 6 5 3 2 2 2 1 2 2 3 3 4 4 6 11 14 15 13 12 13 15 17 18 17 17 18 19 17 16 15 15 15
4 9 10 11 7 11 4 3 4 3 4 2 2 1 2 2 5 5 5 6 6 4 4 3 2 3 7 9 11 10 9 7 3 2 2 4 10 12 13 14 14 15 14 13 12 14 16 14 13 15 20 19 18 18
6 6 5 8 5 4 4 7 5 3 3 3 2 2 3 3 3 5 3 7 4 3 3 2 3 3 6 6 9 13 13 15 15 15 14 11 5 7 9 11 11 11 13 12 12 12 12 11 15 17 19 18 19 20
4 5 6 8 6 5 1 1 4 3 3 2 2 3 3 3 2 3 3 3 2 4 6 5 8 12 11 12 14 16 15 14 12 11 12 13 13 12 12 12 11 10 10 10 10 13 15 14 16 18 18 19 20 20
6 5 5 4 5 2 2 5 3 3 4 3 3 3 3 2 2 4 3 2 1 3 3 5 5 3 7 11 6 10 11 11 12 12 10 9 9 10 10 10 11 11 9 9 12 14 15 16 16 17 18 19 18 17
6 8 5 6 4 6 5 4 4 4 3 3 3 3 2 2 3 3 2 1 2 2 3 6 7 6 3 3 6 9 10 8 8 8 11 9 10 10 11 12 12 10 8 11 13 13 14 14 14 14 14 14 14 12
7 4 4 2 3 4 2 4 3 2 3 3 3 1 3 3 4 3 1 1 0 1 0 1 2 3 4 6 3 5 7 6 6 7 7 7 4 6 7 6 6 7 6 7 9 11 11 11 11 11 10 9 8 7
5 3 3 4 2 4 4 4 3 5 5 3 2 3 3 5 1 1 1 2 1 3 6 5 4 6 6 6 6 6 5 5 7 10 9 9 7 5 3 5 6 5 5 4 3 4 8 8 8 8 8 7 5 2
2 4 5 5 5 4 5 4 4 3 1 2 3 5 4 4 2 1 1 6 12 11 12 12 12 12 12 11 11 13 14 16 16 14 13 12 11 10 9 8 6 5 5 6 5 4 4 4 5 6 5 4 2 1
4 2 4 6 5 5 5 3 2 2 2 2 4 2 2 2 1 2 5 8 9 11 13 12 11 10 10 8 6 8 10 6 5 4 3 2 2 3 4 4 5 6 5 5 6 5 3 3 3 2 1 1 1 3
2 2 4 4 5 5 2 1 1 2 3 3 3 3 2 4 6 6 8 6 7 7 8 8 8 3 4 3 5 4 2 4 6 7 3 3 3 6 5 3 2 2 2 1 1 2 2 4 4 4 4 5 6 7
2 3 5 4 4 2 2 1 2 4 3 3 3 4 2 1 4 7 3 5 7 8 8 9 6 2 2 3 2 3 1 2 4 5 6 7 7 4 2 1 2 2 1 1 2 3 3 4 5 6 6 7 8 9
3 4 4 5 2 1 2 2 1 3 3 3 2 2 3 3 1 3 3 5 6 6 3 4 2 1 1 0 1 1 3 7 6 6 6 4 3 2 0 1 0 1 3 4 4 4 5 5 5 5 7 8 10 10
3 3 4 4 3 2 2 4 5 3 4 3 2 1 1 3 3 3 1 1 4 4 4 5 4 5 6 7 7 7 6 4 4 4 3 3 2 2 2 2 3 5 6 7 6 6 6 7 8 10 10 11 12 14

GFSWCAN_925_spd_081.txt.gz
Wind_Speed
32 32 32 35 35 35 35 36 36 34 31 37 36 36 37 35 35 35 22 21 10 1 3 8 11 10 8 11 6 6 4 4 4 6 4 4 3 5 4 6 1 5 8 5 6 5 5 4 4 3 3 4 2 1
35 35 35 37 36 37 37 35 34 33 32 34 34 37 39 39 38 38 11 27 24 2 2 4 5 8 31 25 9 11 7 6 6 3 4 3 3 2 3 3 1 3 4 3 6 5 2 3 6 5 2 6 3 2
36 33 31 26 27 28 30 30 33 34 33 33 33 38 39 41 43 42 20 27 16 3 2 1 5 13 12 20 22 5 3 5 5 3 3 2 3 5 4 5 2 2 2 2 2 2 7 11 8 7 10 12 13 5
19 21 22 24 23 24 26 26 26 27 29 30 32 35 38 44 44 44 26 27 18 3 2 4 12 12 16 12 15 8 4 5 3 3 2 2 2 4 4 2 4 3 2 2 2 4 8 5 12 15 20 15 13 15
19 19 21 23 23 20 19 22 24 27 28 27 31 34 35 38 44 40 24 31 26 4 4 3 3 9 20 23 13 11 8 5 2 3 2 4 2 3 1 1 3 1 2 2 3 5 2 9 14 17 16 18 14 10
18 17 21 21 19 17 19 20 20 18 27 29 34 36 33 36 46 27 3 25 30 11 2 2 2 3 9 18 13 10 6 2 2 3 2 2 3 3 4 4 3 4 6 6 5 12 8 15 13 16 12 14 14 13
16 20 21 18 20 21 23 23 19 22 31 33 37 33 32 37 38 6 4 17 30 15 1 1 2 4 11 5 3 3 6 3 3 2 3 1 1 3 2 2 4 7 8 9 9 13 3 8 9 13 9 9 11 13
16 21 23 21 29 26 30 31 27 33 33 35 36 37 46 36 20 6 7 41 32 8 1 2 2 3 5 3 3 1 3 5 3 2 1 3 2 1 2 7 8 10 10 3 13 11 9 9 9 11 9 7 10 10
14 16 20 24 33 37 38 39 40 45 46 49 51 41 24 8 3 5 31 31 11 4 4 3 1 3 4 2 2 2 2 2 1 3 3 2 2 4 6 9 10 11 9 12 14 11 9 7 8 10 10 10 10 9
18 15 17 22 25 31 31 33 29 32 33 31 19 5 3 6 40 28 5 2 1 1 1 2 0 2 1 4 2 3 2 2 4 2 2 3 3 6 10 8 9 10 10 11 11 8 11 10 7 8 9 9 9 9
18 14 16 16 17 19 22 15 18 18 7 7 4 3 24 20 4 2 3 3 3 3 2 2 1 2 3 3 3 1 3 2 3 2 2 2 3 6 10 9 9 10 10 9 8 7 7 5 6 5 8 9 9 11
12 12 9 7 7 10 21 24 19 16 8 11 12 10 7 4 3 3 2 2 2 2 3 1 3 2 2 2 3 2 3 1 3 2 3 3 3 9 10 11 11 11 10 9 9 8 8 8 9 7 9 8 11 16
15 12 9 12 11 7 4 8 10 15 13 6 5 4 3 4 9 5 3 2 2 5 4 3 4 1 2 3 3 2 3 4 2 4 3 3 7 8 9 8 9 10 11 10 10 12 13 15 16 14 13 18 16 20
14 17 12 12 11 6 3 6 10 8 7 4 4 7 4 5 4 3 3 3 2 3 5 3 2 3 3 4 3 4 4 4 4 3 3 4 7 7 7 7 7 9 10 11 11 13 13 15 17 19 20 20 20 20
3 16 21 14 8 15 11 10 9 10 6 4 5 5 4 2 2 3 4 2 5 5 3 1 3 3 4 5 4 3 4 4 4 2 2 3 6 6 7 7 8 9 9 9 13 12 15 18 19 21 25 25 25 25
4 2 16 20 12 5 6 16 16 6 4 4 7 4 4 2 6 5 6 4 5 6 3 2 3 4 6 3 5 4 2 2 2 2 3 3 5 5 7 8 8 11 12 12 14 17 18 18 20 24 27 26 26 26
8 6 11 6 13 23 11 7 7 6 4 5 4 3 2 1 2 3 4 6 5 3 3 3 5 3 2 4 3 4 2 2 3 4 4 5 6 6 6 9 11 12 14 15 17 19 18 19 22 25 21 23 26 27
5 12 9 7 3 5 9 10 4 5 7 4 3 3 2 2 4 3 5 5 4 2 2 4 3 6 4 3 2 2 3 4 5 4 5 6 8 10 10 10 13 15 16 17 17 18 18 18 19 17 20 19 21 21
10 13 6 10 7 6 4 5 6 5 4 1 1 2 2 1 2 4 4 5 4 6 4 3 6 3 3 3 3 4 3 2 3 4 6 11 12 12 13 14 16 17 18 17 16 16 18 19 17 15 15 16 17 16
6 14 14 9 5 4 5 3 5 5 3 2 1 3 2 1 3 2 8 7 6 4 6 5 4 2 2 3 2 3 4 4 4 5 5 6 10 12 13 12 12 13 14 15 16 14 14 15 15 14 14 15 16 15
4 9 10 10 7 11 4 3 4 3 4 2 2 0 2 2 5 5 5 6 6 4 4 4 3 4 7 8 9 8 8 5 3 3 3 4 8 10 11 11 12 12 12 11 12 13 14 13 11 12 14 15 15 15
5 7 4 7 5 4 4 7 4 3 3 3 2 3 3 3 3 5 3 7 4 4 3 2 4 4 6 7 9 12 11 13 13 12 10 7 5 7 9 9 10 11 11 10 10 11 11 10 10 12 14 15 15 15
4 5 6 7 6 5 1 1 4 3 3 2 2 3 3 3 3 3 4 4 3 5 6 6 8 11 11 12 13 15 13 12 11 11 11 11 11 11 11 11 9 9 10 9 8 9 10 11 12 14 15 16 17 17
7 6 5 4 5 2 2 4 3 3 3 3 3 3 3 2 2 3 4 2 2 5 5 5 5 5 8 11 8 11 10 10 11 11 9 8 9 10 9 9 9 9 7 7 9 10 11 12 13 14 16 16 15 14
6 8 5 6 4 5 5 4 4 4 4 3 4 3 3 2 3 3 2 1 1 2 3 5 8 7 4 4 6 8 9 7 7 9 9 8 8 8 9 9 10 9 7 11 11 12 12 13 14 15 14 13 12 11
7 4 5 3 3 4 2 4 3 3 3 4 3 2 2 3 4 3 1 0 0 1 1 2 3 3 4 6 3 4 5 5 5 7 5 5 4 4 5 5 4 5 7 8 11 12 12 11 11 11 10 9 7 6
5 3 3 4 2 4 4 4 3 5 4 3 1 3 3 5 1 1 1 2 2 3 4 4 3 5 5 5 6 6 6 7 9 9 8 8 7 5 4 4 4 5 6 5 6 6 9 9 8 7 6 4 3 2
3 4 4 4 5 4 5 4 3 3 1 2 3 5 4 4 2 1 1 5 9 9 11 12 11 11 11 11 12 14 14 14 14 12 12 12 11 10 9 8 7 5 4 5 5 5 5 5 5 5 5 4 3 2
4 2 3 5 5 5 6 3 2 2 2 2 3 2 2 2 1 2 4 8 9 10 11 11 10 10 9 7 6 10 7 3 5 3 3 1 2 2 5 6 7 6 5 4 5 5 4 4 4 3 3 2 2 2
2 2 4 4 5 5 2 1 1 1 3 2 2 3 3 3 5 7 8 7 7 8 9 9 8 3 4 3 5 2 1 4 4 2 2 1 1 6 5 4 3 3 3 3 3 3 3 2 3 3 4 5 5 6
2 3 5 5 4 1 2 1 1 3 3 4 3 4 3 1 4 7 6 7 9 9 9 6 3 2 3 2 1 1 2 4 6 6 6 6 7 4 3 2 1 1 1 0 1 2 2 3 4 5 6 6 7 7
3 4 4 5 1 1 1 3 2 3 3 3 3 2 3 3 1 2 3 4 5 4 2 3 2 2 1 1 2 2 4 6 5 5 5 4 2 2 1 1 1 1 1 2 2 2 3 4 5 5 6 7 8 10
3 3 4 4 3 1 1 4 4 2 4 3 3 0 1 2 3 2 1 1 3 3 3 5 4 4 6 7 7 7 6 4 4 3 3 3 2 2 1 1 2 3 4 5 5 4 4 5 6 7 8 9 10 11

GFSWCAN_925_spd_084.txt.gz
Wind_Speed
33 33 35 36 34 33 32 33 34 33 32 32 33 32 32 31 31 32 15 27 4 3 8 14 20 21 15 14 9 7 5 4 3 7 6 5 5 8 7 8 4 7 9 8 10 6 8 13 2 6 1 15 8 5
32 32 29 24 29 32 33 34 35 34 35 36 33 32 39 35 34 38 9 23 23 1 1 3 7 21 28 22 11 12 8 8 7 7 6 4 5 3 9 4 3 6 6 3 5 5 5 10 8 8 11 11 11 12
32 28 27 26 24 27 26 28 30 31 33 32 33 33 34 38 37 40 19 27 12 2 3 2 6 11 11 13 25 9 10 8 7 5 3 4 5 6 7 9 6 3 4 4 3 8 5 8 8 11 13 14 14 13
30 25 24 25 25 25 23 24 26 28 30 33 35 35 37 40 40 42 23 26 16 3 3 2 11 9 12 14 17 19 8 11 5 3 2 3 4 5 6 9 6 4 1 3 5 6 11 4 13 16 17 17 17 16
25 24 24 24 19 20 21 22 24 25 26 27 29 35 36 39 42 41 26 31 22 5 4 5 4 18 16 15 18 13 10 8 6 4 4 5 5 3 3 3 8 4 5 4 3 4 6 10 17 16 16 17 16 14
19 21 19 20 18 20 23 23 22 24 27 29 29 31 34 43 42 28 3 25 28 10 2 5 3 7 17 18 18 13 10 6 3 3 3 4 4 4 3 5 6 5 6 7 4 11 12 11 10 17 15 13 12 10
15 19 17 19 22 24 16 18 14 10 29 30 30 33 37 42 37 8 4 18 33 17 2 2 3 7 15 13 10 9 11 4 4 2 4 4 3 3 3 2 7 8 8 6 8 11 5 11 9 13 14 11 7 8
9 14 24 24 27 36 19 23 26 30 33 34 33 33 34 36 25 5 5 41 31 7 2 2 2 4 12 5 6 6 6 5 5 2 2 4 2 3 2 5 8 10 10 4 12 10 8 9 10 11 10 9 5 7
10 11 19 23 27 32 35 32 40 44 45 48 50 43 26 8 3 7 33 32 15 3 4 3 3 3 7 2 2 2 2 3 1 4 4 1 2 3 5 7 9 11 9 11 13 9 9 9 9 10 10 9 5 6
9 11 13 16 18 24 28 37 41 43 41 31 12 5 3 8 42 32 5 2 2 1 1 3 2 3 5 3 3 3 2 3 4 3 3 3 3 8 8 8 8 10 10 10 10 8 11 9 8 7 7 7 6 5
13 9 13 14 12 16 15 17 12 7 4 5 3 4 20 18 3 2 3 3 3 3 4 3 5 2 2 4 3 3 3 3 4 3 2 3 3 5 7 8 8 9 9 8 7 7 7 6 5 4 6 7 8 9
10 11 10 13 19 20 14 15 13 15 9 12 14 10 6 5 3 2 3 3 2 2 1 1 2 2 3 3 2 3 2 2 3 2 3 3 4 7 8 8 8 8 9 8 8 6 7 7 5 6 6 8 13 15
11 9 7 4 2 3 8 13 16 16 15 8 6 5 5 5 5 2 3 3 2 4 3 1 3 3 3 2 2 2 2 4 3 3 3 3 5 7 8 7 7 9 9 8 8 9 10 12 13 13 13 15 18 20
13 9 6 10 9 5 12 7 7 6 10 5 4 5 4 3 3 3 2 2 3 3 6 4 3 3 2 3 3 4 3 1 3 3 3 3 6 6 7 6 7 8 9 9 9 11 13 14 16 18 18 17 20 21
4 18 14 7 13 13 12 9 7 10 6 4 4 5 4 2 3 4 4 2 4 5 5 1 3 4 5 5 4 3 3 4 4 3 3 4 5 5 6 7 7 7 7 8 10 12 14 16 18 19 20 21 23 23
4 1 10 14 4 11 14 14 10 5 4 4 6 3 4 2 5 4 7 4 6 6 3 2 3 4 6 3 4 5 2 3 3 3 3 3 5 6 7 8 8 10 12 12 14 15 16 17 18 21 22 22 23 22
4 2 4 2 14 10 5 6 6 6 5 5 4 5 3 2 4 5 6 7 6 4 3 3 5 6 2 4 4 4 3 5 4 4 5 6 7 7 7 9 11 12 14 15 16 17 18 17 18 21 21 21 22 22
4 6 3 5 8 5 6 8 5 5 7 5 4 5 6 5 5 6 6 8 5 3 3 4 3 5 5 3 3 4 4 5 5 5 5 6 8 9 9 10 12 13 14 15 16 16 16 16 17 17 17 16 18 18
9 5 6 7 4 6 4 5 6 5 6 3 3 3 3 3 7 6 7 6 8 8 4 3 6 4 4 4 5 5 4 3 5 5 6 9 9 10 11 12 13 13 13 13 13 13 15 14 13 12 12 12 14 13
8 13 11 6 4 4 5 4 5 5 3 3 3 5 3 3 4 6 9 8 8 4 6 5 5 4 4 5 4 5 5 4 4 5 5 5 7 8 9 9 10 10 11 12 13 11 12 13 13 12 11 12 12 12
4 6 8 7 6 10 4 3 4 4 5 3 3 2 4 6 9 7 7 7 7 5 4 5 5 5 8 8 8 7 6 4 3 3 4 5 7 7 8 8 8 8 9 9 10 11 11 11 10 10 11 12 12 12
3 5 3 6 4 4 4 7 5 4 3 4 3 3 3 3 4 7 5 8 5 5 3 4 5 4 6 8 10 11 9 11 11 11 9 7 5 6 7 7 7 9 9 9 9 9 9 9 9 10 11 12 12 12
4 4 5 5 5 5 4 1 3 3 3 3 2 3 3 3 3 3 4 4 3 5 6 7 9 10 11 10 12 12 10 10 10 10 9 9 9 8 8 8 7 7 8 8 7 8 9 8 9 10 10 10 11 11
6 6 5 4 5 4 2 3 3 3 3 3 3 3 3 3 2 4 4 3 3 4 4 4 5 5 8 9 7 10 9 8 9 9 7 6 7 8 7 7 7 7 6 6 7 8 8 8 8 9 9 9 9 8
5 7 5 7 3 4 4 3 3 3 4 3 3 3 3 2 3 3 3 3 3 3 3 5 6 5 4 4 6 8 8 6 6 7 8 7 6 5 6 7 7 7 5 5 6 7 8 8 8 8 8 7 8 7
7 8 5 4 3 3 3 4 3 3 3 3 4 2 1 3 4 4 2 3 3 2 2 3 3 3 4 5 3 4 5 5 4 6 5 5 4 2 2 2 3 5 5 5 6 7 7 7 7 7 7 7 6 5
5 5 4 4 2 5 5 4 4 5 4 3 2 2 2 4 3 2 3 3 3 4 3 3 3 4 5 6 6 6 7 7 7 7 5 5 5 5 3 2 3 3 3 4 4 5 6 6 6 5 5 4 3 2
4 5 4 4 5 5 4 4 4 3 3 2 2 4 3 2 3 3 2 5 6 7 8 9 9 8 9 9 9 9 9 8 8 7 7 8 7 7 7 6 6 5 4 4 4 5 4 5 5 5 4 3 3 2
4 3 3 5 5 6 6 4 3 3 2 1 3 3 3 3 2 5 7 7 6 7 7 8 7 7 6 5 5 5 3 4 3 1 1 1 2 2 3 5 4 4 4 4 4 4 3 3 3 3 2 2 2 1
3 3 4 5 5 6 5 4 4 3 4 4 4 4 5 4 5 5 6 6 5 5 6 6 5 2 3 2 3 2 3 3 2 1 2 1 2 4 3 2 2 3 3 3 3 3 3 1 1 1 2 2 3 4
2 2 5 5 5 5 5 3 4 6 3 5 6 6 6 3 4 5 4 4 6 7 6 4 3 2 3 2 1 2 2 4 5 5 5 5 5 3 2 1 1 1 1 1 0 1 2 2 3 3 4 5 5 5
3 4 5 5 4 3 0 2 2 3 3 3 3 2 2 3 3 3 2 4 4 4 3 3 2 2 2 2 2 3 5 6 5 4 4 3 2 1 1 0 1 1 0 1 1 2 2 3 3 4 5 6 6 7
4 5 5 5 4 4 3 2 3 3 3 2 2 1 2 1 3 3 3 5 4 3 4 4 4 5 6 7 7 7 5 4 4 4 3 3 3 2 2 1 1 2 3 3 3 3 3 3 4 4 5 6 7 8

GFSWCAN_925_spd_087.txt.gz
Wind_Speed
34 32 33 34 32 30 25 30 30 30 30 30 29 29 29 28 29 31 11 21 9 2 12 16 20 18 13 8 6 9 5 3 2 5 5 8 6 5 7 9 6 9 10 7 12 10 13 10 2 2 2 6 5 9
31 33 34 33 27 28 26 24 25 30 31 32 32 31 32 33 31 34 9 20 24 3 4 13 22 18 20 18 11 9 7 7 7 6 7 4 6 2 8 6 13 7 9 3 4 6 4 8 13 10 11 10 11 13
31 31 31 27 29 29 28 28 27 26 29 29 33 34 32 30 33 37 18 23 13 1 3 3 12 23 17 14 13 10 7 7 7 10 2 4 7 5 5 9 5 4 12 5 3 5 6 9 10 12 12 13 15 16
28 30 30 29 29 25 23 25 25 26 28 30 32 32 34 34 36 40 19 24 18 3 4 4 14 18 22 19 18 22 6 10 4 5 4 3 4 3 4 8 6 4 3 8 6 13 11 9 11 11 14 14 16 17
28 31 25 24 21 22 24 25 26 27 27 29 32 33 33 32 38 39 23 28 24 6 3 7 3 16 16 22 19 17 11 10 6 3 4 4 6 4 5 5 6 7 7 4 4 8 7 10 12 15 14 15 14 15
28 24 22 16 23 29 29 21 22 24 28 30 31 33 34 35 37 27 3 24 26 21 3 3 8 11 16 19 19 16 10 5 3 3 3 5 11 4 3 4 6 8 8 10 6 11 11 10 7 15 14 16 13 12
23 18 17 20 26 22 20 20 22 25 27 30 30 31 37 36 40 8 3 11 32 17 1 3 3 10 15 15 9 6 11 2 3 2 3 3 4 4 2 1 5 9 9 8 10 13 8 14 9 14 16 15 11 11
19 10 12 23 28 22 14 19 15 24 29 29 28 30 36 37 26 6 2 18 33 5 3 2 2 6 12 5 5 6 3 3 4 2 4 6 2 4 3 5 6 10 10 7 13 11 7 9 11 13 13 13 11 10
14 10 11 20 29 33 34 31 32 30 30 31 33 43 29 7 3 8 25 32 16 5 3 2 3 3 9 2 1 4 3 3 3 4 4 3 1 4 5 7 8 10 8 11 12 8 7 8 8 9 11 12 10 10
14 12 6 12 17 23 34 38 39 40 42 35 21 6 3 8 45 28 6 2 2 3 2 3 3 3 1 3 2 3 2 3 3 5 3 2 3 6 5 6 6 8 9 10 10 9 12 11 10 9 9 8 8 8
13 11 13 13 9 8 10 7 8 5 7 4 3 4 28 23 6 3 3 4 4 3 4 3 6 4 1 7 3 2 3 4 4 3 5 4 3 4 5 6 6 8 8 8 8 8 9 9 8 6 5 7 8 10
9 6 9 11 13 13 21 17 8 7 7 12 17 11 4 2 3 3 3 2 4 2 2 3 3 2 3 2 3 4 2 2 2 2 4 5 4 6 7 8 8 9 10 9 10 9 9 9 9 6 6 8 10 11
6 6 6 6 5 5 9 18 19 23 26 11 4 4 4 4 3 2 6 3 4 2 2 1 3 2 2 2 3 3 4 3 4 2 3 4 6 7 7 7 7 10 11 11 10 10 11 12 14 12 11 12 13 15
7 5 7 9 6 4 4 4 10 8 8 5 4 5 5 3 4 3 4 4 3 3 3 2 2 2 2 2 2 3 2 2 2 3 4 5 7 6 6 7 7 9 9 8 9 11 11 12 13 14 14 13 15 17
5 13 9 9 8 9 7 7 8 11 6 4 4 4 4 1 3 3 3 1 4 5 5 2 3 2 4 5 3 3 3 3 5 4 4 6 6 7 8 8 8 8 7 7 10 11 13 14 15 17 16 17 19 19
5 2 8 6 9 11 12 10 13 7 4 4 6 1 3 1 6 6 7 5 6 6 4 0 3 4 4 2 4 4 2 4 3 4 5 6 7 8 8 8 9 10 10 11 12 13 14 15 16 18 19 20 20 20
6 2 2 7 8 4 7 7 6 5 4 4 4 5 3 4 6 5 6 7 7 4 3 3 5 5 2 3 4 5 4 5 6 6 5 8 8 8 7 9 9 9 12 13 14 15 16 15 16 18 19 19 20 20
3 3 7 12 6 7 8 6 4 4 7 6 5 6 7 6 6 6 7 8 6 3 3 4 3 5 5 4 3 4 5 6 6 6 6 6 8 9 9 8 10 11 13 13 14 14 14 14 15 15 16 15 16 16
5 5 7 10 4 4 3 4 5 5 5 3 4 4 4 5 6 6 6 6 6 7 3 3 6 4 4 5 6 6 5 4 6 6 6 9 9 9 9 10 10 10 10 11 11 12 13 13 12 12 12 11 12 12
15 12 10 7 3 4 4 3 4 5 4 4 4 7 5 4 5 6 7 8 8 4 6 5 5 6 6 6 6 6 5 4 5 5 6 5 7 7 9 8 9 9 11 11 11 10 11 12 12 11 11 10 11 11
6 5 7 5 6 9 4 3 5 4 5 4 4 5 4 7 9 9 8 7 7 4 5 6 6 6 10 10 10 8 8 8 5 5 5 5 6 7 7 7 6 7 8 8 9 10 10 10 9 9 10 10 10 10
3 6 4 7 4 4 5 8 5 4 3 5 3 4 3 5 6 7 7 8 5 6 4 5 5 5 7 8 9 10 9 9 10 10 8 5 4 5 6 6 7 8 8 8 8 9 9 8 7 8 9 10 9 9
5 4 5 4 4 4 3 2 3 2 3 3 2 3 3 3 3 3 4 4 4 6 8 8 9 10 10 10 11 10 9 8 9 9 8 8 8 8 8 8 7 6 7 7 7 7 7 7 7 7 8 8 9 9
5 5 5 3 4 4 3 3 3 3 3 3 3 3 3 3 2 4 4 3 3 5 5 4 5 5 7 8 6 9 8 7 8 8 7 5 7 7 7 7 7 7 6 5 6 6 6 6 5 6 6 6 6 6
4 6 4 5 2 4 4 3 3 3 4 3 3 3 3 1 3 3 3 3 3 3 3 4 5 5 4 4 6 8 8 7 6 6 7 6 5 5 5 6 7 6 4 4 4 5 5 5 6 6 6 5 6 6
6 6 4 3 3 3 3 4 3 4 4 3 4 3 1 2 4 4 3 3 4 3 3 3 3 3 4 5 3 5 5 5 3 5 6 6 5 4 3 1 2 4 5 4 3 4 5 5 5 6 6 5 4 4
4 4 4 4 3 5 5 5 5 5 4 3 3 2 2 4 4 3 3 3 3 5 4 4 3 4 5 6 6 6 6 7 7 6 5 5 6 6 5 4 3 4 3 3 2 2 4 4 4 4 3 3 2 1
4 6 4 3 5 5 5 4 4 3 3 2 2 4 3 3 3 3 3 6 7 7 7 7 7 7 7 7 7 6 6 5 5 5 5 7 7 7 6 5 5 5 3 3 3 3 2 3 3 3 2 2 2 2
4 3 4 7 6 6 7 4 3 3 3 1 3 3 3 3 4 7 8 8 7 7 7 6 6 6 6 5 5 4 4 4 3 1 1 2 1 4 4 4 3 3 3 3 3 3 3 2 2 2 2 2 2 2
3 3 4 6 5 6 5 5 6 5 4 6 5 7 8 9 7 6 7 6 5 6 6 5 4 2 3 2 3 3 4 5 4 3 4 3 4 3 2 2 2 2 2 1 2 2 2 1 0 1 2 3 4 5
2 3 5 5 5 7 7 10 10 9 6 8 8 9 7 4 5 4 4 4 6 6 5 4 4 3 3 2 2 1 2 4 5 6 5 4 3 2 2 1 1 1 1 0 1 2 3 3 4 4 5 5 6 6
3 4 5 5 5 5 3 3 3 4 3 4 3 3 3 3 3 4 3 4 5 4 2 2 1 4 3 3 4 5 7 5 4 4 4 3 2 2 1 1 1 1 1 2 2 2 3 4 5 5 6 6 7 7
7 8 8 6 5 5 3 3 3 4 3 2 3 1 2 2 3 3 3 3 2 4 5 4 4 5 6 6 5 6 5 4 4 4 4 3 2 2 2 2 2 2 2 3 3 3 4 4 5 5 6 7 7 8

GFSWCAN_925_spd_090.txt.gz
Wind_Speed
33 32 34 32 31 32 30 25 24 20 30 28 28 27 26 26 28 29 14 24 17 2 7 16 21 15 14 1 8 4 5 2 2 4 4 7 5 4 8 3 9 9 9 7 8 8 11 18 3 2 4 7 12 11
33 33 34 31 31 32 26 26 25 22 22 31 30 30 30 28 27 29 11 24 27 2 3 9 20 27 15 2 6 4 5 6 6 5 7 3 4 4 6 5 8 7 8 5 4 4 7 12 9 11 9 9 12 14
32 35 31 30 33 29 30 29 27 26 25 26 30 32 32 31 31 33 23 20 9 2 5 8 15 21 18 9 15 5 4 4 2 6 4 3 6 3 3 5 3 6 12 3 4 6 5 8 10 12 13 13 14 15
32 33 31 34 31 28 25 23 25 24 25 26 29 34 34 31 32 35 26 23 17 3 4 7 15 24 22 19 17 20 12 2 3 2 3 4 3 6 2 5 3 3 4 4 0 10 9 11 11 13 14 14 15 16
32 31 31 31 27 25 27 30 32 31 29 26 28 31 32 34 32 33 27 25 26 7 3 6 9 12 19 19 23 18 8 4 1 1 4 3 4 2 4 4 4 8 7 4 3 10 7 8 12 15 14 14 13 12
28 27 28 22 26 31 34 32 32 29 30 30 28 31 32 33 34 23 2 23 27 23 4 3 7 7 15 15 16 10 7 6 2 2 3 3 6 1 2 1 4 9 9 10 5 10 8 10 13 15 13 13 12 11
24 25 15 20 25 26 23 24 25 25 28 28 30 31 33 32 35 8 4 9 38 17 3 3 3 5 14 10 6 3 7 2 2 2 2 3 2 2 1 2 5 8 8 9 10 12 7 13 7 11 11 11 10 13
20 14 13 16 29 33 20 17 11 23 30 27 30 30 33 33 22 10 3 8 38 7 2 3 2 3 12 4 4 3 2 3 5 3 3 3 1 2 3 8 9 10 9 8 12 10 4 6 6 8 11 12 10 11
14 11 4 9 19 28 35 22 23 28 29 28 29 33 20 8 4 8 4 31 17 3 3 3 2 2 4 1 3 3 2 2 2 3 3 2 1 4 5 6 7 9 8 11 12 8 11 10 11 11 12 13 11 10
12 8 3 4 10 19 21 34 41 47 48 45 24 5 3 9 41 30 6 2 1 2 3 3 2 2 1 1 2 2 2 2 2 4 1 2 3 6 5 6 7 7 9 10 10 12 14 13 12 12 10 10 9 9
9 5 8 6 11 17 1 10 12 17 12 4 3 3 32 25 7 2 3 3 5 3 4 3 4 4 1 1 3 3 3 3 3 4 4 4 3 4 6 8 8 9 9 9 8 8 9 10 10 9 9 11 12 13
8 6 8 11 12 17 16 11 13 1 5 11 18 10 4 2 3 3 3 3 5 3 2 1 2 3 3 1 1 3 3 1 3 2 3 4 4 8 8 9 10 10 10 10 12 10 12 13 13 11 10 10 11 12
7 7 10 10 7 10 18 28 36 41 26 8 4 4 1 3 2 3 7 4 4 2 2 1 2 2 2 1 1 2 3 2 3 2 3 4 7 7 8 7 9 11 11 11 11 13 12 13 15 14 12 12 12 13
7 5 9 11 9 7 7 10 7 5 8 4 3 5 5 4 5 4 4 4 3 2 2 2 2 0 2 1 2 3 2 3 3 4 4 5 7 7 7 7 7 8 9 9 9 12 12 13 13 15 15 15 16 17
4 10 8 11 12 11 11 12 13 11 6 5 5 4 4 3 3 3 2 1 3 3 2 1 1 2 3 2 2 3 2 3 5 4 4 6 7 8 8 8 8 7 6 8 11 11 13 14 16 17 18 18 18 18
3 3 6 9 10 10 10 12 15 7 4 4 6 1 4 3 6 6 6 4 4 4 2 3 2 3 2 1 2 5 2 5 4 4 6 7 8 7 7 7 7 10 11 12 12 13 14 15 15 18 19 20 20 20
7 2 7 8 13 11 8 6 6 6 4 4 4 6 5 5 5 4 5 6 7 4 3 2 3 3 1 4 3 5 4 6 7 7 6 8 7 7 6 8 9 10 12 13 14 15 15 14 15 17 17 17 18 19
2 6 12 13 7 7 9 7 4 4 6 6 4 6 6 5 5 5 5 5 5 2 3 3 3 6 5 4 3 4 6 7 7 7 6 6 8 9 9 10 10 12 13 12 14 13 13 13 14 14 15 14 15 14
9 5 8 6 4 4 3 4 5 4 5 3 3 3 3 4 6 5 6 5 6 7 3 3 6 4 4 4 6 6 6 6 6 6 6 9 9 8 9 10 11 11 11 12 12 12 14 13 11 11 10 10 11 10
14 14 12 6 3 4 4 3 5 5 3 3 4 7 4 4 4 6 7 7 7 4 6 5 5 7 7 7 7 6 5 5 6 6 5 5 6 7 8 9 10 11 11 11 10 11 11 11 11 11 11 11 11 11
11 7 5 4 6 11 4 3 4 4 4 3 5 4 4 7 8 7 8 7 7 4 4 6 6 6 12 13 13 11 12 12 8 6 6 5 8 8 7 7 8 8 9 9 9 9 10 10 9 9 10 12 12 11
6 4 4 7 4 4 4 7 5 4 3 5 3 3 3 5 6 6 7 7 5 6 5 6 6 6 7 8 9 11 9 10 11 11 9 5 5 6 7 8 8 9 10 9 9 9 9 8 8 9 9 9 9 8
6 4 4 4 4 4 2 1 3 2 3 3 2 3 3 3 3 4 4 4 3 6 9 8 10 12 11 10 11 12 11 10 10 9 9 9 9 9 9 10 9 7 8 8 8 8 7 6 7 8 8 8 8 8
5 5 4 3 4 4 2 2 2 3 3 3 3 3 3 3 2 4 4 3 4 6 4 4 6 6 9 9 6 9 9 8 9 9 9 7 8 9 9 9 8 9 7 6 6 7 6 5 3 5 5 6 6 6
4 6 3 5 2 3 4 3 2 3 3 3 3 3 2 1 3 4 4 3 4 4 3 5 6 6 5 5 7 7 9 8 7 7 8 5 4 6 6 6 7 6 5 3 5 5 5 4 4 4 4 4 5 5
6 6 5 2 2 3 3 4 3 4 4 3 4 3 1 3 3 4 3 4 4 3 4 4 3 3 4 8 5 7 7 7 4 8 7 7 8 9 5 1 6 8 6 5 3 5 4 4 4 5 4 4 3 3
4 3 3 3 2 5 5 5 6 5 4 3 3 2 2 4 4 3 3 5 5 7 6 6 6 7 7 7 7 7 7 8 10 8 6 7 7 8 9 10 9 7 4 4 3 2 5 4 4 3 4 5 3 1
3 4 4 2 5 5 4 4 3 3 3 2 3 3 3 3 3 3 3 8 9 8 7 8 8 9 9 8 6 5 5 4 5 6 7 8 8 8 7 7 7 4 3 5 6 5 3 2 2 1 1 1 3 1
3 4 4 5 5 6 6 4 3 3 2 0 3 3 3 3 5 10 10 9 9 9 8 8 7 7 7 6 7 6 6 6 5 2 2 2 7 8 6 5 4 3 3 3 3 3 2 3 2 4 2 3 2 2
2 2 4 6 5 5 5 4 5 4 6 8 5 9 9 10 11 9 8 7 6 8 8 7 4 4 3 4 6 6 7 6 6 7 6 6 6 4 3 3 3 3 4 3 3 2 3 2 2 1 1 2 4 4
3 3 5 5 5 6 7 8 12 11 10 10 9 9 7 4 4 7 7 7 7 7 7 6 5 4 3 3 4 2 7 6 6 6 6 5 3 4 3 3 3 3 3 3 2 3 4 4 4 3 4 4 4 5
3 3 5 5 5 5 4 3 4 5 4 4 4 4 4 4 3 4 3 4 5 5 4 3 6 8 5 5 6 7 8 6 5 4 3 3 3 2 2 2 3 3 3 3 3 3 3 3 5 6 6 6 6 6
9 9 9 6 5 5 3 4 3 4 3 3 3 3 4 3 3 3 4 2 6 8 8 8 7 7 7 7 6 6 4 4 4 4 4 2 1 2 3 2 2 3 3 3 3 3 3 4 4 5 5 6 7 7

GFSWCAN_925_spd_093.txt.gz
Wind_Speed
26 27 29 31 29 31 28 26 27 23 19 20 21 24 23 23 25 29 14 23 17 3 5 6 9 10 7 4 2 3 4 1 1 2 3 3 2 3 3 9 7 5 6 4 3 2 6 13 6 5 4 8 9 7
27 30 31 30 31 29 27 30 27 23 22 19 20 26 25 25 25 30 9 24 25 4 3 6 19 25 16 5 4 3 1 3 4 2 3 2 2 2 2 3 3 1 5 4 6 4 3 9 11 8 8 5 6 8
28 30 31 30 31 29 31 29 27 26 22 21 19 23 28 27 27 31 21 22 17 2 6 6 10 26 26 22 23 3 1 4 3 3 1 2 1 1 2 2 2 3 6 2 2 9 10 11 9 7 8 8 8 9
28 31 30 31 30 31 31 28 26 24 21 19 22 24 29 30 29 30 24 21 16 2 3 6 18 13 24 23 16 27 6 7 1 3 2 0 1 3 1 4 3 3 5 4 5 13 13 13 10 6 8 8 7 10
29 30 31 29 31 29 27 29 30 30 28 26 22 24 28 33 30 29 27 25 26 5 2 4 10 18 14 21 17 26 11 2 1 2 1 2 2 2 2 1 3 4 4 4 3 7 9 8 8 12 10 11 9 11
28 29 26 29 20 21 27 28 30 34 33 30 27 26 28 32 30 21 2 24 31 23 3 3 4 5 15 19 12 6 5 3 2 2 1 3 5 1 1 2 5 10 9 11 4 7 11 8 11 11 11 12 12 13
26 24 24 16 12 23 31 31 26 27 26 27 28 27 30 34 36 7 3 8 37 23 2 3 3 5 14 7 3 3 3 3 2 2 3 1 2 3 1 2 5 8 9 12 11 10 8 8 6 11 11 11 17 16
21 20 17 14 18 28 32 24 23 21 27 25 28 27 29 33 25 11 3 2 37 9 2 2 3 2 6 3 3 2 3 3 3 3 2 2 2 2 3 6 8 8 6 12 12 11 10 10 11 11 14 12 12 11
14 15 14 11 16 24 29 20 12 21 29 30 30 29 22 7 4 10 4 23 20 5 3 3 2 2 2 1 3 2 2 2 2 3 3 3 3 4 4 6 7 9 8 9 10 12 13 12 11 9 10 11 10 9
10 8 4 5 11 14 22 24 22 25 36 37 23 7 3 9 37 28 5 2 1 3 2 2 1 1 0 1 2 2 2 2 3 3 1 3 3 4 7 8 8 8 9 9 7 10 9 9 8 8 10 9 8 7
6 2 2 7 9 5 12 20 27 27 19 6 3 2 29 29 8 2 2 3 3 3 3 3 3 3 2 2 2 2 2 3 2 3 4 3 3 3 9 10 8 9 9 9 9 10 10 9 8 8 9 9 10 10
3 4 7 6 10 4 9 19 16 4 1 9 16 12 6 3 2 3 3 3 4 4 2 2 1 3 2 2 1 1 3 2 3 2 2 3 3 7 8 10 10 8 9 9 12 10 11 12 11 10 10 10 10 11
7 5 7 10 13 19 15 11 23 30 26 10 5 3 0 1 3 3 6 2 3 2 2 1 2 2 2 2 1 1 3 3 3 3 3 2 6 7 7 7 9 10 10 11 12 13 13 13 16 14 13 15 17 17
6 7 9 13 13 13 12 10 6 5 5 3 3 5 3 4 4 3 2 2 2 2 4 2 2 2 1 1 1 2 2 2 3 3 2 3 6 6 6 7 7 7 7 7 8 11 12 12 13 16 17 17 17 17
7 9 9 11 11 12 11 11 12 9 7 4 5 4 3 1 4 4 2 2 2 2 2 1 2 1 1 2 2 1 2 4 4 2 2 4 6 6 6 6 6 5 5 5 11 10 12 14 15 17 19 21 22 21
6 4 7 9 8 7 7 11 9 6 3 3 6 3 2 4 4 3 3 2 2 2 1 1 2 2 3 2 4 4 3 4 2 4 5 5 5 5 4 5 5 10 12 11 13 13 15 15 15 16 20 21 20 20
7 2 13 19 17 10 5 7 7 5 4 4 3 4 4 4 3 2 3 3 2 2 2 2 3 4 2 3 3 4 3 4 5 5 4 5 5 4 4 7 11 13 13 12 12 11 12 15 16 16 15 16 18 19
4 13 16 8 6 10 8 7 4 4 6 4 4 3 3 2 2 3 3 5 4 2 2 3 3 5 4 3 2 3 4 5 5 5 4 4 7 10 11 10 12 12 12 13 15 17 18 16 13 12 15 16 15 15
10 14 9 8 8 5 3 4 5 4 4 2 2 1 1 2 3 5 5 4 5 7 3 3 5 3 2 3 4 4 4 3 4 4 3 9 10 11 12 11 12 11 11 12 11 11 12 11 11 11 12 12 11 12
19 15 11 6 6 4 4 3 5 4 3 2 2 4 2 3 4 4 7 7 6 3 5 4 4 3 4 7 7 5 2 4 5 5 2 2 7 8 9 10 11 13 13 13 13 14 13 13 15 15 13 12 12 12
12 8 6 6 5 12 4 3 3 3 4 2 3 2 4 5 6 5 4 5 5 3 3 3 5 4 10 11 15 13 11 12 5 3 3 4 9 10 10 11 9 11 11 11 10 11 12 10 11 12 13 14 14 15
3 4 4 7 4 4 4 7 4 4 3 3 3 2 3 2 2 3 3 6 4 4 3 4 3 2 5 6 9 15 15 17 16 15 14 9 4 5 7 11 13 10 12 11 11 10 10 9 9 11 14 12 12 11
5 5 4 4 5 4 1 2 3 3 3 3 2 3 3 2 2 3 3 3 3 3 8 7 10 13 11 13 14 16 15 14 10 11 13 13 14 14 14 15 11 11 9 10 9 9 9 9 10 10 9 8 13 12
5 5 4 3 4 3 2 3 2 3 3 2 3 3 3 1 3 3 3 2 1 6 3 5 9 4 9 11 4 11 9 14 15 17 11 12 11 11 12 12 12 12 9 10 10 9 6 7 5 8 9 9 9 9
6 7 4 4 2 4 4 2 2 3 3 2 3 3 0 2 3 3 2 2 2 2 1 7 8 6 4 2 9 12 14 12 10 10 16 12 5 11 11 9 10 12 8 10 11 10 8 7 7 7 8 8 10 9
6 4 4 2 2 4 3 3 3 3 3 3 2 1 1 3 4 3 2 3 2 2 4 4 2 4 6 10 6 9 11 10 9 13 12 13 13 11 6 8 8 9 9 8 5 8 8 8 7 5 6 6 7 6
4 3 2 2 1 3 3 3 4 4 4 3 2 3 3 4 3 2 2 4 3 13 14 14 13 12 9 12 12 8 8 11 12 11 8 7 9 9 9 11 8 7 4 6 10 6 7 5 4 3 6 4 4 5
2 3 4 4 4 4 4 3 3 2 2 1 3 4 3 3 2 2 2 12 17 16 16 15 17 18 15 12 9 7 5 6 8 9 11 13 12 12 13 11 8 7 4 3 3 6 8 6 4 3 4 5 6 2
3 2 4 6 5 5 5 3 2 2 2 1 4 3 2 2 3 8 16 17 15 15 15 14 12 10 10 8 7 6 5 6 7 1 1 4 5 7 5 5 4 7 2 6 5 2 1 2 4 5 4 5 5 2
1 2 4 4 4 4 3 2 2 2 3 5 4 8 8 8 13 13 12 10 11 13 13 10 9 11 10 12 11 8 8 6 8 11 4 3 5 6 6 6 5 4 7 4 4 5 4 6 4 2 0 1 1 2
3 3 4 4 3 2 6 10 15 11 4 6 5 6 4 3 6 14 14 14 14 13 12 11 10 7 9 10 8 11 6 6 8 9 9 6 5 3 1 1 0 2 3 2 2 5 4 1 4 5 2 2 3 3
3 3 4 4 2 1 2 2 2 3 2 2 2 2 2 3 3 1 3 5 7 8 8 14 14 11 6 6 8 7 8 8 6 5 5 6 4 3 4 3 2 2 2 0 3 3 2 3 4 5 5 4 6 7
5 6 5 4 3 3 3 3 2 3 3 2 2 1 2 3 3 3 5 4 3 16 16 13 11 11 10 7 6 5 4 4 5 4 3 2 2 4 3 2 1 1 2 2 3 2 3 2 2 4 5 5 5 7

GFSWCAN_925_spd_096.txt.gz
Wind_Speed
23 24 23 24 26 26 26 27 27 22 21 22 17 18 21 21 21 24 7 30 14 3 6 4 12 8 0 2 2 3 4 2 1 2 2 3 2 3 3 2 3 4 4 3 3 3 6 7 1 4 4 3 4 6
24 23 24 26 29 28 28 28 26 24 23 21 18 16 17 22 22 28 6 19 26 3 3 6 18 22 14 3 1 1 3 0 2 0 2 2 2 2 2 3 3 3 2 4 5 3 5 8 10 6 5 4 4 4
23 23 24 28 29 30 29 29 27 27 24 21 20 18 18 23 24 31 12 20 16 2 4 7 9 29 28 26 21 4 1 4 3 3 2 1 1 1 1 2 1 1 5 1 2 6 11 9 9 9 8 6 7 7
23 24 25 28 30 29 31 30 28 26 22 20 18 20 22 25 25 30 19 22 14 2 3 5 11 9 18 24 27 21 11 7 1 4 3 1 1 0 2 2 2 4 5 4 5 6 10 9 9 7 9 8 10 10
23 25 28 30 30 32 30 30 25 23 24 24 22 18 23 25 29 29 26 24 24 4 2 4 11 23 20 20 27 24 16 8 2 1 1 2 2 1 1 2 3 5 4 1 2 7 4 7 7 10 11 11 10 10
24 26 29 30 30 30 26 21 22 23 22 24 27 24 21 26 31 21 3 21 28 21 2 3 4 4 3 19 19 12 8 3 1 2 3 2 3 2 1 2 3 8 9 9 3 3 9 8 12 10 11 12 12 12
25 27 28 28 27 26 26 30 33 32 30 28 27 27 25 29 37 7 4 6 35 21 2 3 4 3 5 5 3 3 5 2 3 2 2 2 1 3 1 2 4 7 7 8 11 6 7 11 6 9 10 12 14 14
24 25 25 24 24 23 26 33 33 32 28 29 30 31 29 36 28 11 6 4 34 8 3 2 3 3 2 2 3 2 3 2 2 3 2 2 2 2 3 6 7 7 5 11 10 10 9 8 10 10 11 8 8 9
23 21 20 19 14 17 23 19 18 15 28 30 33 32 21 9 4 9 2 31 16 4 4 2 2 2 4 2 2 2 2 2 0 3 3 3 2 3 3 7 7 8 5 6 5 8 9 10 9 9 9 7 7 7
18 15 13 8 7 9 13 13 19 24 33 39 27 6 3 12 34 25 5 2 1 1 2 2 2 2 2 3 2 3 1 2 2 2 3 3 2 7 8 8 7 7 8 7 3 5 7 7 6 8 8 6 7 7
12 11 5 4 1 2 13 22 26 29 26 5 2 3 29 30 8 1 3 3 3 3 2 3 3 1 2 1 2 1 2 2 3 3 2 2 2 4 7 9 7 7 8 8 8 6 6 5 5 6 7 9 9 9
8 4 3 4 3 7 9 14 15 11 4 10 15 15 7 3 2 3 3 4 3 5 1 2 2 3 1 2 1 3 3 3 3 3 3 2 3 8 8 7 7 6 8 8 9 7 8 8 9 8 8 9 10 11
5 3 7 5 5 17 13 9 18 37 23 13 6 4 2 3 4 4 5 2 3 2 2 0 2 3 1 2 0 1 3 2 1 3 2 2 6 6 6 6 7 9 10 10 10 10 11 12 13 11 10 12 16 17
6 11 16 17 22 22 25 18 17 6 5 3 3 5 3 3 2 1 1 2 1 1 3 2 2 2 0 2 1 2 1 2 2 2 2 2 6 6 6 6 6 7 6 7 7 11 11 11 12 15 15 15 17 16
10 12 17 16 15 14 12 11 7 6 6 4 4 4 3 1 3 2 2 2 3 2 2 1 2 2 2 3 3 2 4 3 3 2 2 4 5 5 5 7 6 5 3 4 9 10 12 13 13 14 15 17 19 18
11 10 11 11 12 12 13 12 9 5 4 3 6 4 3 4 3 3 3 2 2 2 1 1 3 3 3 2 5 2 2 1 1 2 2 4 3 4 5 6 7 10 11 12 12 12 13 14 13 14 18 17 16 15
7 4 19 20 16 11 5 5 6 6 4 4 3 2 3 3 1 2 1 2 2 1 1 2 4 1 2 3 3 3 1 2 3 4 2 3 4 5 5 9 11 13 13 14 15 15 13 14 13 13 13 13 15 16
9 18 13 13 14 10 6 8 4 4 6 4 3 3 2 4 2 3 3 4 2 2 2 3 3 5 3 2 1 1 3 5 5 4 3 4 7 10 11 10 13 14 15 15 15 16 15 15 12 11 14 13 12 12
20 14 10 10 7 6 4 5 5 4 3 2 1 1 4 2 4 4 6 5 6 7 3 3 4 3 2 2 4 3 1 2 4 2 2 7 11 11 10 10 12 13 13 13 11 9 11 10 11 11 11 10 10 10
16 14 11 10 7 5 4 3 5 4 3 2 3 4 3 2 2 4 7 7 5 3 5 4 3 2 2 4 3 2 2 3 4 3 2 2 8 12 10 12 13 15 14 13 13 13 12 11 11 11 10 9 11 9
15 12 9 11 7 10 4 3 3 3 4 3 4 2 3 4 4 4 4 5 5 3 3 2 2 4 8 9 12 11 8 7 2 2 3 3 8 10 7 11 11 10 11 11 9 9 9 9 8 9 10 11 12 13
5 5 4 7 4 4 4 5 4 4 3 3 2 2 3 2 3 3 2 6 3 3 2 2 0 1 6 6 10 17 15 17 15 14 12 11 3 5 7 11 12 9 10 10 10 10 8 8 9 10 11 14 13 13
5 4 4 5 5 5 1 0 3 3 3 3 2 3 3 2 2 2 3 3 2 2 5 5 9 17 14 17 18 18 17 17 11 11 12 13 13 13 14 11 11 12 9 8 8 8 9 10 10 10 9 11 12 11
5 5 4 3 4 1 2 3 2 3 3 3 3 3 1 2 2 3 3 2 1 2 3 4 9 5 10 12 6 9 10 17 16 14 9 13 10 10 12 12 11 8 7 9 8 7 7 7 9 10 11 14 11 11
6 7 5 4 3 5 4 3 3 4 3 2 4 2 1 2 3 3 2 2 2 1 1 10 7 5 4 1 7 11 12 11 12 9 11 7 12 14 13 14 14 8 8 8 8 8 8 8 8 10 9 10 12 11
6 4 3 1 2 4 3 3 3 3 3 3 1 1 2 3 4 2 2 3 2 1 2 6 7 4 4 6 3 4 6 9 11 11 8 7 6 8 11 8 6 7 6 4 6 8 8 6 8 9 9 8 8 9
4 2 2 3 1 3 4 3 3 4 4 4 3 2 3 4 2 2 3 3 2 9 13 16 15 12 10 11 10 10 9 8 8 12 10 10 9 7 11 10 7 5 4 2 7 7 6 6 6 5 5 8 6 5
2 3 4 4 4 4 4 3 3 2 2 0 3 4 5 6 4 3 2 16 22 21 20 19 18 18 17 13 10 10 12 11 12 13 14 13 12 11 10 8 8 6 3 3 4 6 7 6 5 6 8 7 5 2
2 1 4 5 5 5 3 2 2 1 1 2 4 2 2 2 1 6 15 23 21 22 21 21 20 19 17 13 9 6 5 9 13 3 2 2 2 5 5 4 5 4 4 7 6 5 4 5 5 5 4 5 5 4
1 2 4 3 4 4 3 2 0 2 2 4 4 7 6 5 10 20 23 20 19 19 18 18 17 14 14 12 11 9 8 6 4 6 5 4 6 8 5 3 2 3 5 4 4 5 4 4 3 3 3 3 1 2
2 3 4 4 3 2 1 2 9 6 3 5 3 4 3 3 7 8 11 16 19 19 18 16 13 11 15 13 10 9 6 5 5 5 6 9 7 3 1 1 2 1 2 2 3 3 2 1 3 3 3 4 3 1
3 3 4 4 2 1 3 1 2 3 1 3 1 2 3 3 2 1 6 14 17 17 16 16 15 11 9 8 8 6 4 10 8 5 5 4 3 2 2 1 1 1 1 1 1 2 2 2 2 3 3 1 2 3
3 4 4 4 2 1 3 4 3 2 3 2 0 2 2 4 4 6 5 6 13 16 20 16 11 11 9 7 7 8 7 5 5 4 4 3 2 3 2 1 1 1 1 2 2 1 2 2 1 2 2 2 4 6

GFSWCAN_925_spd_099.txt.gz
Wind_Speed
21 21 22 21 22 20 22 21 22 23 23 23 19 18 20 18 21 24 9 25 18 3 6 3 9 8 3 1 2 3 4 3 3 2 1 2 0 3 3 1 4 4 5 4 3 3 6 7 2 3 3 2 3 5
22 21 23 23 22 21 23 23 23 24 23 22 21 19 16 15 21 25 6 21 29 3 2 4 13 19 11 4 2 2 2 2 3 1 1 2 2 2 2 3 1 3 3 3 4 2 4 8 9 7 5 5 5 7
22 22 22 23 21 24 24 24 26 24 24 23 21 21 17 16 23 28 14 20 15 2 5 6 8 24 26 30 25 4 2 4 3 1 2 1 3 2 2 2 3 4 4 1 3 7 10 10 11 10 8 9 9 9
22 21 22 23 23 25 27 27 25 26 26 24 22 21 17 18 23 29 17 22 12 1 2 5 6 7 11 20 27 27 13 3 2 1 2 2 2 2 1 2 2 2 7 4 4 4 6 12 10 6 10 10 10 11
21 22 24 24 25 27 29 28 28 28 26 23 21 18 15 18 25 29 21 22 22 4 2 4 9 23 18 21 26 21 16 4 2 1 2 3 2 1 1 1 2 4 4 3 1 3 4 5 9 10 12 10 9 8
21 22 24 25 27 29 30 31 29 27 24 20 20 20 18 17 27 19 1 18 26 16 2 3 4 4 2 16 15 13 9 3 3 1 2 2 3 2 1 2 4 6 7 9 4 4 8 9 10 11 11 9 10 9
21 23 25 25 28 30 31 29 27 26 25 23 21 22 21 18 34 7 4 5 32 20 2 3 4 4 1 5 3 3 5 3 3 1 2 1 1 2 2 2 4 5 8 8 10 2 7 9 5 8 9 10 12 12
22 24 24 27 28 30 29 30 29 30 31 31 27 23 23 24 27 8 4 4 32 6 3 2 4 3 3 2 2 4 4 3 3 2 1 2 1 2 2 6 4 4 4 9 10 9 8 5 7 9 10 8 9 8
23 23 24 27 26 26 24 26 32 37 36 32 28 27 16 7 4 9 5 30 20 4 4 2 2 2 3 1 2 2 2 2 1 2 3 1 2 2 3 6 5 8 6 6 4 7 7 8 8 9 9 9 7 7
21 22 24 23 22 16 17 15 15 18 25 32 25 6 3 9 29 27 6 2 2 2 2 3 3 3 2 1 1 3 2 3 3 4 3 3 2 5 7 7 6 7 8 8 4 5 7 7 6 7 7 7 6 6
20 22 20 18 11 11 6 20 31 37 34 9 3 2 19 35 7 2 3 4 3 2 3 3 6 2 2 2 3 2 3 3 2 2 2 2 3 3 6 7 6 7 7 7 6 5 5 4 5 4 5 8 7 9
17 15 12 10 8 6 7 15 13 8 7 10 16 17 7 3 2 4 3 3 3 5 2 2 2 2 2 2 2 2 2 2 3 4 3 2 3 8 7 7 7 6 7 7 9 7 8 7 8 8 8 9 11 10
8 8 8 8 12 9 7 13 26 35 28 17 6 3 2 3 4 5 6 3 3 0 1 2 2 2 0 3 0 1 3 3 2 3 2 1 6 6 6 5 7 8 8 8 9 9 10 12 13 11 10 10 12 14
6 5 4 11 19 17 30 26 18 15 6 3 3 6 3 2 1 2 1 2 1 1 1 2 2 2 0 2 2 3 2 1 3 3 4 1 5 6 5 5 6 6 5 7 7 11 11 12 12 14 14 13 14 14
11 15 23 27 22 22 22 20 9 8 6 4 4 4 3 1 2 2 2 2 2 2 1 2 2 2 3 3 3 3 4 3 2 2 2 2 4 5 4 5 5 5 3 5 11 11 12 12 13 14 14 14 15 15
15 16 14 17 17 19 14 10 8 6 4 3 6 4 2 3 3 3 3 2 4 2 1 2 3 4 3 2 5 3 1 1 2 1 2 3 2 3 4 5 6 9 10 11 12 13 13 14 13 13 14 14 13 13
8 4 14 17 16 11 6 6 5 5 4 4 3 2 3 3 1 1 1 3 3 2 2 2 4 1 1 3 3 3 2 2 1 2 2 2 4 4 4 8 9 10 10 12 13 14 14 13 13 12 12 12 14 14
16 20 21 19 15 8 5 6 4 4 6 3 4 3 3 4 2 3 3 4 1 2 2 3 2 4 2 3 1 1 2 2 3 3 2 3 5 8 9 9 10 11 11 11 10 10 10 10 11 10 11 10 11 10
20 16 14 14 5 5 4 5 5 4 4 2 3 2 3 2 4 4 4 5 8 8 3 3 5 3 2 2 2 2 2 1 2 2 2 5 9 11 11 11 11 10 10 10 9 9 10 8 9 8 7 7 9 8
16 14 11 8 5 5 4 3 5 4 3 2 2 3 2 2 2 3 7 7 5 3 5 4 2 1 0 1 1 3 2 2 4 3 2 2 7 10 9 10 9 10 9 8 7 8 8 8 7 7 6 6 7 6
16 11 9 7 5 9 4 2 3 3 4 3 3 2 3 2 3 3 3 4 4 3 3 2 2 2 7 9 10 13 9 8 2 2 3 1 2 4 8 10 11 10 10 9 8 7 7 7 5 5 6 6 7 9
5 6 4 6 5 4 3 5 4 4 3 3 3 2 3 2 2 3 2 6 3 2 1 1 1 2 4 4 8 12 12 14 15 13 12 10 2 5 7 9 9 7 7 7 7 8 7 5 5 5 7 9 9 9
5 4 5 5 5 4 1 1 3 2 3 2 2 3 3 2 2 2 3 2 2 2 4 5 7 13 13 15 16 14 13 16 11 10 12 13 11 10 10 9 9 11 9 6 5 5 6 5 6 7 9 9 10 9
5 5 4 3 4 2 2 3 2 3 3 3 3 2 2 2 1 3 3 1 1 2 3 5 10 5 9 9 4 9 10 16 16 12 8 12 10 9 10 9 7 6 4 6 5 5 6 6 7 7 8 10 9 9
6 7 4 4 3 5 4 3 3 4 3 2 3 1 1 2 3 3 3 3 3 2 3 7 7 6 3 1 3 9 8 11 13 8 8 6 13 12 11 9 7 5 5 5 6 5 5 5 8 10 10 11 8 9
6 4 4 1 2 4 3 3 3 4 3 3 2 1 3 3 3 2 3 4 3 3 4 7 5 2 2 4 3 3 5 8 8 8 6 4 4 8 9 6 3 4 2 2 4 4 6 5 7 8 8 8 9 10
4 3 2 3 2 3 4 3 3 4 3 4 3 2 3 4 3 3 1 2 2 6 14 19 18 12 9 10 9 7 8 7 4 9 8 6 5 2 7 6 5 3 2 2 5 5 4 6 6 6 7 7 8 7
2 3 3 4 4 3 4 3 3 2 2 1 3 3 6 7 4 3 2 9 20 18 18 14 14 16 17 15 13 14 13 13 15 13 13 12 11 9 7 5 5 3 1 2 1 6 5 5 6 5 6 7 6 4
3 2 3 5 4 4 4 2 2 1 1 2 4 3 3 2 1 3 10 23 23 25 22 20 18 18 17 14 11 8 12 12 13 3 2 1 1 3 3 2 2 2 5 4 4 4 3 4 4 5 5 6 6 4
1 1 4 3 4 3 2 1 1 2 2 2 3 3 3 4 7 16 23 22 21 21 22 23 23 18 17 13 11 8 6 6 11 11 5 4 7 7 4 1 1 2 5 3 3 3 3 2 3 4 5 6 5 4
2 3 4 3 3 2 1 1 4 4 3 4 3 4 3 2 5 7 14 15 17 20 20 20 16 14 14 13 10 9 4 4 4 3 4 6 8 5 4 2 1 1 2 2 2 2 1 0 1 3 4 5 5 2
3 2 4 4 1 2 2 2 2 3 2 3 2 2 3 3 1 2 6 16 19 19 19 18 16 13 11 9 7 5 3 7 8 6 5 5 4 2 1 1 1 1 2 2 3 3 1 1 2 3 3 3 2 2
3 2 2 4 3 1 2 4 3 2 3 2 1 2 2 4 4 5 7 14 18 17 16 14 10 10 9 7 7 8 9 8 7 6 4 3 3 2 2 2 1 1 1 3 3 2 2 1 1 1 1 2 2 4

GFSWCAN_925_spd_102.txt.gz
Wind_Speed
26 24 22 21 19 21 20 19 17 20 19 18 18 16 15 14 15 20 13 24 13 3 5 3 5 6 1 1 1 4 4 2 3 2 1 2 1 1 2 1 3 3 3 3 3 3 6 8 4 1 2 6 7 10
25 25 24 21 20 21 20 19 18 20 20 20 19 18 17 14 15 18 7 22 28 2 2 4 12 17 14 12 3 3 2 1 1 3 1 2 2 3 2 1 2 1 2 2 4 2 5 6 6 6 7 6 6 9
25 26 24 22 22 21 21 19 19 21 21 21 19 19 17 16 15 23 14 19 13 1 3 4 8 21 27 27 22 3 2 3 2 4 3 2 4 2 1 1 3 3 3 3 4 4 9 8 8 10 11 11 10 10
26 26 25 23 22 21 21 20 20 22 21 21 21 20 19 16 15 24 17 22 14 2 2 5 6 8 10 19 24 26 11 2 3 2 1 3 3 2 2 2 2 4 5 5 4 5 5 9 8 9 11 10 11 11
27 27 24 21 21 22 22 21 23 23 22 22 23 21 19 14 15 25 22 18 22 4 1 3 9 23 22 17 22 22 15 3 2 2 3 3 3 1 1 1 2 3 4 3 2 5 4 4 7 10 12 11 11 11
25 25 23 21 21 23 23 23 24 24 23 25 23 21 17 14 12 16 1 16 26 13 1 3 4 4 1 10 13 11 8 3 3 3 3 2 3 1 1 1 4 4 5 7 3 4 10 7 9 10 11 10 10 11
26 25 23 22 22 23 24 24 24 26 26 23 19 20 15 15 21 7 4 6 31 18 2 2 4 3 1 4 3 3 8 4 3 2 2 2 2 2 2 1 4 6 7 7 10 3 6 12 6 7 9 10 12 11
24 23 23 23 23 24 25 26 28 27 24 20 19 17 12 11 19 7 6 8 29 6 3 2 4 4 2 2 3 3 4 4 3 2 2 2 1 1 1 4 4 6 4 8 9 9 6 8 8 9 9 7 8 8
24 22 23 24 24 26 27 30 28 29 25 25 23 19 15 7 4 9 9 25 19 5 3 2 2 3 1 3 3 1 3 3 1 2 2 1 1 1 1 5 6 6 4 5 2 7 8 8 8 8 8 8 8 8
21 22 23 25 26 27 28 28 28 28 28 27 19 5 3 8 28 26 5 2 2 2 3 3 2 3 2 1 2 3 2 3 3 4 3 2 1 5 7 7 6 6 7 9 0 3 7 6 6 7 8 6 7 7
20 21 23 24 26 26 24 23 14 26 29 12 4 2 14 34 8 1 3 3 3 3 3 4 6 4 2 2 2 2 3 3 3 2 4 2 3 3 6 7 6 7 7 8 7 6 6 5 5 6 7 9 10 10
19 21 24 24 23 15 14 7 2 7 11 14 20 23 9 3 2 4 3 3 5 5 2 3 3 3 2 2 2 3 3 2 3 3 3 2 3 8 7 7 6 5 6 7 9 8 9 9 9 9 9 9 10 10
20 23 20 13 10 11 11 8 29 43 41 25 7 3 2 2 4 6 7 4 3 3 3 3 2 2 1 0 2 1 3 2 2 3 2 0 7 6 6 5 6 8 9 10 11 11 11 12 14 11 11 11 13 15
13 10 11 11 15 15 26 16 25 16 11 4 3 5 2 2 1 3 1 2 1 1 2 2 2 2 1 1 2 2 2 1 2 1 2 0 5 6 5 5 6 5 6 8 8 10 11 12 13 15 15 13 15 15
6 7 16 19 19 28 21 14 11 10 6 4 4 4 2 1 1 1 2 0 2 1 0 2 3 2 3 3 3 2 4 3 2 2 2 1 5 5 4 5 5 5 4 5 9 10 12 14 14 14 13 14 15 15
15 24 23 27 24 22 16 11 13 6 3 4 6 4 2 3 3 3 3 2 3 2 1 3 3 4 4 2 4 2 1 1 2 0 1 3 2 3 4 5 6 8 9 9 10 11 12 14 14 14 14 14 13 13
10 5 17 28 28 18 10 7 6 5 4 4 3 3 2 3 1 1 2 3 4 2 2 2 4 1 1 3 2 3 2 3 2 1 1 2 4 4 5 7 8 8 9 9 10 11 13 12 12 13 12 12 13 13
14 22 21 25 19 14 6 8 4 4 6 4 4 2 2 2 1 2 3 4 2 2 2 2 2 4 2 3 2 2 1 2 3 2 2 3 6 7 8 9 9 10 10 10 9 8 9 10 11 9 10 10 10 10
22 22 19 17 4 5 3 5 5 4 3 2 3 2 3 2 4 3 4 5 6 6 3 3 5 2 1 1 2 1 1 1 2 1 2 5 8 9 9 8 8 8 7 7 6 6 6 5 7 6 5 5 8 7
18 16 11 3 2 4 4 3 5 4 3 2 2 3 2 2 2 3 6 5 3 3 5 4 2 1 1 0 1 3 2 2 4 3 2 2 6 9 8 8 7 7 6 5 3 4 3 4 3 4 3 3 4 5
18 12 7 4 5 10 3 2 3 3 4 3 3 2 3 1 2 3 3 4 4 3 2 2 1 1 5 5 8 13 9 9 3 3 3 1 4 5 6 6 7 8 6 7 7 5 5 5 3 3 3 4 5 6
5 7 4 7 5 4 4 5 4 4 3 3 4 2 3 2 2 2 1 5 3 1 1 2 0 1 3 4 7 10 11 14 14 13 12 9 2 3 6 8 7 5 5 6 5 6 5 3 3 4 6 8 8 8
5 5 5 5 5 4 1 1 3 2 4 3 2 3 2 2 1 2 3 2 1 1 3 4 6 13 12 13 14 13 11 14 11 11 11 12 11 10 9 7 7 9 7 5 3 4 4 4 5 6 8 8 9 8
5 5 4 3 4 2 2 3 2 3 3 3 2 2 1 2 1 3 3 1 2 2 2 4 10 4 8 8 4 6 11 15 15 12 8 10 11 9 8 9 7 6 4 5 4 3 4 4 4 6 7 7 7 6
6 7 4 4 3 5 4 3 3 4 3 1 3 1 1 2 3 2 3 3 3 2 3 8 7 5 3 1 3 7 7 9 13 8 6 5 11 9 8 7 6 5 4 2 2 1 2 4 5 4 6 7 7 6
6 4 3 0 2 4 3 3 2 4 3 2 1 1 2 3 3 2 3 5 3 3 3 5 4 2 1 4 3 4 6 8 7 7 5 4 4 4 6 4 2 3 2 0 1 1 2 2 3 5 7 7 7 7
4 3 2 3 1 3 3 3 3 4 3 4 3 2 3 3 3 3 0 2 3 8 21 19 17 12 9 9 8 7 9 6 3 8 8 5 4 1 4 3 3 2 2 2 2 2 2 3 3 4 4 4 5 5
2 3 4 3 4 3 4 3 2 2 2 0 3 2 6 7 4 3 2 6 18 19 18 15 12 13 15 13 13 14 14 13 15 14 12 11 9 9 7 5 4 2 2 2 2 3 2 1 2 3 2 3 3 3
3 2 3 5 4 4 4 2 1 1 1 2 4 2 2 2 1 1 5 20 23 24 22 20 18 18 18 16 12 10 13 13 12 4 2 1 1 2 4 4 3 2 4 4 3 2 2 2 3 2 2 3 4 3
2 2 4 3 4 3 2 1 1 2 2 2 2 2 2 4 5 11 20 21 21 21 22 22 23 20 19 15 12 10 10 11 9 5 3 4 5 7 5 3 2 2 2 2 3 3 2 1 2 3 3 4 4 4
1 3 4 3 2 1 2 2 1 3 3 3 2 3 2 2 5 6 10 14 17 19 20 20 17 15 14 13 12 10 4 5 4 4 3 4 7 6 4 1 1 2 1 1 2 1 1 1 2 4 5 7 5 4
3 2 4 3 1 2 2 3 1 3 3 3 2 2 3 3 1 2 7 13 17 19 20 21 17 16 12 9 7 4 2 7 8 8 7 6 5 4 3 3 2 1 1 2 2 2 1 1 1 2 2 3 3 4
3 2 2 3 2 1 2 3 3 2 3 2 1 2 2 3 4 4 10 15 16 19 18 16 11 8 10 8 6 6 9 10 9 8 6 4 4 3 2 1 0 1 2 2 2 1 1 1 2 3 4 4 4 5

GFSWCAN_925_spd_105.txt.gz
Wind_Speed
19 21 23 24 22 18 18 18 17 16 13 15 14 12 12 12 10 16 8 25 14 3 3 5 5 5 3 1 3 3 4 2 2 2 1 1 2 2 3 2 1 1 2 2 3 3 6 10 2 1 6 8 8 10
20 19 20 25 22 20 19 18 17 17 14 16 15 14 13 13 13 11 6 27 25 3 2 3 9 16 16 13 1 1 1 3 1 3 3 4 2 3 3 2 3 1 1 3 2 1 4 7 10 10 9 7 6 9
15 19 20 21 24 22 19 18 18 17 14 16 16 14 14 13 14 12 11 19 11 1 4 4 9 25 24 23 18 5 2 2 2 4 2 3 3 1 2 1 2 1 3 2 3 5 7 10 12 13 12 12 9 10
18 18 21 24 24 23 19 19 19 17 15 17 17 15 15 15 14 11 17 24 12 2 2 5 4 8 8 15 21 25 10 1 2 2 2 2 3 1 2 3 2 3 5 5 2 3 5 12 9 10 11 10 10 10
21 19 19 22 24 23 21 20 19 19 17 17 18 17 16 15 14 13 23 23 23 4 2 3 10 19 17 14 17 16 13 7 3 2 3 3 3 2 2 2 2 3 3 3 2 5 4 6 8 9 10 8 8 8
21 22 21 22 24 21 19 20 20 18 18 18 18 18 18 17 14 11 0 15 25 13 1 3 3 3 5 8 11 10 9 3 3 3 3 3 4 2 1 1 4 4 4 6 2 5 10 10 10 8 8 8 10 10
23 22 21 22 25 22 19 19 20 20 20 19 19 19 19 15 20 4 3 4 30 18 2 3 3 2 3 5 2 2 9 2 3 2 3 2 2 1 1 2 6 6 6 7 8 3 7 9 5 7 8 11 14 14
23 22 21 23 25 22 20 20 21 21 20 20 21 17 16 12 16 5 6 8 27 6 3 2 3 2 7 2 3 3 5 2 3 2 2 2 1 0 2 5 4 4 4 8 9 9 10 7 8 9 9 8 10 10
23 22 21 25 24 22 21 22 21 21 21 21 19 13 11 6 4 8 11 29 15 3 4 3 2 3 2 3 2 2 3 2 1 3 2 1 1 2 3 6 6 8 6 6 4 8 8 9 8 8 8 8 9 8
24 23 23 23 22 22 23 24 22 21 22 19 12 6 2 8 26 26 4 2 2 1 2 3 2 2 3 1 4 4 3 3 4 4 3 2 2 7 7 9 7 7 8 9 6 3 6 5 5 7 8 7 6 6
23 22 22 21 22 23 24 25 25 25 20 9 3 3 9 33 7 2 3 3 3 3 4 4 6 3 2 2 1 2 3 3 4 3 5 3 1 3 7 9 8 7 8 7 6 6 6 6 4 4 6 8 8 8
21 20 21 22 23 25 27 28 29 29 13 16 12 15 9 3 2 4 4 4 5 5 3 4 4 3 2 2 2 3 3 4 3 3 3 3 2 7 7 8 7 7 7 8 9 8 8 8 7 7 7 7 8 8
20 20 21 23 25 26 28 25 23 18 36 22 5 4 3 1 4 8 8 4 4 3 4 3 3 3 2 2 3 2 3 2 3 2 2 2 6 5 5 5 7 8 8 9 10 10 11 12 13 11 10 8 9 12
19 21 22 25 25 20 16 15 28 27 6 3 4 5 1 2 2 2 2 4 2 1 4 2 2 1 1 2 1 1 2 1 2 2 2 2 6 6 5 5 5 6 8 8 8 10 11 11 12 13 11 10 12 11
20 20 17 14 13 27 31 18 12 6 4 4 3 3 1 1 1 1 0 2 2 1 2 3 3 2 2 1 2 1 2 2 2 2 2 3 6 6 5 5 6 6 5 7 7 8 9 10 11 11 11 12 13 14
10 17 11 32 35 26 19 15 6 4 4 3 6 4 1 3 2 2 3 2 3 2 2 2 2 3 3 1 3 2 0 1 2 2 3 5 5 5 6 6 7 7 8 8 8 9 10 11 11 10 11 12 12 13
10 7 27 36 25 17 11 6 5 5 4 4 3 3 3 3 2 2 2 2 4 1 2 1 3 1 2 3 2 2 1 2 3 3 3 5 6 6 7 9 8 8 9 10 10 10 10 9 9 9 11 9 11 12
22 30 30 27 21 13 6 8 4 4 6 4 4 2 2 2 2 2 2 4 2 2 2 2 3 3 2 3 2 2 2 3 4 5 5 6 8 9 9 9 10 9 10 9 8 7 8 7 7 7 7 6 7 7
27 25 18 16 10 7 3 5 5 4 4 2 3 2 3 2 4 4 4 5 5 5 3 2 5 2 2 1 3 3 3 3 4 3 3 6 9 12 12 11 10 9 8 6 5 5 5 4 5 5 4 4 6 5
26 17 11 7 6 5 4 3 4 4 3 2 2 2 3 2 1 3 5 5 3 2 5 3 1 1 2 2 1 4 3 5 6 5 3 3 6 9 8 6 6 6 6 5 4 4 3 3 2 3 3 3 4 4
14 11 6 4 5 9 4 2 4 3 4 3 3 2 3 2 2 3 3 4 4 3 2 2 2 2 5 5 9 11 9 8 3 2 3 3 3 4 4 4 5 4 3 3 3 3 3 3 2 2 3 5 6 8
5 4 3 6 5 4 4 6 4 4 3 4 4 2 3 2 2 2 1 5 3 1 1 2 2 3 5 6 6 10 11 13 12 11 9 10 2 3 4 5 5 3 3 3 2 3 3 2 3 4 6 9 8 8
5 4 6 6 5 4 2 0 3 2 4 3 2 3 2 2 1 1 3 2 2 1 3 4 6 10 12 11 15 14 12 15 10 9 10 10 9 8 6 5 5 6 5 3 3 3 3 3 5 6 8 8 7 7
6 5 4 3 4 3 2 3 2 3 3 2 2 3 1 2 1 3 3 1 1 3 2 6 10 7 9 8 4 6 9 12 13 11 8 8 8 7 7 7 7 6 5 5 5 5 5 5 5 6 7 6 6 6
6 6 4 4 3 4 4 3 3 3 3 1 3 1 2 2 2 2 3 3 4 3 4 7 6 6 5 3 5 7 8 9 9 7 4 5 9 8 6 6 6 5 4 3 3 3 2 3 4 4 5 5 5 5
6 3 3 1 2 4 3 3 3 4 3 2 2 1 1 2 2 3 3 5 3 4 4 6 5 4 3 5 5 5 7 9 7 6 4 5 4 4 4 4 2 2 2 1 2 2 2 2 3 4 4 4 4 4
4 2 2 3 1 3 3 3 3 3 3 5 3 3 3 3 3 2 1 3 3 9 22 18 16 11 9 10 10 10 10 7 4 7 8 5 3 3 4 3 4 2 1 1 2 3 3 3 3 2 3 3 3 3
2 3 4 3 4 3 4 3 2 2 2 1 3 2 5 5 4 3 2 7 17 22 20 15 11 12 16 13 13 15 14 14 15 14 13 11 9 8 7 6 5 3 3 3 2 5 4 4 4 3 2 2 4 3
3 2 3 5 4 4 3 2 1 0 1 1 3 2 2 1 1 1 5 18 24 27 22 19 16 17 17 17 15 11 16 17 12 4 3 1 0 2 4 4 3 4 5 5 5 4 3 3 3 3 4 4 4 3
2 2 4 3 4 2 2 0 0 1 2 2 2 2 2 2 4 6 17 22 19 19 23 24 26 22 21 18 15 14 13 11 4 3 3 3 3 8 6 4 3 4 4 3 4 3 3 2 2 2 2 2 3 3
2 2 3 3 2 2 2 1 1 1 2 3 2 3 2 2 4 5 11 15 20 24 24 23 18 18 19 16 16 13 8 9 7 5 4 4 7 8 6 4 3 3 3 2 1 1 1 1 1 1 2 2 2 2
3 3 4 3 0 2 2 2 1 2 3 3 2 2 2 3 2 1 8 17 21 20 21 24 21 20 14 13 10 7 5 9 9 9 10 9 8 6 4 4 3 2 2 2 1 1 1 1 1 2 2 1 2 3
2 2 2 3 2 1 2 3 3 2 3 2 1 1 2 3 4 3 12 14 14 20 21 20 15 15 15 12 9 8 11 12 12 11 9 7 6 5 5 3 2 2 2 4 3 2 1 1 0 1 2 3 3 4

GFSWCAN_925_spd_111.txt.gz
Wind_Speed
17 14 18 20 26 27 23 21 17 15 14 15 13 11 12 9 9 8 5 15 9 3 11 14 11 10 9 7 6 8 7 1 4 4 4 5 5 5 5 4 2 4 4 2 4 5 2 19 5 5 1 6 7 10
17 16 15 17 21 26 23 22 20 17 15 15 14 11 13 9 10 8 4 11 21 3 5 13 15 17 15 16 6 2 7 8 3 4 4 4 5 5 10 4 5 2 5 3 6 4 7 10 9 9 8 7 8 9
14 15 17 16 18 23 25 24 22 17 16 14 14 12 11 12 10 10 8 7 9 1 5 10 12 12 18 17 13 6 3 4 5 5 5 3 4 3 5 4 8 4 6 3 6 6 6 8 9 9 9 9 10 10
13 12 12 15 16 18 22 21 22 17 16 15 14 13 11 12 11 11 10 10 8 2 3 5 3 11 8 11 18 18 15 11 9 5 3 2 3 6 7 9 8 4 8 6 3 4 1 7 9 9 7 8 9 10
15 17 14 13 16 17 18 25 22 18 16 14 14 12 11 12 11 11 12 13 16 4 2 5 12 10 9 8 11 13 12 9 4 3 3 4 5 5 5 5 3 5 4 4 3 6 3 6 7 8 9 10 10 9
15 15 17 15 14 16 18 21 23 20 17 15 14 11 11 11 10 7 2 13 22 16 2 3 2 2 3 10 11 11 9 2 2 3 3 3 5 2 3 2 3 5 5 4 2 5 9 7 7 9 9 9 10 10
17 17 16 15 15 14 15 18 23 21 17 16 14 12 12 12 12 5 2 5 19 18 2 3 3 4 3 5 2 1 4 2 3 3 5 7 7 5 3 2 5 5 6 6 5 1 4 7 5 6 6 6 6 7
21 18 17 16 15 14 14 16 20 19 16 16 14 11 13 12 13 12 18 10 20 5 4 3 4 3 10 4 4 5 3 3 5 3 4 3 3 3 1 6 5 3 4 5 6 8 8 6 5 6 7 4 4 7
23 22 20 18 17 16 16 16 21 17 14 13 11 9 8 7 6 5 10 15 17 5 2 2 3 1 6 3 2 4 4 5 4 5 7 4 4 3 5 6 5 5 3 2 1 5 5 5 5 5 6 8 6 6
25 24 22 20 17 17 17 21 22 16 14 12 10 5 3 8 11 18 5 2 2 2 3 4 7 4 5 3 3 4 3 3 2 6 3 4 2 6 6 7 5 4 5 6 4 1 3 3 3 4 6 6 7 6
28 26 23 20 18 17 18 24 21 16 13 8 5 3 3 26 7 2 4 4 5 4 5 5 9 7 4 3 3 3 1 3 3 4 4 4 3 4 6 7 6 6 7 7 6 5 6 5 5 4 5 7 8 9
29 27 24 22 19 17 20 24 22 20 7 9 3 4 8 3 3 5 6 5 6 6 7 5 6 6 2 2 2 3 3 3 5 7 3 2 4 8 7 6 6 7 7 8 9 7 8 9 8 7 8 8 9 9
29 27 25 22 21 18 23 25 23 15 12 3 3 4 4 3 6 6 9 4 5 5 6 6 4 5 3 3 2 2 4 5 2 3 1 4 7 6 5 5 7 8 8 8 9 10 11 11 11 9 9 9 8 9
27 26 24 23 20 21 24 22 20 17 4 3 4 5 5 5 6 4 5 7 3 5 8 8 6 3 3 4 2 4 1 3 3 4 3 5 8 6 5 5 6 7 8 8 9 9 10 10 11 11 10 8 8 9
26 26 25 23 24 24 22 20 22 11 5 3 4 3 5 3 2 3 3 4 2 5 8 5 3 2 2 2 2 2 3 2 3 4 3 6 7 6 6 6 7 6 6 7 8 9 9 9 10 11 10 9 9 9
26 22 22 25 24 21 23 22 13 4 2 1 3 2 1 4 3 3 2 4 1 1 4 3 3 3 3 2 4 1 4 3 3 4 5 6 6 7 7 7 8 8 8 9 9 9 9 9 9 9 9 9 9 9
27 8 23 26 25 18 23 12 5 2 3 3 2 3 2 2 4 3 1 3 0 1 2 2 5 2 3 2 3 2 2 4 6 6 6 8 7 7 8 9 9 9 9 9 9 9 9 7 4 6 8 7 7 7
15 19 22 31 32 22 6 3 4 4 3 2 3 4 3 4 5 4 2 2 1 2 2 2 2 3 2 2 3 4 6 7 7 7 6 7 10 10 10 10 9 9 9 8 8 7 6 4 5 6 5 4 4 4
20 26 32 44 27 9 4 3 3 3 3 3 4 3 3 4 4 4 3 3 4 4 4 2 2 1 2 2 7 8 7 7 7 7 7 11 11 11 11 10 9 8 7 6 4 5 5 6 5 4 4 3 4 3
40 40 26 26 16 5 4 3 3 4 3 3 3 4 3 3 3 3 4 3 2 2 3 2 2 2 4 6 7 8 7 8 8 8 7 7 10 10 10 8 8 8 6 5 4 2 3 2 2 2 3 3 3 3
20 18 20 12 2 6 4 4 4 4 5 3 6 4 3 3 3 2 3 1 2 2 3 3 6 5 9 12 13 14 13 12 6 6 8 7 9 8 7 7 7 4 4 3 2 3 1 3 3 3 2 3 3 3
11 12 6 3 3 3 4 5 5 5 3 5 5 3 3 3 3 2 1 2 3 2 2 6 8 8 8 9 12 12 12 12 13 14 13 13 5 7 7 6 5 4 2 1 1 2 2 3 2 1 1 2 1 3
8 4 4 3 4 4 4 1 3 3 4 6 5 4 3 3 2 3 2 2 3 3 8 11 12 15 15 15 15 13 11 12 11 11 9 8 7 6 6 4 2 2 2 2 1 1 2 2 1 1 1 1 1 2
5 4 3 3 4 4 2 2 3 4 4 4 4 4 4 3 4 3 3 3 5 10 9 12 16 11 14 14 8 11 9 10 11 9 8 8 7 6 5 5 3 2 2 1 1 1 1 1 0 2 1 2 1 1
3 5 3 4 2 4 4 5 3 3 3 4 4 3 4 4 4 4 4 5 9 9 10 15 14 10 9 7 11 10 8 10 10 9 6 4 7 7 6 4 3 2 2 2 2 1 1 1 2 2 3 4 3 3
5 4 3 2 3 2 4 5 4 5 4 4 3 4 4 4 4 3 4 10 11 10 10 10 10 9 8 13 9 11 11 8 9 8 7 6 5 5 5 5 5 5 2 2 2 3 2 2 3 3 4 4 3 4
3 3 2 2 1 3 3 3 3 2 3 4 5 6 4 4 4 3 4 9 10 19 20 18 15 14 12 14 14 14 12 9 6 8 9 6 4 2 1 3 3 4 2 2 2 3 3 3 3 3 3 3 3 5
3 4 2 2 3 2 2 2 3 2 3 2 6 4 5 1 2 4 5 15 19 22 19 16 14 15 16 16 16 16 13 12 12 11 10 8 5 5 5 4 4 6 3 2 2 3 3 3 3 3 3 3 2 3
3 2 2 3 2 3 3 3 2 2 2 2 2 2 2 3 2 3 10 16 20 21 19 17 16 16 16 16 14 11 13 14 13 9 8 5 7 5 6 5 5 4 4 3 4 4 3 3 3 2 3 3 3 3
3 3 2 2 2 3 3 3 2 2 2 3 2 3 3 3 2 2 7 17 18 17 18 18 18 18 17 17 15 13 11 10 8 7 5 5 5 9 9 7 6 5 5 4 4 3 3 2 3 2 3 3 4 4
2 1 2 3 3 3 4 3 4 3 1 3 2 2 5 3 5 1 2 10 16 16 17 16 15 14 15 15 15 15 11 10 9 8 7 7 8 9 8 7 6 5 5 4 4 3 3 3 3 3 4 5 4 4
3 3 2 2 2 3 2 1 1 1 2 2 2 2 3 4 4 3 3 4 10 13 13 14 14 13 11 11 11 9 9 12 13 10 9 8 9 8 8 6 6 5 5 5 4 3 3 3 3 3 3 4 5 5
1 2 2 2 3 3 2 2 1 2 2 2 2 2 1 1 3 3 4 1 3 10 12 12 11 12 12 12 11 12 10 12 13 12 12 12 11 9 7 6 6 5 6 5 4 4 3 3 3 3 3 3 4 5

GFSWCAN_925_spd_114.txt.gz
Wind_Speed
17 18 18 16 33 27 24 22 19 16 15 13 11 9 10 7 8 7 3 8 4 2 10 16 12 10 10 8 4 10 7 7 5 5 4 5 5 6 7 7 5 3 3 4 6 4 1 21 7 6 2 5 8 7
14 15 14 18 21 25 24 22 20 16 15 14 13 12 10 9 8 8 3 5 8 2 6 13 21 22 17 13 8 4 6 9 3 4 4 5 5 4 10 4 9 3 5 2 4 3 5 8 9 10 10 7 10 9
16 20 17 15 19 23 26 23 21 18 16 13 14 13 10 11 7 9 7 6 3 1 7 11 6 1 12 17 15 6 3 3 3 6 3 3 4 5 6 6 9 3 11 3 4 5 6 8 8 10 12 11 11 11
16 15 19 14 15 20 24 23 21 19 16 14 13 14 11 10 11 8 11 7 4 2 3 4 4 2 5 5 14 14 12 5 8 3 3 3 3 6 8 8 6 6 6 6 4 4 2 10 8 9 10 11 10 10
15 15 15 14 16 18 21 22 21 20 16 14 13 13 11 9 10 8 11 13 9 3 3 6 20 19 7 6 8 12 8 4 4 3 2 3 5 5 6 5 3 6 3 3 2 6 4 5 7 9 9 10 11 10
16 15 13 13 14 16 18 19 21 21 16 14 12 12 10 9 9 5 2 12 16 9 2 3 3 5 4 5 8 8 9 3 3 2 3 3 10 4 3 2 4 4 5 4 2 2 7 6 7 7 8 8 9 10
17 15 16 16 14 14 17 16 24 23 18 13 12 12 9 9 10 7 1 3 7 15 2 3 3 3 5 2 2 2 4 2 3 2 4 8 8 3 2 3 6 4 4 5 4 2 5 10 5 6 5 3 5 8
16 15 14 14 16 15 15 17 18 20 18 14 11 10 8 8 6 10 19 10 8 4 3 3 4 4 7 3 2 3 3 2 4 4 4 5 5 4 2 7 5 3 4 5 6 7 6 5 7 8 10 11 5 8
17 18 18 16 14 16 16 15 18 19 18 15 11 7 6 6 5 5 5 7 11 5 2 3 3 1 5 3 2 3 4 4 4 5 6 4 4 2 5 7 7 6 3 3 3 5 5 7 7 8 9 10 9 8
18 20 19 19 17 15 15 14 19 19 16 14 11 5 3 7 10 8 5 1 2 3 3 3 6 4 5 3 4 3 3 3 3 6 3 5 3 9 8 8 7 7 7 9 0 3 6 6 6 7 7 8 10 10
18 21 21 20 18 16 17 18 23 21 17 12 4 3 5 20 7 3 4 5 4 4 5 5 9 6 3 4 4 2 1 3 3 2 4 4 3 4 8 8 8 8 9 9 9 10 10 9 7 7 8 12 12 13
22 24 23 21 19 16 19 21 27 22 11 8 5 1 4 4 4 5 5 4 6 6 7 5 5 5 2 2 2 4 2 2 4 2 2 2 4 8 8 8 8 8 8 10 12 11 13 14 13 13 12 11 12 10
27 28 26 23 20 17 18 25 29 15 10 2 2 3 3 5 7 6 10 4 5 4 4 5 3 3 3 3 1 1 3 5 6 2 2 3 8 7 6 7 8 11 10 11 11 11 12 12 15 13 11 10 10 11
30 31 27 24 21 18 17 24 28 11 4 2 4 6 5 5 6 4 6 6 3 4 7 6 5 3 2 2 1 3 3 3 3 3 4 5 8 7 7 7 7 7 9 10 10 10 10 10 11 10 10 9 10 10
32 30 27 23 21 19 20 24 22 10 4 3 4 5 4 3 4 2 3 3 3 6 7 4 2 2 1 3 3 2 3 4 3 3 3 7 8 7 7 7 6 6 6 8 9 9 8 8 9 10 9 9 9 8
30 24 25 24 21 19 26 24 14 6 2 3 3 4 2 1 1 1 3 3 1 4 4 1 3 3 4 2 4 3 3 3 3 4 6 8 9 8 7 7 8 9 9 9 9 8 8 8 8 9 8 8 9 8
31 16 26 28 25 25 24 12 4 5 4 3 2 2 5 3 2 3 2 2 1 1 2 3 5 3 3 3 3 3 3 5 7 7 6 9 9 8 9 9 8 9 9 9 9 8 6 4 3 6 7 5 6 4
25 21 30 31 30 24 7 2 2 3 4 3 3 3 1 4 2 3 2 1 0 2 1 1 2 3 3 3 4 4 5 7 7 7 7 8 12 12 11 11 10 10 10 8 7 6 5 4 5 5 4 1 4 4
20 31 36 36 28 9 4 4 4 3 1 2 2 2 2 2 3 2 1 2 1 1 2 1 1 1 2 3 7 8 7 7 7 7 7 12 12 12 12 10 10 10 8 7 6 4 5 7 6 4 4 4 4 5
20 33 37 33 19 3 3 2 6 3 4 3 3 4 2 3 2 0 1 3 2 2 2 1 3 2 3 6 7 7 7 8 8 8 8 7 11 11 11 11 10 8 7 5 4 2 3 3 3 4 5 5 7 7
28 22 38 29 8 4 2 3 4 3 4 3 5 5 3 4 3 3 3 1 1 1 3 3 5 6 11 13 15 14 13 13 7 7 9 7 12 10 8 10 8 7 5 4 5 4 2 5 5 5 5 7 5 6
26 36 16 13 2 4 2 3 5 6 3 4 6 4 3 3 3 3 2 1 2 2 2 6 6 8 8 9 12 12 11 11 16 16 15 14 6 8 9 8 6 4 4 4 4 5 5 6 5 2 3 3 3 6
20 15 6 9 5 4 3 9 3 7 4 7 6 5 3 3 3 4 2 2 2 2 8 10 13 13 15 16 15 13 13 14 13 13 13 10 10 9 9 6 4 4 4 5 3 3 6 2 3 2 1 2 2 4
7 3 3 3 3 4 3 3 3 3 4 5 5 4 5 3 4 3 3 4 5 8 8 12 15 10 13 15 8 12 11 13 13 12 11 11 9 8 7 6 5 4 4 4 3 3 3 5 1 2 2 2 2 3
3 3 1 3 3 4 4 5 4 4 3 4 5 3 4 4 4 4 3 6 8 8 8 13 13 10 9 8 11 12 11 14 13 11 10 9 11 9 7 6 5 5 3 4 5 4 4 2 1 1 1 2 1 1
3 3 2 2 3 3 5 4 5 6 4 4 3 4 4 4 5 4 2 9 10 10 11 10 9 9 8 14 9 12 13 12 14 12 10 9 10 10 9 7 8 7 5 2 1 3 4 4 2 1 3 4 3 4
3 2 2 1 1 3 3 2 4 3 4 5 5 7 5 4 5 2 3 6 8 19 20 18 16 13 11 15 16 15 13 9 10 14 12 8 6 3 2 3 4 9 6 4 3 2 2 5 3 3 3 2 1 3
3 2 3 2 2 1 1 2 3 3 2 2 6 5 4 1 2 2 2 13 19 21 18 15 12 14 17 18 20 18 15 15 20 18 14 9 6 6 6 6 9 10 7 6 4 2 1 1 2 3 2 2 2 2
2 2 3 2 1 2 3 2 2 2 3 2 3 2 2 3 2 3 5 16 20 18 15 14 13 19 21 20 17 16 16 16 17 10 9 6 9 6 7 6 8 7 6 4 6 6 4 3 3 2 3 1 2 3
2 2 2 2 1 2 3 4 2 2 3 3 2 3 3 3 3 5 4 13 14 12 13 14 16 17 16 16 14 13 13 12 11 11 6 5 8 16 13 10 8 8 7 7 7 3 4 2 3 3 3 2 3 4
1 0 2 2 3 3 3 3 2 2 1 2 2 5 5 3 2 7 11 6 10 11 12 12 11 13 15 14 14 14 12 9 10 10 12 14 13 13 12 10 9 8 6 6 5 5 4 4 4 3 4 4 3 2
2 3 1 2 3 3 3 2 1 1 3 3 2 3 3 4 4 2 7 12 11 13 12 12 12 13 13 11 11 10 9 14 15 14 12 12 13 13 13 11 10 8 6 6 4 3 3 3 3 3 4 4 4 4
2 2 2 3 3 4 2 2 2 2 2 2 2 1 3 3 4 3 3 9 13 1 11 8 10 15 15 15 12 12 12 13 14 14 14 15 13 12 11 9 9 8 8 7 5 4 4 3 3 3 3 3 3 4

GFSWCAN_925_spd_117.txt.gz
Wind_Speed
21 17 37 34 30 26 24 22 19 16 15 14 10 9 9 6 5 5 3 3 4 1 5 5 5 4 4 2 1 5 5 5 4 5 3 3 2 3 4 4 8 4 3 2 3 4 3 17 8 7 6 7 8 9
18 18 20 27 32 27 24 22 20 17 14 15 12 10 9 8 7 5 3 4 2 1 4 14 23 26 17 12 1 4 2 3 2 3 3 3 3 3 5 4 3 3 2 2 4 2 3 6 6 7 10 9 11 9
17 18 16 17 23 32 28 22 21 18 16 15 12 11 9 9 6 7 1 6 4 1 5 2 5 5 5 16 20 2 2 2 4 2 1 2 2 3 3 3 4 3 7 3 3 6 7 9 7 9 10 11 10 11
17 18 17 14 17 22 26 23 23 19 17 13 12 12 9 8 8 5 4 6 4 1 2 5 13 4 4 7 17 16 8 3 2 1 0 2 1 2 2 4 3 3 5 4 3 5 5 9 7 7 9 11 11 10
17 18 18 18 18 19 24 25 23 19 16 11 11 13 10 7 7 6 3 7 7 2 2 5 19 12 11 10 7 17 9 2 2 2 1 2 2 3 3 2 2 3 2 2 1 1 4 3 4 6 7 8 10 11
17 18 17 17 16 18 23 24 23 19 16 12 12 12 10 6 6 3 1 8 14 7 0 3 6 4 10 8 10 4 9 2 2 2 3 3 3 2 1 1 4 5 5 3 2 2 6 6 4 4 4 4 8 9
17 16 16 15 15 18 21 22 20 23 17 14 11 12 8 6 9 4 1 1 3 13 2 3 3 2 10 4 4 3 5 1 2 2 2 3 2 2 1 1 7 6 5 4 3 1 5 7 3 5 5 3 9 11
18 17 17 17 15 17 20 20 21 23 18 14 13 10 7 4 5 7 13 6 7 5 1 3 4 1 5 2 1 1 1 1 2 3 2 2 2 3 1 8 9 7 7 6 6 6 5 6 7 8 11 11 10 9
18 17 16 18 17 16 19 20 23 22 18 15 11 9 4 3 4 3 4 6 4 3 1 3 2 3 1 2 2 1 1 2 3 3 3 2 2 3 4 9 9 8 6 4 6 7 6 6 7 8 9 10 10 10
18 16 17 18 17 17 16 19 22 23 20 16 10 4 2 5 7 11 4 2 1 2 3 3 2 2 4 2 2 2 2 2 2 4 2 3 3 5 8 10 9 9 10 10 6 8 6 7 5 7 10 11 12 10
16 17 16 16 16 17 17 17 23 22 20 8 4 4 6 11 5 2 3 3 3 3 4 4 6 3 2 3 3 2 2 2 2 3 3 2 2 3 7 9 8 11 14 13 14 14 14 12 9 9 10 13 12 12
15 18 18 16 16 16 17 18 26 18 11 11 7 2 6 4 3 5 4 3 5 5 3 4 4 6 1 3 3 3 2 1 4 1 2 2 3 7 6 8 8 12 15 14 15 13 14 14 14 14 12 12 12 10
17 19 20 19 17 16 17 22 29 14 15 5 2 1 2 3 6 6 7 3 3 3 3 2 1 3 2 2 3 1 3 4 2 0 2 2 7 6 7 9 10 14 15 14 13 13 13 14 16 15 14 13 12 14
20 22 23 21 18 16 19 25 26 15 4 2 3 4 4 5 5 4 4 5 4 4 6 4 2 3 2 2 2 3 4 2 3 2 2 3 7 8 9 8 9 7 10 11 11 12 12 13 14 14 14 12 12 14
21 23 25 21 19 17 18 27 24 5 2 1 3 4 4 1 2 1 2 1 2 4 6 3 2 3 1 3 3 2 2 3 1 2 2 5 7 8 8 8 7 5 8 10 10 9 10 11 12 12 11 10 10 11
25 24 23 22 21 18 19 25 11 3 2 2 4 3 3 3 2 1 2 2 3 2 2 2 3 3 2 3 3 5 2 2 3 3 5 7 8 7 7 7 11 14 14 12 11 10 10 10 10 9 9 8 8 9
31 10 25 24 22 18 27 8 4 2 3 3 2 1 2 4 3 2 2 2 3 2 2 2 4 4 2 2 3 2 1 3 6 6 5 8 8 7 11 13 13 13 13 13 12 8 7 6 6 6 5 3 3 5
18 18 29 27 24 22 5 3 3 4 4 3 1 2 2 1 2 1 1 2 2 2 2 2 2 1 3 3 3 3 3 6 6 7 6 6 12 16 15 13 13 13 13 11 9 6 4 6 9 7 5 5 6 5
18 26 30 30 21 5 3 2 2 2 2 1 1 0 1 1 1 1 1 3 3 3 1 2 1 1 2 2 5 7 7 6 7 6 6 15 16 16 16 15 15 13 10 9 8 7 6 9 9 6 7 6 8 8
21 33 34 32 13 3 3 2 5 2 3 3 1 1 1 1 0 1 1 2 1 1 2 1 2 1 2 2 4 7 7 8 9 8 6 5 16 17 17 17 15 12 10 9 9 7 7 6 7 6 6 9 12 9
29 26 29 23 5 2 1 3 4 2 2 2 2 3 1 1 1 2 0 1 1 1 2 1 3 4 10 13 16 19 16 16 6 5 8 7 17 18 17 13 16 14 13 12 9 6 12 13 10 8 10 8 8 6
16 23 7 8 1 3 2 3 2 4 2 2 3 3 2 2 2 2 1 0 1 2 3 3 5 5 6 5 13 19 21 21 20 20 19 18 7 9 14 17 14 11 10 11 12 13 13 10 7 6 6 7 6 3
22 12 5 5 3 3 1 4 3 5 3 4 3 2 1 1 2 3 2 1 1 1 7 7 12 16 13 19 20 20 23 22 16 16 19 18 20 19 18 14 11 15 15 12 11 14 10 6 7 5 3 5 7 4
12 4 4 5 4 3 2 3 3 3 2 2 4 3 4 2 2 1 3 3 3 5 5 9 16 9 11 12 3 10 20 22 19 20 18 17 14 18 17 14 13 11 13 11 12 12 9 8 4 4 5 3 5 4
5 4 2 3 3 5 4 4 3 3 3 4 3 2 3 2 2 3 3 3 7 7 8 14 12 8 7 3 9 14 19 23 16 12 21 21 19 19 17 14 12 12 10 10 10 12 10 8 6 5 5 3 5 3
3 4 4 5 4 5 5 5 6 5 3 3 4 2 2 3 3 5 2 6 6 9 10 10 10 9 7 15 8 10 19 22 22 15 15 23 24 22 17 13 15 10 11 8 12 13 13 9 7 8 6 5 5 5
5 3 2 1 2 2 1 1 2 3 4 5 3 4 3 4 5 2 1 0 3 10 20 20 19 15 11 17 20 19 17 23 23 18 17 18 16 13 20 21 17 17 15 12 11 8 10 13 10 8 6 3 6 5
1 3 4 2 3 2 1 1 4 4 1 1 4 4 6 3 1 2 2 8 17 22 21 19 20 18 23 23 25 22 21 25 28 24 18 12 8 8 10 14 17 16 12 11 11 9 7 7 10 9 6 5 8 7
2 1 3 3 2 3 3 3 1 2 3 2 1 2 2 2 3 5 8 11 18 19 14 13 16 26 28 27 26 25 26 26 20 7 5 3 6 6 8 12 14 11 8 11 11 10 10 9 8 8 7 5 5 5
1 1 3 1 2 2 2 2 2 1 1 1 3 2 2 3 8 16 12 10 12 8 11 18 17 20 18 18 16 16 16 17 15 15 7 7 13 16 15 16 15 12 9 9 9 9 8 8 8 7 6 5 5 5
1 1 1 3 3 2 1 1 1 2 2 2 3 3 2 2 4 16 25 14 15 19 19 16 17 18 19 16 16 14 11 10 13 13 12 14 19 19 18 16 16 16 14 11 7 7 8 8 6 5 7 7 6 6
2 2 2 2 2 1 1 2 3 2 1 1 1 2 1 2 2 4 19 23 8 11 14 16 15 13 13 13 15 14 14 14 13 13 14 17 17 17 17 17 15 16 14 12 11 9 9 8 4 4 3 5 4 5
1 2 2 3 2 3 1 1 2 1 0 2 2 1 2 3 3 4 11 20 20 14 11 11 12 16 14 16 17 13 11 13 16 14 13 15 16 17 17 17 16 15 13 13 11 8 7 8 6 4 4 5 4 5

GFSWCAN_925_spd_120.txt.gz
Wind_Speed
27 27 27 24 25 23 23 22 20 18 17 13 10 9 8 7 8 7 7 6 4 2 3 2 2 1 2 2 2 4 4 4 4 5 3 2 2 3 2 2 4 4 3 4 4 4 4 19 7 6 3 9 10 7
18 18 25 30 31 24 24 23 20 20 18 14 12 10 9 8 9 7 5 5 5 4 3 5 17 21 13 9 4 2 3 2 1 3 2 2 2 3 3 2 2 3 2 2 4 2 4 5 5 7 7 6 9 10
19 21 20 34 32 30 25 23 21 18 16 15 12 11 10 8 8 6 8 7 4 2 3 3 3 7 6 16 19 4 2 1 2 3 2 2 1 2 1 2 3 3 4 3 4 4 5 6 5 8 8 9 8 7
19 20 21 27 31 29 28 24 22 18 17 15 13 12 10 9 7 8 5 6 5 3 1 5 9 5 3 8 14 21 4 4 3 2 1 1 1 0 2 3 2 2 4 1 3 5 5 5 5 6 5 7 9 9
19 20 20 25 30 35 30 27 22 20 18 13 14 13 10 9 8 7 5 4 3 3 1 4 16 6 7 12 15 15 8 3 2 2 1 2 2 2 2 1 2 3 2 1 2 1 2 2 3 4 4 6 7 9
19 18 19 17 23 33 30 27 23 20 16 12 13 13 11 9 7 5 3 4 9 4 1 3 5 5 5 11 8 7 8 3 2 2 2 3 3 2 0 0 2 4 3 4 2 3 4 4 3 4 1 4 8 9
20 20 19 20 23 24 28 28 25 20 15 14 14 13 10 7 9 4 2 2 9 8 1 3 4 3 5 5 3 3 3 2 2 1 1 2 2 2 1 2 6 6 5 4 4 3 3 5 3 8 9 8 12 13
21 19 20 20 20 26 28 28 27 23 17 15 14 11 8 5 2 5 4 1 13 4 2 1 3 2 1 2 1 1 1 2 1 2 2 2 2 1 1 5 8 7 6 4 5 5 5 7 7 8 12 10 10 9
20 18 18 23 20 24 27 25 26 25 19 17 15 12 6 2 2 3 4 4 2 2 2 2 2 3 1 2 1 1 2 0 1 2 3 3 2 2 4 6 9 6 3 0 6 7 6 6 5 7 9 9 9 8
18 18 20 17 20 20 24 24 30 25 22 20 13 2 2 4 7 13 3 1 1 2 2 2 1 2 3 0 1 2 1 2 1 4 2 3 2 4 6 8 8 9 10 6 7 6 6 6 8 8 9 9 9 8
18 18 20 23 22 20 21 29 29 27 23 6 3 2 2 8 5 2 2 2 2 3 4 4 5 3 1 3 3 2 2 1 2 3 4 2 3 3 6 8 8 12 14 14 13 11 11 9 7 7 8 9 9 9
19 18 18 18 20 22 22 27 31 21 13 9 8 5 5 2 2 3 3 3 4 5 3 4 4 4 1 3 3 2 2 1 3 0 2 2 1 9 9 10 9 11 13 13 12 11 11 11 9 10 9 9 8 9
20 19 18 18 18 19 20 28 27 19 17 10 3 2 3 3 4 5 7 4 3 3 3 2 1 4 1 3 2 2 3 4 1 2 2 1 7 8 8 9 10 11 12 12 12 12 13 14 14 14 12 10 11 13
18 21 19 18 17 17 22 27 20 17 3 3 4 3 3 4 4 4 4 4 5 3 5 4 2 3 2 2 3 3 4 1 2 2 4 3 8 9 7 7 8 7 10 11 12 14 14 14 14 13 11 11 11 12
16 21 20 17 17 17 21 27 18 9 3 3 3 4 4 2 3 2 4 2 3 2 5 3 3 3 1 3 2 2 1 3 4 4 3 5 9 9 8 8 8 6 10 11 12 12 13 13 13 11 9 8 8 9
17 20 19 19 17 17 21 28 8 3 3 2 3 2 3 2 3 1 1 1 1 2 2 3 3 3 3 3 3 5 3 5 3 3 4 8 7 6 8 8 12 15 15 13 13 12 11 10 11 10 9 10 11 12
21 6 20 21 18 19 26 8 2 2 2 2 3 1 2 3 4 1 1 1 4 2 2 2 5 5 2 3 3 3 4 3 4 6 5 7 9 8 11 15 17 17 15 13 13 11 10 8 8 6 6 6 6 9
10 18 25 23 22 19 4 3 2 3 3 3 1 3 1 2 3 2 2 2 1 1 1 2 3 2 4 4 3 3 2 3 3 6 5 6 12 17 19 18 19 18 16 14 11 9 6 7 8 8 5 5 5 5
19 28 27 27 22 5 3 2 3 3 4 2 1 0 0 2 2 3 2 3 2 3 1 2 2 3 3 2 3 2 7 3 5 3 3 16 22 21 21 20 18 17 15 13 12 10 7 10 7 4 3 7 4 6
24 31 28 24 14 2 1 1 4 2 2 3 1 2 2 3 2 1 2 2 1 1 1 2 3 2 3 3 3 5 6 7 9 8 6 4 19 21 21 20 19 17 15 14 11 8 9 8 10 6 5 12 10 9
26 25 27 16 0 1 2 2 1 2 2 1 2 3 2 1 0 1 1 1 1 1 2 3 2 1 3 9 14 18 16 18 9 6 9 8 18 19 21 20 18 17 15 13 13 10 13 13 11 8 9 8 6 4
11 21 9 6 1 2 1 3 2 2 2 1 2 2 1 1 2 2 1 1 3 3 3 3 3 3 5 5 12 18 21 19 18 18 17 19 8 10 14 19 17 16 16 17 12 16 18 15 11 11 9 8 7 5
21 10 3 3 1 2 3 6 2 3 2 2 2 1 2 1 2 2 1 3 3 4 4 4 9 13 12 16 20 21 25 20 14 16 17 17 17 19 19 21 23 18 14 17 21 21 17 12 11 10 9 10 8 6
11 4 3 4 5 3 2 2 3 3 2 2 3 2 3 2 1 1 3 3 3 2 3 7 14 7 8 12 6 12 18 21 17 16 20 18 13 16 23 21 18 22 21 21 20 18 15 13 12 11 10 10 11 11
4 5 3 5 2 3 4 3 3 2 3 4 2 2 3 2 1 3 3 2 5 5 6 11 10 7 8 3 7 15 23 23 18 13 20 19 17 16 17 18 18 21 21 22 21 17 16 13 12 11 12 9 11 8
5 6 7 4 3 4 5 4 5 5 3 1 4 2 2 2 2 5 3 2 3 7 8 9 8 6 6 12 9 12 18 24 22 15 17 24 25 21 15 12 13 17 19 16 18 19 17 15 13 13 14 11 10 10
4 4 2 1 1 1 1 1 2 3 3 5 3 2 3 3 5 3 3 1 2 7 17 18 17 13 10 12 17 16 26 26 23 19 22 25 27 27 28 23 18 21 18 16 15 19 19 18 16 15 13 11 9 10
1 1 2 1 1 1 3 1 3 5 3 2 4 3 5 6 2 3 2 13 7 14 20 20 19 18 19 20 22 24 23 22 22 20 20 16 14 17 22 23 20 18 18 16 16 16 15 18 16 14 13 12 10 11
1 1 2 2 2 3 1 2 2 0 1 1 4 2 2 2 3 4 7 13 4 15 12 13 13 20 22 24 23 24 27 30 22 6 6 3 4 7 11 14 19 20 18 16 14 13 13 14 16 15 13 10 11 11
2 1 3 1 3 2 3 2 2 2 1 2 3 2 2 3 10 18 18 11 6 9 12 17 18 20 18 19 17 15 22 26 27 21 9 7 16 17 19 19 19 17 15 14 14 13 13 13 13 13 12 11 12 11
1 1 2 2 1 2 3 2 3 2 2 2 3 3 2 2 3 24 31 24 8 16 17 15 15 18 21 19 17 15 10 16 14 12 11 6 12 14 19 20 19 17 14 14 13 13 13 14 13 12 11 11 10 9
2 2 4 2 2 3 3 0 1 1 1 3 2 2 3 3 3 7 27 26 22 17 3 14 16 15 16 16 17 16 7 16 16 13 12 11 13 15 17 18 18 16 16 14 12 11 10 11 10 8 9 10 11 11
2 3 3 3 2 1 3 2 0 1 2 2 2 2 2 3 2 3 14 23 20 17 11 4 10 11 12 12 14 12 8 10 11 10 10 10 12 14 16 16 17 16 14 14 12 11 11 11 9 7 6 6 6 7

GFSWCAN_925_spd_123.txt.gz
Wind_Speed
34 28 28 25 25 22 22 22 21 18 17 13 10 11 11 10 10 5 8 9 4 2 1 1 1 3 2 2 2 3 3 4 3 3 2 1 1 2 2 2 1 4 3 3 3 3 2 15 7 5 4 5 8 9
30 28 31 27 25 24 23 22 21 20 18 14 12 12 12 11 10 9 5 9 7 5 2 2 6 8 5 4 4 2 3 1 2 3 1 0 2 2 1 2 3 2 2 1 3 1 4 5 5 5 8 5 5 8
31 28 28 28 29 25 25 23 22 21 18 15 14 13 12 11 9 7 11 7 6 3 3 2 1 6 5 15 11 3 1 2 1 3 2 1 1 2 1 2 2 2 4 2 2 2 3 5 4 7 7 7 6 7
24 25 25 30 32 28 28 24 23 22 19 16 15 13 12 10 10 11 7 8 8 2 3 3 5 2 3 3 9 14 3 3 4 2 1 1 1 1 2 2 1 1 3 0 1 2 2 4 6 6 6 6 7 10
21 24 23 32 36 31 28 26 24 21 20 18 16 14 12 11 11 9 10 5 5 3 2 3 13 2 5 11 11 12 5 2 2 2 2 2 2 1 1 0 1 2 1 1 3 2 2 3 3 4 4 6 6 7
21 21 26 35 38 36 32 28 24 22 20 19 18 14 12 10 12 6 3 3 4 4 3 1 4 4 4 10 9 7 6 2 2 2 2 3 3 2 1 2 3 3 4 4 2 3 4 4 4 9 2 4 8 9
21 18 22 34 36 38 35 29 26 24 19 20 19 16 12 9 10 5 3 3 8 4 2 2 3 2 2 4 3 2 3 2 2 1 1 2 2 2 2 2 3 5 5 5 3 3 4 6 4 7 5 13 12 12
21 21 19 26 36 35 33 30 27 23 21 21 19 16 12 8 8 4 4 5 10 4 1 1 3 2 1 2 1 2 2 1 0 0 1 2 2 1 1 4 7 6 6 5 5 5 5 8 8 9 12 10 8 8
21 20 22 23 26 34 32 31 28 24 23 22 20 17 10 3 3 4 6 11 6 4 2 1 2 2 1 2 2 2 2 1 2 2 2 3 1 3 2 4 6 5 2 4 8 7 6 9 7 6 7 7 7 7
19 21 19 22 29 33 32 30 28 26 27 23 13 4 2 1 9 16 2 1 1 1 0 2 1 1 3 1 1 2 1 2 1 3 2 1 1 4 4 5 5 6 5 6 7 5 6 6 6 7 8 8 8 8
19 18 23 22 27 31 32 33 31 30 23 4 3 2 5 10 4 3 2 1 1 2 3 4 4 2 1 3 3 2 2 2 2 2 3 2 2 4 6 7 6 9 11 11 11 9 8 7 6 5 6 8 9 9
20 21 15 23 23 29 33 34 33 16 8 7 12 9 5 2 2 3 2 2 3 4 4 5 5 4 1 3 3 2 2 1 3 2 2 2 1 8 8 8 7 8 10 10 9 10 10 10 8 8 8 8 8 8
22 21 20 17 21 25 36 36 24 20 24 8 5 3 2 1 2 5 6 4 3 3 4 3 1 4 1 3 3 2 3 3 1 1 3 3 6 7 8 8 8 9 11 11 11 11 11 13 12 12 11 11 11 11
22 20 21 19 19 19 31 31 22 20 3 3 3 1 3 4 4 4 4 4 4 1 3 3 2 3 1 2 3 4 4 1 2 2 5 4 8 9 7 7 7 6 9 11 12 13 13 14 13 12 11 9 10 12
21 20 19 18 20 22 24 24 21 4 4 3 3 3 4 3 2 3 3 2 2 1 2 2 3 3 1 2 2 3 2 3 4 4 3 4 10 10 8 7 8 7 10 11 13 13 13 12 11 10 9 8 8 9
20 19 14 17 17 22 22 19 12 3 3 3 2 0 3 1 3 3 3 3 2 2 1 2 3 3 3 3 3 5 3 5 4 3 3 8 9 7 8 8 12 17 17 16 13 13 12 11 10 9 8 9 9 9
16 6 17 18 18 22 21 8 2 3 3 2 2 1 2 2 3 2 2 1 0 3 3 3 4 5 2 2 3 4 5 3 2 3 4 7 10 9 11 14 18 20 18 16 15 13 13 11 10 9 9 9 10 8
8 20 21 20 24 18 5 3 3 2 3 3 2 3 2 2 2 1 2 2 1 2 2 4 4 3 4 4 3 3 2 2 2 2 3 5 12 15 18 18 22 21 19 17 16 13 11 10 9 8 7 8 7 6
19 25 24 22 19 5 2 2 2 2 4 2 1 2 1 2 2 2 1 5 5 3 3 2 3 3 3 3 3 3 3 3 4 3 2 11 20 20 23 24 22 20 20 18 15 14 11 10 9 7 6 10 9 9
22 26 22 19 12 2 2 1 1 2 2 3 1 1 1 2 2 1 2 2 2 1 1 3 4 3 4 3 4 3 4 6 8 6 2 1 19 23 22 21 19 22 19 16 14 11 8 9 10 9 6 7 8 7
19 18 21 11 2 2 1 2 2 2 1 1 1 2 1 2 2 2 2 0 1 2 2 3 3 2 3 2 8 12 14 17 8 6 7 7 16 17 21 22 22 21 19 17 15 13 13 15 14 9 7 9 7 4
8 18 5 2 1 1 2 4 2 2 2 1 2 2 1 1 2 3 1 1 3 3 3 3 3 3 3 3 8 14 18 17 15 16 17 21 9 11 15 22 20 17 19 18 17 17 18 19 15 12 11 10 8 6
15 9 3 2 2 1 4 6 2 3 2 2 1 1 2 2 2 1 1 3 3 3 5 3 5 8 8 10 15 17 23 20 13 14 16 18 16 18 19 22 23 20 16 17 16 15 15 16 15 13 11 12 11 9
14 6 5 4 4 3 1 1 2 2 1 2 3 2 2 2 0 2 3 3 3 1 2 4 10 4 6 9 3 10 15 17 15 14 17 18 14 15 21 23 23 21 21 19 18 19 19 17 15 14 14 14 14 12
4 5 4 5 3 3 2 2 3 2 3 3 1 3 2 2 1 2 3 3 3 2 1 3 3 1 3 2 6 12 19 20 15 11 18 18 16 15 16 18 21 21 18 18 19 21 20 17 16 16 15 15 15 15
3 4 7 3 3 4 5 3 4 5 3 1 4 2 2 2 0 5 2 2 2 1 2 4 3 2 1 4 6 8 15 19 20 12 16 20 22 17 13 10 9 16 21 23 22 23 22 20 19 17 16 16 14 13
3 4 2 1 1 1 2 1 2 3 3 4 2 2 2 2 5 3 2 2 3 7 10 13 13 8 6 10 12 15 20 21 19 15 20 23 22 22 24 22 18 22 21 23 22 21 22 22 20 18 16 16 15 13
3 1 4 1 1 1 2 1 4 5 3 1 3 3 5 5 3 3 2 12 21 15 6 10 13 12 14 17 19 22 21 19 15 14 17 17 17 20 22 23 20 15 19 20 20 19 20 20 20 18 17 16 14 13
2 1 2 1 0 1 0 2 2 1 1 1 4 2 2 2 4 6 9 21 14 3 9 11 9 11 12 16 19 22 24 24 20 5 5 3 4 12 18 20 20 17 17 18 17 15 16 16 18 18 16 13 12 12
3 2 3 2 3 3 3 2 2 2 1 2 3 2 2 2 8 19 20 22 17 3 7 10 14 15 16 17 16 15 21 22 22 18 8 7 19 19 18 17 16 17 18 18 16 14 12 12 14 15 15 13 12 12
1 2 2 2 1 1 2 2 1 1 2 2 2 3 2 2 4 22 30 25 19 13 6 4 9 9 16 16 17 13 11 19 18 14 11 9 10 15 17 17 17 17 16 15 13 12 11 12 12 13 13 12 12 12
2 2 3 2 1 2 2 2 1 1 2 2 1 2 2 3 4 9 27 27 22 22 20 17 10 3 7 9 10 8 3 9 14 12 10 9 7 8 12 16 17 16 14 12 11 11 11 11 13 12 11 10 10 10
2 2 3 3 3 3 3 3 3 2 3 2 2 2 2 3 2 3 16 23 19 19 20 18 12 5 1 0 2 3 4 3 2 5 5 6 6 8 11 14 15 14 13 12 10 9 9 9 9 8 8 7 8 9

GFSWCAN_925_spd_126.txt.gz
Wind_Speed
30 28 27 25 25 25 25 25 24 19 17 13 11 11 11 10 9 7 10 10 3 3 1 2 2 4 3 2 3 2 3 3 3 3 1 0 1 1 1 1 1 2 3 2 3 2 2 13 3 4 4 3 7 8
37 29 28 26 25 26 26 24 22 21 16 12 12 12 11 11 10 9 6 8 10 4 3 1 2 3 5 5 4 2 3 2 2 3 1 1 1 2 1 1 3 1 1 2 1 1 4 5 6 5 6 5 6 9
29 33 32 30 27 26 24 24 21 19 17 14 14 13 11 11 8 7 11 5 7 3 3 3 3 4 5 10 3 4 1 2 2 2 3 1 1 3 1 1 0 1 3 1 2 3 4 5 5 7 6 7 8 7
32 34 34 32 29 26 25 25 22 21 18 16 15 14 12 12 13 15 8 8 7 4 3 0 3 3 4 6 9 4 5 4 5 2 2 2 1 1 1 1 2 0 2 1 1 3 5 5 5 4 4 5 5 8
24 35 35 32 29 29 27 26 24 22 20 18 16 14 13 13 13 13 13 13 10 4 3 1 2 4 1 6 9 10 5 3 2 2 2 1 1 1 0 1 1 1 2 1 2 1 1 3 5 5 3 5 6 7
24 31 32 32 30 32 29 25 23 22 20 18 16 14 14 16 15 6 3 5 6 4 3 2 3 3 5 10 10 8 5 2 2 2 2 2 2 2 2 1 3 4 3 1 3 3 5 4 4 6 4 7 9 10
26 28 27 34 36 33 31 28 25 24 21 19 17 15 13 11 7 7 3 3 7 5 3 2 2 3 8 6 3 2 2 1 2 1 0 1 2 2 1 2 3 6 6 5 5 6 4 6 3 7 13 12 11 11
22 22 38 37 37 34 31 28 25 23 22 20 18 15 13 15 14 8 9 8 6 6 3 3 1 1 1 2 2 3 2 0 2 1 1 1 1 1 1 2 7 7 7 6 6 6 5 8 8 8 10 8 8 7
20 24 30 41 38 35 31 29 26 25 25 22 19 17 11 4 4 4 11 10 6 4 3 2 3 3 2 2 2 2 2 1 2 1 2 2 1 4 3 6 7 4 3 9 7 7 6 8 6 5 7 7 6 7
22 21 34 35 38 37 32 31 28 28 26 23 13 4 3 2 15 11 4 2 3 2 1 1 1 2 3 2 1 2 2 0 0 3 2 2 2 3 3 6 6 5 4 7 9 6 6 4 6 6 7 9 9 8
22 21 23 30 33 37 34 31 31 30 23 5 3 2 6 14 3 3 2 2 1 1 2 2 3 2 1 3 3 1 2 2 1 2 2 2 3 4 7 7 5 8 9 9 9 8 7 7 6 6 7 9 9 9
20 21 22 27 34 37 36 34 33 14 8 6 12 10 4 3 2 4 1 1 1 2 2 3 3 3 1 2 3 2 2 1 2 2 1 3 2 7 8 8 7 8 9 10 10 10 11 10 9 10 9 9 8 8
20 21 23 30 33 37 36 34 20 18 26 7 5 3 3 1 4 4 4 2 2 2 4 3 2 3 1 3 3 2 3 3 2 0 3 3 4 7 8 8 8 9 11 11 11 11 12 13 13 14 13 10 9 9
17 20 24 20 31 35 35 26 26 19 3 3 3 3 3 2 3 4 2 2 2 2 2 2 3 3 1 3 2 4 3 1 2 2 5 3 7 9 8 7 8 6 9 11 13 15 16 16 15 13 12 10 10 10
19 17 17 17 22 36 31 26 18 6 4 3 3 2 3 2 3 2 2 0 2 3 2 2 2 2 2 3 1 3 2 3 5 4 3 3 10 9 9 7 8 7 11 12 15 16 15 15 14 13 11 9 8 9
23 19 13 16 18 29 28 22 9 3 3 3 2 2 1 2 3 3 2 3 1 3 2 1 2 3 1 4 3 5 3 5 4 3 2 6 10 8 8 8 11 16 18 18 16 16 15 14 13 11 10 10 9 10
12 6 16 19 22 25 22 10 4 4 3 2 1 2 1 1 3 2 2 2 2 2 2 2 3 5 3 2 3 4 5 4 3 2 2 6 11 10 11 14 18 20 20 19 17 15 14 13 13 12 12 11 10 9
13 19 18 23 22 20 7 4 3 2 1 2 2 3 2 2 1 2 1 1 1 2 3 3 4 2 4 4 3 4 2 1 0 2 3 3 11 16 18 18 21 23 22 20 19 18 16 15 12 11 11 11 9 7
24 22 20 19 13 5 2 1 0 2 3 2 2 1 1 1 1 0 1 2 3 3 0 0 3 3 4 3 4 3 3 3 3 3 2 6 19 20 22 23 25 24 24 22 20 19 17 15 12 10 9 11 12 9
21 20 21 12 5 3 3 2 2 2 2 3 1 1 2 2 1 2 2 2 1 1 2 3 4 4 4 3 4 3 3 5 6 4 1 1 16 22 22 22 19 24 23 20 18 15 13 10 10 9 8 9 11 10
17 14 9 3 3 5 2 2 1 2 1 1 1 2 2 1 1 1 1 2 1 2 3 3 3 3 1 1 4 8 11 15 6 5 6 6 16 16 20 20 23 21 18 19 17 15 13 13 12 10 8 7 6 5
10 10 4 4 3 2 0 2 2 1 2 1 1 1 1 1 1 2 1 1 3 3 3 3 2 3 2 2 4 11 13 15 13 14 14 21 7 10 14 20 19 16 19 23 21 18 15 13 12 12 9 8 7 6
12 7 3 2 3 1 3 3 1 2 2 2 1 1 2 1 2 1 1 3 3 2 3 2 0 2 5 6 10 12 18 17 10 12 15 15 16 18 19 22 22 20 16 22 20 17 15 13 14 15 12 11 11 10
11 3 3 3 3 3 1 2 2 2 1 1 2 2 2 2 1 2 3 2 2 5 3 3 4 3 5 5 2 5 11 14 14 13 17 17 13 15 21 21 23 26 25 22 19 16 14 12 13 16 16 15 15 15
4 4 4 3 2 2 1 2 2 2 3 3 2 3 2 2 1 1 2 3 5 6 3 4 2 1 2 1 3 9 14 17 13 8 16 16 15 15 14 20 23 25 22 18 18 18 19 18 20 19 18 18 18 18
2 4 6 5 3 5 5 3 4 5 3 2 4 2 2 2 0 4 1 3 2 3 6 4 2 1 1 4 3 7 15 17 15 10 15 20 22 19 15 12 11 19 23 21 20 19 18 21 22 20 20 19 18 17
3 3 2 1 1 1 2 1 2 2 3 4 2 1 2 1 4 2 2 3 3 12 18 16 10 7 4 5 7 10 16 18 14 11 11 22 22 23 25 23 20 24 22 23 22 22 22 24 23 22 20 18 17 17
4 2 4 2 1 0 1 2 4 4 2 1 3 2 5 4 3 3 2 16 20 19 15 8 4 6 6 8 10 13 16 16 11 8 11 15 16 17 17 18 18 16 14 18 19 20 20 20 21 21 20 19 17 15
2 1 3 0 0 1 2 3 3 1 1 2 3 3 2 2 5 6 9 22 19 13 8 3 4 2 3 6 10 14 17 20 17 5 4 3 4 14 17 18 17 16 13 13 15 16 16 16 16 17 18 17 14 13
2 2 3 2 3 3 2 2 2 1 1 2 3 2 2 3 7 16 18 20 20 17 15 11 6 2 4 8 8 9 15 16 11 8 5 5 14 13 16 17 17 17 16 16 18 17 15 14 13 12 13 14 13 12
1 2 2 1 1 1 1 1 1 1 2 2 2 3 2 3 4 19 27 23 19 20 22 21 16 14 8 4 1 3 4 11 10 6 4 5 4 6 10 13 14 15 15 16 17 15 13 12 11 11 12 13 13 12
1 1 3 3 1 1 0 0 1 2 1 2 2 2 2 3 3 8 23 25 21 20 19 19 19 17 11 5 2 5 11 5 3 4 5 6 5 4 6 10 11 11 12 13 12 10 9 8 9 9 9 9 9 9
1 1 2 2 1 0 1 1 3 1 3 2 2 2 2 3 2 2 14 21 18 18 21 19 15 13 11 9 8 7 7 7 5 3 3 3 3 4 6 9 11 11 12 11 10 9 8 7 7 7 7 7 7 7

GFSWCAN_925_spd_129.txt.gz
Wind_Speed
26 27 26 26 27 26 25 20 21 17 15 13 13 10 10 10 7 6 10 11 3 3 2 3 2 4 3 2 3 3 2 2 2 3 2 2 1 2 2 3 2 1 0 0 1 1 2 10 3 3 3 4 8 8
22 27 29 29 29 27 26 22 22 20 16 14 14 12 11 10 9 9 6 13 14 5 3 5 8 7 4 4 5 1 2 2 2 3 1 2 2 1 3 4 1 2 1 1 0 1 6 6 7 4 4 3 6 7
24 31 31 27 26 29 24 25 24 20 16 14 14 13 11 10 7 9 11 7 9 3 4 4 3 7 6 5 6 4 0 3 2 1 3 2 2 2 2 2 3 3 1 2 3 4 5 6 6 5 4 3 5 7
33 33 31 30 31 27 26 25 22 20 17 17 15 14 12 11 12 11 9 9 9 3 3 1 3 5 5 7 9 9 8 6 5 2 2 2 2 1 1 2 1 1 3 3 3 6 7 5 5 4 3 4 4 8
31 33 31 30 27 27 28 27 24 19 18 18 17 16 15 15 18 20 22 17 10 3 3 3 2 6 4 10 14 13 12 4 2 2 2 1 1 2 1 1 1 2 3 3 2 4 2 5 5 4 1 5 6 5
30 36 35 33 29 28 30 27 24 22 19 18 18 17 16 16 13 5 4 8 11 4 3 3 1 3 5 11 12 9 7 3 2 2 1 0 1 1 1 2 3 3 2 1 3 4 8 8 6 1 7 8 8 8
33 38 34 32 29 31 26 27 25 23 22 19 19 17 14 9 7 8 3 3 5 4 3 3 2 2 8 4 3 2 3 2 2 2 1 1 0 1 2 2 8 8 7 7 8 9 6 4 5 11 11 10 10 9
30 42 37 34 32 32 28 27 26 25 22 20 19 18 18 18 15 10 9 7 7 8 3 3 2 2 2 2 2 3 1 1 2 1 1 1 1 0 2 4 8 9 9 7 5 6 7 12 10 9 8 7 8 7
28 36 36 35 37 33 31 29 27 26 24 23 22 20 12 6 4 5 9 8 13 6 3 2 4 3 2 2 2 2 1 1 2 1 0 2 1 4 2 10 10 11 6 10 9 10 9 10 8 7 8 7 7 7
22 33 38 40 38 35 32 30 27 26 25 23 7 5 3 3 18 9 3 3 3 3 2 2 1 3 3 1 2 1 1 1 0 2 2 2 2 2 2 6 8 6 10 12 11 7 8 7 7 7 7 8 8 8
27 37 43 42 41 37 34 33 32 28 21 3 3 2 6 11 2 3 2 2 1 1 1 1 1 3 2 3 3 1 2 2 1 1 2 2 3 4 8 8 7 7 7 7 8 9 7 11 9 8 8 9 9 8
29 37 41 42 40 38 36 35 32 11 6 7 14 8 4 3 3 4 1 1 1 2 2 3 2 2 2 2 3 2 2 2 1 3 2 2 2 7 10 9 8 9 11 11 11 13 13 12 11 12 11 10 9 9
23 32 38 40 39 38 37 33 19 20 29 9 5 4 3 2 5 3 3 1 1 3 4 3 3 2 2 2 3 2 3 2 3 2 3 3 5 9 10 9 9 10 12 12 12 12 12 12 13 14 14 12 13 13
21 27 33 40 38 36 35 23 25 18 4 3 3 4 2 0 0 2 1 2 1 2 4 2 3 1 1 2 2 4 1 0 0 2 4 2 9 11 10 9 10 10 10 12 12 14 16 18 17 15 14 11 12 13
22 23 28 36 38 36 28 27 19 5 4 3 3 2 1 1 1 1 1 0 1 2 3 2 2 1 1 3 1 3 2 2 4 4 3 2 10 12 11 10 9 9 11 12 15 16 18 19 18 15 12 11 12 12
21 18 16 34 36 30 29 20 8 4 4 3 3 3 0 2 2 2 1 1 0 2 2 1 2 3 1 3 3 4 4 5 3 3 1 7 10 10 10 9 12 14 15 17 18 19 18 18 17 15 12 11 11 10
13 6 18 26 25 25 20 13 4 4 3 3 0 2 3 2 1 1 1 2 1 1 1 1 3 4 3 3 3 4 5 3 2 2 4 7 11 11 12 13 16 18 18 18 19 18 18 16 15 14 12 12 12 10
26 21 29 29 33 22 11 5 3 2 2 1 3 2 2 2 2 1 1 1 0 1 1 2 2 2 4 5 3 3 3 1 1 2 4 5 10 14 17 16 18 20 20 21 21 20 18 18 15 12 15 14 11 9
26 23 24 21 13 5 3 2 3 3 2 2 1 1 1 1 1 1 0 2 2 2 1 0 2 3 3 3 4 2 2 4 3 2 2 6 15 17 19 19 21 20 21 23 21 17 18 20 15 14 13 12 10 9
22 20 16 6 4 3 3 2 1 2 2 2 1 2 1 1 1 0 0 1 1 1 2 3 4 3 3 3 3 2 2 5 5 4 2 3 12 19 18 20 18 19 20 20 19 19 16 13 13 13 12 11 10 9
16 11 10 6 4 6 3 2 1 1 2 2 1 1 0 1 1 1 1 2 2 2 3 3 3 2 1 2 2 4 9 12 6 4 5 6 12 14 15 15 20 18 17 17 16 15 17 15 15 15 13 11 9 8
8 6 5 4 4 3 2 2 2 1 2 1 1 1 0 0 1 2 1 1 2 2 1 2 2 2 1 2 3 5 5 12 9 8 12 20 7 11 14 18 19 17 18 19 19 18 18 19 16 16 15 12 11 9
7 4 3 3 4 3 2 1 2 1 2 2 1 1 2 1 2 0 2 2 0 2 4 3 4 4 2 2 2 3 8 12 8 7 10 11 13 15 17 19 20 20 17 18 22 21 22 19 17 17 16 14 13 12
5 3 3 2 3 1 1 1 0 2 1 1 2 2 2 2 0 0 2 1 2 3 2 5 2 2 1 1 0 3 6 10 8 8 11 13 12 14 17 19 20 22 22 19 25 23 21 19 18 18 18 16 15 15
4 4 4 1 1 2 2 1 1 3 3 4 2 2 2 1 1 1 1 1 3 4 6 10 6 2 2 2 3 4 9 11 9 6 11 11 11 11 11 13 17 23 26 23 23 24 21 19 18 18 18 18 17 16
1 3 4 5 2 4 4 3 4 5 3 3 4 1 1 1 1 2 0 2 2 3 6 7 6 6 2 3 2 3 9 12 11 6 10 16 18 16 14 12 12 16 25 27 25 24 23 20 20 20 20 19 18 17
2 3 2 2 1 1 2 1 2 2 4 4 2 2 2 0 3 0 1 4 3 9 16 15 13 10 7 6 5 5 4 12 8 6 4 14 18 18 20 19 18 18 22 27 25 24 23 22 21 21 22 20 19 18
4 1 3 2 1 1 2 2 3 4 3 2 3 2 3 3 1 3 2 12 17 17 16 13 11 9 6 4 2 5 8 10 6 3 5 5 10 12 14 14 15 12 12 20 24 24 23 21 20 20 20 20 19 18
2 1 3 1 1 1 2 2 1 1 1 1 2 2 2 3 4 6 7 17 16 12 13 17 18 14 9 6 3 3 5 12 9 3 2 1 2 8 12 12 11 10 10 10 12 15 17 16 16 15 15 16 15 14
2 2 3 1 3 3 1 0 1 0 2 3 3 3 3 3 6 13 15 16 17 16 15 13 15 17 13 12 7 5 2 4 2 1 1 1 4 5 5 12 13 13 12 13 12 13 14 14 14 12 12 12 13 13
0 1 2 2 2 1 1 0 1 2 2 2 2 3 3 3 3 15 24 21 18 18 19 19 19 21 17 16 13 9 5 3 2 2 2 3 3 3 2 4 8 10 12 13 14 14 14 13 12 10 10 11 11 11
1 1 3 2 1 0 1 1 1 2 1 2 2 2 2 2 2 6 21 23 19 19 18 19 17 17 16 10 6 8 8 8 6 5 5 4 3 3 2 3 4 7 8 9 11 10 9 8 7 7 7 7 7 8
1 1 1 1 1 1 1 1 1 2 2 2 2 2 2 2 3 2 12 20 17 17 20 18 12 13 13 12 11 11 10 10 8 7 7 6 4 3 1 1 4 6 7 9 8 7 6 5 5 5 5 5 4 4

GFSWCAN_925_spd_132.txt.gz
Wind_Speed
21 27 28 25 27 25 22 21 19 16 16 14 11 10 11 10 6 1 5 5 3 3 5 4 3 6 5 5 7 6 5 2 3 4 3 3 3 3 4 4 4 4 2 2 2 4 3 8 2 3 3 2 5 5
19 27 26 25 27 28 24 21 18 16 14 14 11 11 10 9 8 4 5 13 15 6 5 9 13 10 8 6 7 3 2 4 2 2 1 2 3 3 5 5 3 3 3 1 4 3 4 7 8 5 2 2 4 5
16 26 28 28 28 27 28 24 20 17 14 14 11 10 9 7 4 8 9 10 12 5 7 5 6 10 9 9 3 3 2 3 3 2 2 2 2 2 4 3 5 3 1 1 5 5 5 6 6 4 4 4 4 5
17 32 30 31 30 31 27 25 22 19 16 15 12 9 8 7 9 12 8 6 6 4 5 5 4 6 6 6 10 9 12 7 5 1 2 2 2 2 3 3 2 2 7 4 3 7 7 5 5 4 5 5 6 6
20 31 31 33 26 29 25 27 23 19 16 17 15 12 12 14 16 20 19 11 7 2 4 6 7 8 7 12 16 14 11 6 3 2 2 2 3 3 2 2 3 4 4 4 1 8 3 8 6 3 4 4 4 3
27 36 32 30 34 29 29 27 23 20 20 17 16 17 19 17 8 3 3 10 11 12 5 4 2 3 5 10 12 10 6 3 2 3 3 2 2 1 2 2 4 5 5 3 4 6 9 9 5 4 7 6 5 6
37 36 33 35 31 31 30 30 25 21 21 19 17 16 11 5 5 6 3 2 7 6 3 5 4 3 7 3 3 3 4 3 2 2 2 2 3 2 1 2 10 9 8 10 11 11 8 8 5 10 10 9 7 7
34 36 34 35 32 33 32 28 25 22 20 20 18 17 17 16 13 7 11 10 8 6 3 4 3 4 3 3 3 2 2 2 2 2 2 2 3 2 2 6 10 11 11 9 8 2 8 12 11 8 9 7 5 5
40 39 36 34 32 33 32 29 28 25 22 23 22 17 9 8 4 3 6 11 14 6 3 2 7 4 5 3 2 2 2 1 1 1 2 2 3 4 2 12 13 13 9 12 10 11 11 10 9 7 7 6 5 6
48 38 36 33 36 35 32 30 28 27 28 23 7 5 3 2 11 4 5 3 4 4 3 3 1 4 4 3 2 3 1 1 2 2 3 2 3 3 3 9 11 11 11 14 12 10 10 10 9 8 6 6 7 8
41 40 40 40 37 35 34 32 30 30 20 3 3 2 8 6 1 2 2 2 1 2 2 2 3 7 1 4 3 1 2 2 2 3 2 2 3 5 8 9 8 10 14 9 5 6 9 9 9 9 9 9 9 9
42 43 43 41 38 36 34 31 29 15 4 5 14 9 3 2 2 3 2 2 1 3 3 5 6 4 3 2 3 3 2 2 2 4 2 2 2 9 12 11 10 11 12 10 9 10 11 12 12 12 12 11 11 11
42 44 43 40 38 37 33 31 18 19 27 7 5 3 1 2 2 3 5 3 4 4 4 5 4 2 3 2 3 2 4 2 3 2 3 2 7 9 11 11 11 12 12 13 13 13 14 14 13 14 14 12 12 12
41 43 41 39 36 35 33 21 28 11 3 3 2 4 2 2 2 1 3 3 3 3 6 5 4 2 2 3 2 4 1 3 2 3 4 2 9 12 12 11 12 12 13 13 14 14 14 15 14 14 14 14 14 12
40 42 40 37 34 33 25 30 8 4 4 3 2 3 2 2 2 3 2 2 2 4 6 4 3 1 2 3 2 3 4 3 4 3 1 3 10 13 13 12 11 11 13 13 14 15 15 16 16 14 13 12 12 14
31 30 26 35 30 25 27 17 4 3 4 3 3 4 2 3 3 2 2 2 1 3 2 0 2 2 2 3 3 4 3 4 2 2 2 6 10 12 12 11 14 15 15 15 15 16 17 16 16 15 12 12 13 11
17 6 36 32 26 22 16 4 4 4 3 2 3 4 4 4 3 2 2 2 2 2 2 1 3 2 3 3 3 4 4 1 1 2 2 5 11 12 14 15 15 16 16 17 17 17 16 15 15 15 14 12 12 10
25 27 31 30 26 19 7 6 3 3 3 2 2 3 1 1 3 3 2 2 1 0 2 1 1 3 3 4 3 3 3 2 1 1 2 5 11 15 16 17 17 18 18 17 17 17 17 16 16 14 14 15 12 11
32 27 32 25 18 6 2 3 3 3 3 2 3 2 1 1 1 2 2 2 2 2 2 0 2 3 3 3 3 2 2 3 3 3 3 5 11 15 16 16 17 18 18 19 20 18 18 17 14 15 15 16 13 12
25 26 23 17 5 3 3 2 1 2 2 2 2 3 1 1 2 1 1 2 2 1 3 3 3 1 1 2 2 2 2 5 5 4 3 5 10 14 16 17 17 18 17 17 16 16 16 16 14 15 16 15 14 13
16 14 12 9 4 7 3 1 3 3 3 2 2 2 2 1 1 1 1 3 2 2 3 2 2 4 5 4 4 3 1 5 3 3 3 6 14 16 15 15 16 18 18 19 18 18 18 18 18 17 16 15 14 12
7 6 3 4 4 2 3 4 2 2 1 2 2 1 1 2 2 2 2 2 2 1 3 3 4 6 6 4 4 2 3 4 2 4 8 14 9 13 16 19 19 18 19 20 20 20 20 18 17 17 16 14 12 11
6 4 5 4 4 3 3 2 2 2 2 3 2 2 2 2 2 3 2 2 1 2 3 4 8 7 8 7 4 2 1 4 4 4 6 7 9 13 16 18 20 20 19 20 20 19 19 19 18 17 15 13 12 11
4 4 3 3 3 3 0 2 1 2 2 3 2 2 2 2 3 3 2 2 2 2 4 8 7 5 4 3 3 3 2 4 3 3 5 7 8 11 14 16 18 19 19 17 20 19 18 18 17 18 17 16 16 15
2 2 1 3 2 3 3 4 4 3 2 3 3 2 2 2 3 2 2 2 1 3 5 9 7 5 4 4 5 4 3 4 5 4 6 7 6 8 10 12 14 15 16 16 18 19 18 17 17 17 17 18 17 17
2 1 0 3 3 2 4 3 3 3 2 3 4 1 2 2 3 2 2 2 3 4 6 7 6 6 5 4 5 5 3 5 5 5 3 8 10 9 9 10 11 15 17 19 17 19 19 18 18 18 17 17 18 17
0 1 2 2 1 1 2 1 2 2 4 4 3 4 3 3 3 2 2 5 4 9 12 11 10 10 8 11 7 5 4 3 2 1 1 4 7 7 8 10 11 9 12 19 18 18 19 18 18 18 17 16 16 18
2 1 3 3 2 1 2 2 3 3 3 2 3 3 2 1 2 3 3 9 11 12 11 9 6 8 8 7 6 3 2 2 1 1 3 2 2 4 5 5 6 5 5 12 17 16 16 16 16 15 16 16 15 15
2 2 3 2 2 2 2 2 1 2 2 2 1 2 3 3 4 6 6 12 10 9 9 10 11 11 7 5 6 4 3 1 1 1 1 3 3 2 4 5 5 5 6 6 11 13 14 14 13 12 13 12 9 9
2 2 2 1 3 4 2 1 1 2 3 3 3 3 3 3 6 8 9 10 12 11 10 9 10 11 11 10 8 6 5 5 6 6 3 3 4 6 3 4 5 6 7 6 7 8 12 12 12 11 9 8 7 7
1 2 2 2 1 1 2 2 2 2 2 2 3 3 4 4 4 10 15 11 11 11 11 12 11 13 12 12 12 10 8 9 7 6 5 4 5 5 4 1 3 6 7 7 8 8 8 9 8 8 7 7 6 6
1 1 2 2 2 2 2 2 2 2 2 2 2 3 3 3 3 4 13 14 12 13 13 12 12 12 13 9 8 7 6 7 9 8 7 6 6 5 4 3 1 2 4 4 4 5 6 5 4 4 4 4 3 4
1 1 0 2 2 3 2 2 2 2 2 2 3 2 3 3 3 4 7 12 10 11 13 13 10 6 9 10 10 9 10 10 10 9 9 8 6 5 4 4 4 4 6 7 7 7 7 7 6 6 6 6 6 6